<?xml version='1.0' encoding='UTF-8'?><gpx version="1.1" creator="JPX - https://github.com/jenetics/jpx" xmlns="http://www.topografix.com/GPX/1/1"><trk><trkseg><trkpt lat="43.3547203" lon="11.9993864"><ele>357.0</ele><time>2026-04-18T07:44:09.9Z</time></trkpt><trkpt lat="43.3546565" lon="11.9993836"><ele>357.0</ele><time>2026-04-18T07:44:12.9Z</time></trkpt><trkpt lat="43.3546257" lon="11.9993079"><ele>357.0</ele><time>2026-04-18T07:44:18.9Z</time></trkpt><trkpt lat="43.3547328" lon="11.99929"><ele>357.0</ele><time>2026-04-18T07:44:20.9Z</time></trkpt><trkpt lat="43.3547975" lon="11.9992728"><ele>357.0</ele><time>2026-04-18T07:44:21.901Z</time></trkpt><trkpt lat="43.3548765" lon="11.9992453"><ele>357.0</ele><time>2026-04-18T07:44:22.901Z</time></trkpt><trkpt lat="43.354974" lon="11.9992088"><ele>357.0</ele><time>2026-04-18T07:44:23.901Z</time></trkpt><trkpt lat="43.3550699" lon="11.9991703"><ele>357.0</ele><time>2026-04-18T07:44:24.901Z</time></trkpt><trkpt lat="43.3551556" lon="11.9991403"><ele>357.0</ele><time>2026-04-18T07:44:25.901Z</time></trkpt><trkpt lat="43.3552348" lon="11.9991232"><ele>357.0</ele><time>2026-04-18T07:44:26.901Z</time></trkpt><trkpt lat="43.3553119" lon="11.9991343"><ele>357.0</ele><time>2026-04-18T07:44:27.901Z</time></trkpt><trkpt lat="43.355385" lon="11.9991653"><ele>357.0</ele><time>2026-04-18T07:44:28.9Z</time></trkpt><trkpt lat="43.3554315" lon="11.9992399"><ele>357.0</ele><time>2026-04-18T07:44:29.9Z</time></trkpt><trkpt lat="43.3554809" lon="11.9993582"><ele>357.0</ele><time>2026-04-18T07:44:30.9Z</time></trkpt><trkpt lat="43.3554936" lon="11.9994979"><ele>357.0</ele><time>2026-04-18T07:44:31.9Z</time></trkpt><trkpt lat="43.3554822" lon="11.9996592"><ele>357.0</ele><time>2026-04-18T07:44:32.902Z</time></trkpt><trkpt lat="43.3554702" lon="11.9998398"><ele>357.0</ele><time>2026-04-18T07:44:33.901Z</time></trkpt><trkpt lat="43.3554602" lon="12.0000461"><ele>357.0</ele><time>2026-04-18T07:44:34.901Z</time></trkpt><trkpt lat="43.3554482" lon="12.0002688"><ele>357.0</ele><time>2026-04-18T07:44:35.9Z</time></trkpt><trkpt lat="43.355425" lon="12.0004694"><ele>357.0</ele><time>2026-04-18T07:44:36.9Z</time></trkpt><trkpt lat="43.3553916" lon="12.000666"><ele>357.0</ele><time>2026-04-18T07:44:37.9Z</time></trkpt><trkpt lat="43.3553462" lon="12.0008601"><ele>357.0</ele><time>2026-04-18T07:44:38.902Z</time></trkpt><trkpt lat="43.3553145" lon="12.0010492"><ele>357.0</ele><time>2026-04-18T07:44:39.901Z</time></trkpt><trkpt lat="43.3552862" lon="12.0012426"><ele>358.0</ele><time>2026-04-18T07:44:40.901Z</time></trkpt><trkpt lat="43.3553528" lon="12.0014363"><ele>359.0</ele><time>2026-04-18T07:44:41.901Z</time></trkpt><trkpt lat="43.35541" lon="12.0016378"><ele>360.0</ele><time>2026-04-18T07:44:42.902Z</time></trkpt><trkpt lat="43.3554787" lon="12.0018376"><ele>353.25</ele><time>2026-04-18T07:44:43.9Z</time></trkpt><trkpt lat="43.3555499" lon="12.0020082"><ele>346.5</ele><time>2026-04-18T07:44:44.9Z</time></trkpt><trkpt lat="43.3556128" lon="12.0021509"><ele>339.75</ele><time>2026-04-18T07:44:45.9Z</time></trkpt><trkpt lat="43.3556814" lon="12.0022583"><ele>333.0</ele><time>2026-04-18T07:44:46.9Z</time></trkpt><trkpt lat="43.355763" lon="12.0023339"><ele>333.0</ele><time>2026-04-18T07:44:47.901Z</time></trkpt><trkpt lat="43.3558533" lon="12.0023478"><ele>333.0</ele><time>2026-04-18T07:44:48.901Z</time></trkpt><trkpt lat="43.3559431" lon="12.0023241"><ele>333.0</ele><time>2026-04-18T07:44:49.901Z</time></trkpt><trkpt lat="43.3560268" lon="12.0022817"><ele>333.0</ele><time>2026-04-18T07:44:50.901Z</time></trkpt><trkpt lat="43.3561027" lon="12.0022466"><ele>333.0</ele><time>2026-04-18T07:44:51.901Z</time></trkpt><trkpt lat="43.3561791" lon="12.0022321"><ele>333.0</ele><time>2026-04-18T07:44:52.902Z</time></trkpt><trkpt lat="43.3562458" lon="12.0022514"><ele>333.0</ele><time>2026-04-18T07:44:53.901Z</time></trkpt><trkpt lat="43.3563048" lon="12.002296"><ele>333.0</ele><time>2026-04-18T07:44:54.902Z</time></trkpt><trkpt lat="43.3563638" lon="12.0024418"><ele>333.0</ele><time>2026-04-18T07:44:56.901Z</time></trkpt><trkpt lat="43.3563653" lon="12.0026116"><ele>333.0</ele><time>2026-04-18T07:44:58.9Z</time></trkpt><trkpt lat="43.3563603" lon="12.0026988"><ele>333.0</ele><time>2026-04-18T07:44:59.902Z</time></trkpt><trkpt lat="43.3563603" lon="12.0027881"><ele>333.0</ele><time>2026-04-18T07:45:00.901Z</time></trkpt><trkpt lat="43.3563606" lon="12.0028801"><ele>332.7142857142857</ele><time>2026-04-18T07:45:01.901Z</time></trkpt><trkpt lat="43.3563575" lon="12.0029697"><ele>332.4285714285714</ele><time>2026-04-18T07:45:02.9Z</time></trkpt><trkpt lat="43.3563578" lon="12.0030623"><ele>332.1428571428571</ele><time>2026-04-18T07:45:03.901Z</time></trkpt><trkpt lat="43.3563613" lon="12.0031537"><ele>331.8571428571429</ele><time>2026-04-18T07:45:04.9Z</time></trkpt><trkpt lat="43.3563768" lon="12.0032504"><ele>331.57142857142856</ele><time>2026-04-18T07:45:05.901Z</time></trkpt><trkpt lat="43.3564098" lon="12.0033556"><ele>331.2857142857143</ele><time>2026-04-18T07:45:06.9Z</time></trkpt><trkpt lat="43.3564676" lon="12.0034578"><ele>331.0</ele><time>2026-04-18T07:45:07.902Z</time></trkpt><trkpt lat="43.3565443" lon="12.0035452"><ele>331.0</ele><time>2026-04-18T07:45:08.902Z</time></trkpt><trkpt lat="43.3566334" lon="12.0036177"><ele>331.0</ele><time>2026-04-18T07:45:09.901Z</time></trkpt><trkpt lat="43.3567369" lon="12.0036709"><ele>331.0</ele><time>2026-04-18T07:45:10.901Z</time></trkpt><trkpt lat="43.3568435" lon="12.0037086"><ele>331.0</ele><time>2026-04-18T07:45:11.9Z</time></trkpt><trkpt lat="43.3569568" lon="12.0037255"><ele>331.0</ele><time>2026-04-18T07:45:12.9Z</time></trkpt><trkpt lat="43.3570656" lon="12.0037238"><ele>331.0</ele><time>2026-04-18T07:45:13.902Z</time></trkpt><trkpt lat="43.3571823" lon="12.0037167"><ele>331.0</ele><time>2026-04-18T07:45:14.9Z</time></trkpt><trkpt lat="43.3573033" lon="12.0037121"><ele>331.0</ele><time>2026-04-18T07:45:15.901Z</time></trkpt><trkpt lat="43.3575404" lon="12.0037026"><ele>330.6</ele><time>2026-04-18T07:45:17.9Z</time></trkpt><trkpt lat="43.3576545" lon="12.0036939"><ele>330.20000000000005</ele><time>2026-04-18T07:45:18.901Z</time></trkpt><trkpt lat="43.3577582" lon="12.00367"><ele>329.79999999999995</ele><time>2026-04-18T07:45:19.902Z</time></trkpt><trkpt lat="43.3578472" lon="12.003624"><ele>329.4</ele><time>2026-04-18T07:45:20.9Z</time></trkpt><trkpt lat="43.3579225" lon="12.0035396"><ele>329.0</ele><time>2026-04-18T07:45:21.901Z</time></trkpt><trkpt lat="43.3579777" lon="12.003426"><ele>328.4</ele><time>2026-04-18T07:45:22.902Z</time></trkpt><trkpt lat="43.3580141" lon="12.0032982"><ele>327.79999999999995</ele><time>2026-04-18T07:45:23.9Z</time></trkpt><trkpt lat="43.358039" lon="12.0031614"><ele>327.20000000000005</ele><time>2026-04-18T07:45:24.9Z</time></trkpt><trkpt lat="43.3580548" lon="12.0030185"><ele>326.6</ele><time>2026-04-18T07:45:25.9Z</time></trkpt><trkpt lat="43.358056" lon="12.0028676"><ele>326.0</ele><time>2026-04-18T07:45:26.901Z</time></trkpt><trkpt lat="43.3580305" lon="12.0027215"><ele>326.0</ele><time>2026-04-18T07:45:27.901Z</time></trkpt><trkpt lat="43.3579748" lon="12.0025932"><ele>326.0</ele><time>2026-04-18T07:45:28.901Z</time></trkpt><trkpt lat="43.3579029" lon="12.0024744"><ele>326.0</ele><time>2026-04-18T07:45:29.901Z</time></trkpt><trkpt lat="43.3578279" lon="12.0023562"><ele>326.0</ele><time>2026-04-18T07:45:30.902Z</time></trkpt><trkpt lat="43.3577569" lon="12.0022317"><ele>326.25</ele><time>2026-04-18T07:45:31.902Z</time></trkpt><trkpt lat="43.3577003" lon="12.002072"><ele>326.5</ele><time>2026-04-18T07:45:32.901Z</time></trkpt><trkpt lat="43.3576519" lon="12.0019138"><ele>326.75</ele><time>2026-04-18T07:45:33.901Z</time></trkpt><trkpt lat="43.3576133" lon="12.0017462"><ele>327.0</ele><time>2026-04-18T07:45:34.901Z</time></trkpt><trkpt lat="43.3575819" lon="12.0015727"><ele>327.0</ele><time>2026-04-18T07:45:35.9Z</time></trkpt><trkpt lat="43.357547" lon="12.0014015"><ele>327.0</ele><time>2026-04-18T07:45:36.901Z</time></trkpt><trkpt lat="43.3575096" lon="12.0012306"><ele>327.0</ele><time>2026-04-18T07:45:37.901Z</time></trkpt><trkpt lat="43.3574718" lon="12.0010591"><ele>327.0</ele><time>2026-04-18T07:45:38.901Z</time></trkpt><trkpt lat="43.35743" lon="12.0008882"><ele>325.5</ele><time>2026-04-18T07:45:39.902Z</time></trkpt><trkpt lat="43.3574164" lon="12.0007037"><ele>324.0</ele><time>2026-04-18T07:45:40.901Z</time></trkpt><trkpt lat="43.3574215" lon="12.0005152"><ele>322.5</ele><time>2026-04-18T07:45:41.901Z</time></trkpt><trkpt lat="43.3574564" lon="12.0003272"><ele>321.0</ele><time>2026-04-18T07:45:42.901Z</time></trkpt><trkpt lat="43.3575139" lon="12.0001417"><ele>321.0</ele><time>2026-04-18T07:45:43.902Z</time></trkpt><trkpt lat="43.3575763" lon="11.99995"><ele>321.0</ele><time>2026-04-18T07:45:44.9Z</time></trkpt><trkpt lat="43.3576389" lon="11.9997595"><ele>321.0</ele><time>2026-04-18T07:45:45.901Z</time></trkpt><trkpt lat="43.3576926" lon="11.9995693"><ele>321.0</ele><time>2026-04-18T07:45:46.901Z</time></trkpt><trkpt lat="43.3577353" lon="11.9994041"><ele>321.0</ele><time>2026-04-18T07:45:47.901Z</time></trkpt><trkpt lat="43.3577731" lon="11.9992521"><ele>321.0</ele><time>2026-04-18T07:45:48.902Z</time></trkpt><trkpt lat="43.3577917" lon="11.9991233"><ele>321.0</ele><time>2026-04-18T07:45:49.901Z</time></trkpt><trkpt lat="43.3577999" lon="11.9990207"><ele>321.0</ele><time>2026-04-18T07:45:50.9Z</time></trkpt><trkpt lat="43.3578027" lon="11.9988871"><ele>320.5</ele><time>2026-04-18T07:45:52.901Z</time></trkpt><trkpt lat="43.3578087" lon="11.9987749"><ele>320.0</ele><time>2026-04-18T07:47:09.9Z</time></trkpt><trkpt lat="43.3577765" lon="11.9986342"><ele>319.5</ele><time>2026-04-18T07:47:11.9Z</time></trkpt><trkpt lat="43.3577728" lon="11.998405"><ele>319.0</ele><time>2026-04-18T07:47:13.9Z</time></trkpt><trkpt lat="43.3577509" lon="11.9981736"><ele>319.0</ele><time>2026-04-18T07:47:14.899Z</time></trkpt><trkpt lat="43.3577433" lon="11.9979759"><ele>319.0</ele><time>2026-04-18T07:47:15.899Z</time></trkpt><trkpt lat="43.3577292" lon="11.997772"><ele>319.0</ele><time>2026-04-18T07:47:16.9Z</time></trkpt><trkpt lat="43.3577211" lon="11.997556"><ele>318.0</ele><time>2026-04-18T07:47:17.9Z</time></trkpt><trkpt lat="43.3577041" lon="11.9973355"><ele>317.0</ele><time>2026-04-18T07:47:18.9Z</time></trkpt><trkpt lat="43.3576852" lon="11.9971077"><ele>316.0</ele><time>2026-04-18T07:47:19.9Z</time></trkpt><trkpt lat="43.357657" lon="11.99688"><ele>315.3333333333333</ele><time>2026-04-18T07:47:20.901Z</time></trkpt><trkpt lat="43.3576354" lon="11.9966419"><ele>314.6666666666667</ele><time>2026-04-18T07:47:21.899Z</time></trkpt><trkpt lat="43.3576049" lon="11.9964119"><ele>314.0</ele><time>2026-04-18T07:47:22.9Z</time></trkpt><trkpt lat="43.3575752" lon="11.9961729"><ele>314.0</ele><time>2026-04-18T07:47:23.9Z</time></trkpt><trkpt lat="43.3575453" lon="11.9959335"><ele>314.0</ele><time>2026-04-18T07:47:24.9Z</time></trkpt><trkpt lat="43.3575086" lon="11.9956962"><ele>314.0</ele><time>2026-04-18T07:47:25.901Z</time></trkpt><trkpt lat="43.357477" lon="11.9954513"><ele>314.0</ele><time>2026-04-18T07:47:26.9Z</time></trkpt><trkpt lat="43.3574459" lon="11.9952057"><ele>314.0</ele><time>2026-04-18T07:47:27.9Z</time></trkpt><trkpt lat="43.3574237" lon="11.994959"><ele>314.0</ele><time>2026-04-18T07:47:28.9Z</time></trkpt><trkpt lat="43.3573967" lon="11.9947273"><ele>312.6666666666667</ele><time>2026-04-18T07:47:29.9Z</time></trkpt><trkpt lat="43.3573687" lon="11.9945118"><ele>311.3333333333333</ele><time>2026-04-18T07:47:30.9Z</time></trkpt><trkpt lat="43.3573387" lon="11.9943037"><ele>310.0</ele><time>2026-04-18T07:47:31.9Z</time></trkpt><trkpt lat="43.357303" lon="11.9941052"><ele>308.66666666666663</ele><time>2026-04-18T07:47:32.899Z</time></trkpt><trkpt lat="43.3572468" lon="11.9939143"><ele>307.3333333333333</ele><time>2026-04-18T07:47:33.9Z</time></trkpt><trkpt lat="43.3571656" lon="11.9937408"><ele>306.0</ele><time>2026-04-18T07:47:34.901Z</time></trkpt><trkpt lat="43.3570619" lon="11.9935908"><ele>305.3333333333333</ele><time>2026-04-18T07:47:35.9Z</time></trkpt><trkpt lat="43.3569459" lon="11.993457"><ele>304.66666666666663</ele><time>2026-04-18T07:47:36.9Z</time></trkpt><trkpt lat="43.356813" lon="11.9933263"><ele>304.0</ele><time>2026-04-18T07:47:37.9Z</time></trkpt><trkpt lat="43.3566753" lon="11.9931863"><ele>304.0</ele><time>2026-04-18T07:47:38.9Z</time></trkpt><trkpt lat="43.3565302" lon="11.9930438"><ele>304.0</ele><time>2026-04-18T07:47:39.9Z</time></trkpt><trkpt lat="43.3563874" lon="11.9928899"><ele>304.0</ele><time>2026-04-18T07:47:40.9Z</time></trkpt><trkpt lat="43.3562547" lon="11.9927173"><ele>303.0</ele><time>2026-04-18T07:47:41.9Z</time></trkpt><trkpt lat="43.3561466" lon="11.992518"><ele>302.0</ele><time>2026-04-18T07:47:42.899Z</time></trkpt><trkpt lat="43.3560599" lon="11.9922982"><ele>301.0</ele><time>2026-04-18T07:47:43.9Z</time></trkpt><trkpt lat="43.355999" lon="11.9920518"><ele>301.0</ele><time>2026-04-18T07:47:44.899Z</time></trkpt><trkpt lat="43.3559579" lon="11.9917776"><ele>301.0</ele><time>2026-04-18T07:47:45.899Z</time></trkpt><trkpt lat="43.3559255" lon="11.991482"><ele>301.0</ele><time>2026-04-18T07:47:46.9Z</time></trkpt><trkpt lat="43.3558806" lon="11.9911694"><ele>301.0</ele><time>2026-04-18T07:47:47.9Z</time></trkpt><trkpt lat="43.3558266" lon="11.9908462"><ele>301.0</ele><time>2026-04-18T07:47:48.9Z</time></trkpt><trkpt lat="43.3557776" lon="11.9905399"><ele>301.0</ele><time>2026-04-18T07:47:49.9Z</time></trkpt><trkpt lat="43.3557248" lon="11.9902404"><ele>301.0</ele><time>2026-04-18T07:47:50.9Z</time></trkpt><trkpt lat="43.3556696" lon="11.9899591"><ele>301.0</ele><time>2026-04-18T07:47:51.901Z</time></trkpt><trkpt lat="43.3556024" lon="11.9896568"><ele>299.5</ele><time>2026-04-18T07:47:52.9Z</time></trkpt><trkpt lat="43.3555257" lon="11.989338"><ele>298.0</ele><time>2026-04-18T07:47:53.9Z</time></trkpt><trkpt lat="43.3554398" lon="11.9890039"><ele>298.0</ele><time>2026-04-18T07:47:54.9Z</time></trkpt><trkpt lat="43.3553634" lon="11.9886501"><ele>298.0</ele><time>2026-04-18T07:47:55.9Z</time></trkpt><trkpt lat="43.3553034" lon="11.9882761"><ele>296.5</ele><time>2026-04-18T07:47:56.899Z</time></trkpt><trkpt lat="43.3552616" lon="11.9879207"><ele>295.0</ele><time>2026-04-18T07:47:57.9Z</time></trkpt><trkpt lat="43.3552257" lon="11.9875787"><ele>294.0</ele><time>2026-04-18T07:47:58.9Z</time></trkpt><trkpt lat="43.3551906" lon="11.9872524"><ele>293.0</ele><time>2026-04-18T07:47:59.899Z</time></trkpt><trkpt lat="43.3551434" lon="11.986941"><ele>293.5</ele><time>2026-04-18T07:48:00.9Z</time></trkpt><trkpt lat="43.3550775" lon="11.9866324"><ele>294.0</ele><time>2026-04-18T07:48:01.9Z</time></trkpt><trkpt lat="43.3549925" lon="11.9863268"><ele>294.0</ele><time>2026-04-18T07:48:02.9Z</time></trkpt><trkpt lat="43.3548913" lon="11.9860258"><ele>294.0</ele><time>2026-04-18T07:48:03.9Z</time></trkpt><trkpt lat="43.3547874" lon="11.9857208"><ele>293.0</ele><time>2026-04-18T07:48:04.9Z</time></trkpt><trkpt lat="43.354696" lon="11.9854061"><ele>292.0</ele><time>2026-04-18T07:48:05.9Z</time></trkpt><trkpt lat="43.3546219" lon="11.9850776"><ele>291.0</ele><time>2026-04-18T07:48:06.9Z</time></trkpt><trkpt lat="43.3545584" lon="11.9847495"><ele>290.0</ele><time>2026-04-18T07:48:07.9Z</time></trkpt><trkpt lat="43.3544977" lon="11.9844129"><ele>290.5</ele><time>2026-04-18T07:48:08.9Z</time></trkpt><trkpt lat="43.3544411" lon="11.9840798"><ele>291.0</ele><time>2026-04-18T07:48:09.9Z</time></trkpt><trkpt lat="43.3543917" lon="11.9837651"><ele>291.0</ele><time>2026-04-18T07:48:10.9Z</time></trkpt><trkpt lat="43.3543495" lon="11.9834681"><ele>291.0</ele><time>2026-04-18T07:48:11.9Z</time></trkpt><trkpt lat="43.3543226" lon="11.9831845"><ele>291.0</ele><time>2026-04-18T07:48:12.899Z</time></trkpt><trkpt lat="43.3543164" lon="11.9829024"><ele>290.6666666666667</ele><time>2026-04-18T07:48:13.9Z</time></trkpt><trkpt lat="43.3543304" lon="11.9826033"><ele>290.33333333333337</ele><time>2026-04-18T07:48:14.9Z</time></trkpt><trkpt lat="43.3543442" lon="11.982327"><ele>290.0</ele><time>2026-04-18T07:48:15.901Z</time></trkpt><trkpt lat="43.3543535" lon="11.9820822"><ele>290.6666666666667</ele><time>2026-04-18T07:48:16.899Z</time></trkpt><trkpt lat="43.3543665" lon="11.9818385"><ele>291.3333333333333</ele><time>2026-04-18T07:48:17.901Z</time></trkpt><trkpt lat="43.3543768" lon="11.9815793"><ele>292.0</ele><time>2026-04-18T07:48:18.9Z</time></trkpt><trkpt lat="43.3543883" lon="11.9813015"><ele>292.66666666666663</ele><time>2026-04-18T07:48:19.9Z</time></trkpt><trkpt lat="43.3543992" lon="11.9810141"><ele>293.3333333333333</ele><time>2026-04-18T07:48:20.901Z</time></trkpt><trkpt lat="43.3544149" lon="11.9807251"><ele>294.0</ele><time>2026-04-18T07:48:21.9Z</time></trkpt><trkpt lat="43.3544298" lon="11.9804499"><ele>292.6666666666667</ele><time>2026-04-18T07:48:22.9Z</time></trkpt><trkpt lat="43.3544366" lon="11.9802345"><ele>291.33333333333337</ele><time>2026-04-18T07:48:23.899Z</time></trkpt><trkpt lat="43.3544254" lon="11.9800296"><ele>290.0</ele><time>2026-04-18T07:48:24.9Z</time></trkpt><trkpt lat="43.3543818" lon="11.9798405"><ele>290.0</ele><time>2026-04-18T07:48:25.9Z</time></trkpt><trkpt lat="43.3543" lon="11.9796693"><ele>290.0</ele><time>2026-04-18T07:48:26.901Z</time></trkpt><trkpt lat="43.354181" lon="11.9795218"><ele>290.0</ele><time>2026-04-18T07:48:27.899Z</time></trkpt><trkpt lat="43.3540413" lon="11.979394"><ele>290.0</ele><time>2026-04-18T07:48:28.9Z</time></trkpt><trkpt lat="43.3539147" lon="11.9792664"><ele>290.0</ele><time>2026-04-18T07:48:29.9Z</time></trkpt><trkpt lat="43.3538113" lon="11.9791043"><ele>290.0</ele><time>2026-04-18T07:48:30.9Z</time></trkpt><trkpt lat="43.3537241" lon="11.9789164"><ele>290.0</ele><time>2026-04-18T07:48:31.9Z</time></trkpt><trkpt lat="43.3536432" lon="11.9786838"><ele>290.0</ele><time>2026-04-18T07:48:32.9Z</time></trkpt><trkpt lat="43.3535618" lon="11.9784279"><ele>290.0</ele><time>2026-04-18T07:48:33.9Z</time></trkpt><trkpt lat="43.3534699" lon="11.9781494"><ele>290.0</ele><time>2026-04-18T07:48:34.9Z</time></trkpt><trkpt lat="43.3533972" lon="11.9778545"><ele>290.0</ele><time>2026-04-18T07:48:35.899Z</time></trkpt><trkpt lat="43.3533404" lon="11.977581"><ele>290.0</ele><time>2026-04-18T07:48:36.9Z</time></trkpt><trkpt lat="43.353297" lon="11.9773314"><ele>290.0</ele><time>2026-04-18T07:48:37.899Z</time></trkpt><trkpt lat="43.3532734" lon="11.9770701"><ele>290.0</ele><time>2026-04-18T07:48:38.9Z</time></trkpt><trkpt lat="43.3532461" lon="11.976771"><ele>290.0</ele><time>2026-04-18T07:48:39.9Z</time></trkpt><trkpt lat="43.3532229" lon="11.9764591"><ele>290.0</ele><time>2026-04-18T07:48:40.9Z</time></trkpt><trkpt lat="43.353187" lon="11.9761521"><ele>290.0</ele><time>2026-04-18T07:48:41.899Z</time></trkpt><trkpt lat="43.3531359" lon="11.9758583"><ele>290.0</ele><time>2026-04-18T07:48:42.9Z</time></trkpt><trkpt lat="43.3530671" lon="11.9755559"><ele>286.5</ele><time>2026-04-18T07:48:43.9Z</time></trkpt><trkpt lat="43.3529815" lon="11.9752632"><ele>283.0</ele><time>2026-04-18T07:48:44.9Z</time></trkpt><trkpt lat="43.3528923" lon="11.9749702"><ele>283.0</ele><time>2026-04-18T07:48:45.9Z</time></trkpt><trkpt lat="43.3528097" lon="11.9746913"><ele>283.0</ele><time>2026-04-18T07:48:46.901Z</time></trkpt><trkpt lat="43.3527485" lon="11.9743999"><ele>283.0</ele><time>2026-04-18T07:48:47.9Z</time></trkpt><trkpt lat="43.3527124" lon="11.9741002"><ele>282.0</ele><time>2026-04-18T07:48:48.9Z</time></trkpt><trkpt lat="43.3526994" lon="11.9737801"><ele>281.0</ele><time>2026-04-18T07:48:49.9Z</time></trkpt><trkpt lat="43.3526953" lon="11.9734445"><ele>281.0</ele><time>2026-04-18T07:48:50.901Z</time></trkpt><trkpt lat="43.3526891" lon="11.9730991"><ele>281.0</ele><time>2026-04-18T07:48:51.901Z</time></trkpt><trkpt lat="43.352682" lon="11.9727522"><ele>280.6666666666667</ele><time>2026-04-18T07:48:52.9Z</time></trkpt><trkpt lat="43.3526709" lon="11.9724321"><ele>280.3333333333333</ele><time>2026-04-18T07:48:53.9Z</time></trkpt><trkpt lat="43.3526637" lon="11.9721446"><ele>280.0</ele><time>2026-04-18T07:48:54.899Z</time></trkpt><trkpt lat="43.352649" lon="11.9718889"><ele>280.3333333333333</ele><time>2026-04-18T07:48:55.9Z</time></trkpt><trkpt lat="43.3526201" lon="11.9716461"><ele>280.6666666666667</ele><time>2026-04-18T07:48:56.901Z</time></trkpt><trkpt lat="43.3525711" lon="11.9714198"><ele>281.0</ele><time>2026-04-18T07:48:57.901Z</time></trkpt><trkpt lat="43.3525067" lon="11.9711997"><ele>281.0</ele><time>2026-04-18T07:48:58.901Z</time></trkpt><trkpt lat="43.3524326" lon="11.9709821"><ele>281.0</ele><time>2026-04-18T07:48:59.901Z</time></trkpt><trkpt lat="43.3523555" lon="11.9707503"><ele>281.0</ele><time>2026-04-18T07:49:00.9Z</time></trkpt><trkpt lat="43.352279" lon="11.9705062"><ele>281.0</ele><time>2026-04-18T07:49:01.9Z</time></trkpt><trkpt lat="43.3522089" lon="11.970278"><ele>281.0</ele><time>2026-04-18T07:49:02.9Z</time></trkpt><trkpt lat="43.3521404" lon="11.9700656"><ele>281.0</ele><time>2026-04-18T07:49:03.9Z</time></trkpt><trkpt lat="43.3520719" lon="11.9698631"><ele>280.6666666666667</ele><time>2026-04-18T07:49:04.901Z</time></trkpt><trkpt lat="43.3520006" lon="11.9696514"><ele>280.3333333333333</ele><time>2026-04-18T07:49:05.9Z</time></trkpt><trkpt lat="43.3519211" lon="11.9694175"><ele>280.0</ele><time>2026-04-18T07:49:06.899Z</time></trkpt><trkpt lat="43.3518324" lon="11.9691644"><ele>279.5</ele><time>2026-04-18T07:49:07.9Z</time></trkpt><trkpt lat="43.3517369" lon="11.9688879"><ele>279.0</ele><time>2026-04-18T07:49:08.899Z</time></trkpt><trkpt lat="43.3516346" lon="11.9686022"><ele>279.5</ele><time>2026-04-18T07:49:09.9Z</time></trkpt><trkpt lat="43.3515288" lon="11.9682967"><ele>280.0</ele><time>2026-04-18T07:49:10.9Z</time></trkpt><trkpt lat="43.3514249" lon="11.9679978"><ele>279.3333333333333</ele><time>2026-04-18T07:49:11.9Z</time></trkpt><trkpt lat="43.3513304" lon="11.967726"><ele>278.6666666666667</ele><time>2026-04-18T07:49:12.9Z</time></trkpt><trkpt lat="43.3512446" lon="11.9674715"><ele>278.0</ele><time>2026-04-18T07:49:13.901Z</time></trkpt><trkpt lat="43.3511821" lon="11.9672214"><ele>278.0</ele><time>2026-04-18T07:49:14.9Z</time></trkpt><trkpt lat="43.3511493" lon="11.9669745"><ele>278.0</ele><time>2026-04-18T07:49:15.9Z</time></trkpt><trkpt lat="43.3511442" lon="11.9667103"><ele>278.0</ele><time>2026-04-18T07:49:16.9Z</time></trkpt><trkpt lat="43.3511529" lon="11.9664565"><ele>278.0</ele><time>2026-04-18T07:49:17.9Z</time></trkpt><trkpt lat="43.351166" lon="11.9662212"><ele>278.0</ele><time>2026-04-18T07:49:18.9Z</time></trkpt><trkpt lat="43.3511914" lon="11.9659846"><ele>278.0</ele><time>2026-04-18T07:49:19.899Z</time></trkpt><trkpt lat="43.3512417" lon="11.9657432"><ele>278.33333333333337</ele><time>2026-04-18T07:49:20.899Z</time></trkpt><trkpt lat="43.3513177" lon="11.9654933"><ele>278.6666666666667</ele><time>2026-04-18T07:49:21.9Z</time></trkpt><trkpt lat="43.3513938" lon="11.9652576"><ele>279.0</ele><time>2026-04-18T07:49:22.901Z</time></trkpt><trkpt lat="43.3514424" lon="11.9650262"><ele>280.3333333333333</ele><time>2026-04-18T07:49:23.9Z</time></trkpt><trkpt lat="43.3514634" lon="11.9647895"><ele>281.66666666666663</ele><time>2026-04-18T07:49:24.9Z</time></trkpt><trkpt lat="43.3514627" lon="11.9645345"><ele>283.0</ele><time>2026-04-18T07:49:25.9Z</time></trkpt><trkpt lat="43.351447" lon="11.9642565"><ele>282.66666666666663</ele><time>2026-04-18T07:49:26.9Z</time></trkpt><trkpt lat="43.3514295" lon="11.963964"><ele>282.3333333333333</ele><time>2026-04-18T07:49:27.9Z</time></trkpt><trkpt lat="43.3513968" lon="11.9636884"><ele>282.0</ele><time>2026-04-18T07:49:28.9Z</time></trkpt><trkpt lat="43.3513425" lon="11.9634207"><ele>281.6666666666667</ele><time>2026-04-18T07:49:29.901Z</time></trkpt><trkpt lat="43.3512688" lon="11.9631482"><ele>281.33333333333337</ele><time>2026-04-18T07:49:30.9Z</time></trkpt><trkpt lat="43.3511882" lon="11.9628716"><ele>281.0</ele><time>2026-04-18T07:49:31.9Z</time></trkpt><trkpt lat="43.3511175" lon="11.9625985"><ele>281.0</ele><time>2026-04-18T07:49:32.9Z</time></trkpt><trkpt lat="43.3510582" lon="11.962339"><ele>281.0</ele><time>2026-04-18T07:49:33.9Z</time></trkpt><trkpt lat="43.3510029" lon="11.9620994"><ele>281.0</ele><time>2026-04-18T07:49:34.9Z</time></trkpt><trkpt lat="43.3509498" lon="11.9618736"><ele>281.5</ele><time>2026-04-18T07:49:35.9Z</time></trkpt><trkpt lat="43.3509024" lon="11.9616783"><ele>282.0</ele><time>2026-04-18T07:49:36.901Z</time></trkpt><trkpt lat="43.350864" lon="11.9615127"><ele>282.5</ele><time>2026-04-18T07:49:37.9Z</time></trkpt><trkpt lat="43.3508306" lon="11.9613707"><ele>283.0</ele><time>2026-04-18T07:49:38.899Z</time></trkpt><trkpt lat="43.3508004" lon="11.9612458"><ele>283.0</ele><time>2026-04-18T07:49:39.9Z</time></trkpt><trkpt lat="43.3507701" lon="11.9611275"><ele>283.0</ele><time>2026-04-18T07:49:40.9Z</time></trkpt><trkpt lat="43.3507369" lon="11.9610191"><ele>283.0</ele><time>2026-04-18T07:49:41.901Z</time></trkpt><trkpt lat="43.3506875" lon="11.9609107"><ele>283.0</ele><time>2026-04-18T07:49:42.899Z</time></trkpt><trkpt lat="43.3506106" lon="11.9607902"><ele>283.0</ele><time>2026-04-18T07:49:43.9Z</time></trkpt><trkpt lat="43.3505053" lon="11.9606483"><ele>282.3333333333333</ele><time>2026-04-18T07:49:44.9Z</time></trkpt><trkpt lat="43.3503823" lon="11.960481"><ele>281.6666666666667</ele><time>2026-04-18T07:49:45.9Z</time></trkpt><trkpt lat="43.3502454" lon="11.9603036"><ele>281.0</ele><time>2026-04-18T07:49:46.9Z</time></trkpt><trkpt lat="43.3500918" lon="11.9601094"><ele>281.0</ele><time>2026-04-18T07:49:47.9Z</time></trkpt><trkpt lat="43.3499294" lon="11.9598938"><ele>281.0</ele><time>2026-04-18T07:49:48.899Z</time></trkpt><trkpt lat="43.3497663" lon="11.9596627"><ele>280.0</ele><time>2026-04-18T07:49:49.901Z</time></trkpt><trkpt lat="43.3496083" lon="11.9594021"><ele>279.0</ele><time>2026-04-18T07:49:50.9Z</time></trkpt><trkpt lat="43.349464" lon="11.959113"><ele>276.0</ele><time>2026-04-18T07:49:51.9Z</time></trkpt><trkpt lat="43.3493371" lon="11.9588023"><ele>273.0</ele><time>2026-04-18T07:49:52.9Z</time></trkpt><trkpt lat="43.3492131" lon="11.958476"><ele>273.0</ele><time>2026-04-18T07:49:53.9Z</time></trkpt><trkpt lat="43.3490885" lon="11.9581333"><ele>273.0</ele><time>2026-04-18T07:49:54.899Z</time></trkpt><trkpt lat="43.3489594" lon="11.9577868"><ele>272.0</ele><time>2026-04-18T07:49:55.9Z</time></trkpt><trkpt lat="43.3488229" lon="11.9574356"><ele>271.0</ele><time>2026-04-18T07:49:56.901Z</time></trkpt><trkpt lat="43.3486732" lon="11.9570892"><ele>271.0</ele><time>2026-04-18T07:49:57.901Z</time></trkpt><trkpt lat="43.3485138" lon="11.9567407"><ele>271.0</ele><time>2026-04-18T07:49:58.9Z</time></trkpt><trkpt lat="43.3483434" lon="11.9563962"><ele>270.5</ele><time>2026-04-18T07:49:59.9Z</time></trkpt><trkpt lat="43.34817" lon="11.9560492"><ele>270.0</ele><time>2026-04-18T07:50:00.9Z</time></trkpt><trkpt lat="43.3479974" lon="11.955702"><ele>270.0</ele><time>2026-04-18T07:50:01.9Z</time></trkpt><trkpt lat="43.3478313" lon="11.9553812"><ele>270.0</ele><time>2026-04-18T07:50:02.901Z</time></trkpt><trkpt lat="43.3476692" lon="11.9550732"><ele>270.5</ele><time>2026-04-18T07:50:03.9Z</time></trkpt><trkpt lat="43.3475182" lon="11.9547822"><ele>271.0</ele><time>2026-04-18T07:50:04.9Z</time></trkpt><trkpt lat="43.3473751" lon="11.9544814"><ele>271.5</ele><time>2026-04-18T07:50:05.899Z</time></trkpt><trkpt lat="43.3472403" lon="11.9541679"><ele>272.0</ele><time>2026-04-18T07:50:06.9Z</time></trkpt><trkpt lat="43.3471186" lon="11.9538429"><ele>269.5</ele><time>2026-04-18T07:50:07.901Z</time></trkpt><trkpt lat="43.3470136" lon="11.9535079"><ele>267.0</ele><time>2026-04-18T07:50:08.899Z</time></trkpt><trkpt lat="43.346919" lon="11.9531721"><ele>266.5</ele><time>2026-04-18T07:50:09.901Z</time></trkpt><trkpt lat="43.3468394" lon="11.9528371"><ele>266.0</ele><time>2026-04-18T07:50:10.899Z</time></trkpt><trkpt lat="43.3467865" lon="11.9524943"><ele>267.0</ele><time>2026-04-18T07:50:11.9Z</time></trkpt><trkpt lat="43.3467429" lon="11.9521621"><ele>268.0</ele><time>2026-04-18T07:50:12.9Z</time></trkpt><trkpt lat="43.3467174" lon="11.9518461"><ele>269.0</ele><time>2026-04-18T07:50:13.901Z</time></trkpt><trkpt lat="43.346701" lon="11.9515549"><ele>270.0</ele><time>2026-04-18T07:50:14.9Z</time></trkpt><trkpt lat="43.3467045" lon="11.9512859"><ele>271.0</ele><time>2026-04-18T07:50:15.9Z</time></trkpt><trkpt lat="43.3467184" lon="11.951038"><ele>271.0</ele><time>2026-04-18T07:50:16.9Z</time></trkpt><trkpt lat="43.3467401" lon="11.9507814"><ele>271.0</ele><time>2026-04-18T07:50:17.9Z</time></trkpt><trkpt lat="43.3467674" lon="11.9504967"><ele>271.0</ele><time>2026-04-18T07:50:18.899Z</time></trkpt><trkpt lat="43.3467946" lon="11.9501928"><ele>271.0</ele><time>2026-04-18T07:50:19.899Z</time></trkpt><trkpt lat="43.3468202" lon="11.9498768"><ele>271.0</ele><time>2026-04-18T07:50:20.899Z</time></trkpt><trkpt lat="43.3468445" lon="11.9495496"><ele>271.0</ele><time>2026-04-18T07:50:21.9Z</time></trkpt><trkpt lat="43.3468627" lon="11.9492164"><ele>271.0</ele><time>2026-04-18T07:50:22.901Z</time></trkpt><trkpt lat="43.346864" lon="11.9488805"><ele>270.0</ele><time>2026-04-18T07:50:23.9Z</time></trkpt><trkpt lat="43.3468411" lon="11.9485438"><ele>269.0</ele><time>2026-04-18T07:50:24.9Z</time></trkpt><trkpt lat="43.3468065" lon="11.9481986"><ele>269.0</ele><time>2026-04-18T07:50:25.9Z</time></trkpt><trkpt lat="43.3467649" lon="11.9478538"><ele>269.0</ele><time>2026-04-18T07:50:26.899Z</time></trkpt><trkpt lat="43.3467233" lon="11.9475075"><ele>270.0</ele><time>2026-04-18T07:50:27.9Z</time></trkpt><trkpt lat="43.3466823" lon="11.947161"><ele>271.0</ele><time>2026-04-18T07:50:28.9Z</time></trkpt><trkpt lat="43.3466435" lon="11.9468285"><ele>271.0</ele><time>2026-04-18T07:50:29.9Z</time></trkpt><trkpt lat="43.3465986" lon="11.9465214"><ele>271.0</ele><time>2026-04-18T07:50:30.9Z</time></trkpt><trkpt lat="43.3465351" lon="11.9462179"><ele>271.0</ele><time>2026-04-18T07:50:31.9Z</time></trkpt><trkpt lat="43.3464413" lon="11.945918"><ele>271.0</ele><time>2026-04-18T07:50:32.9Z</time></trkpt><trkpt lat="43.346326" lon="11.9456283"><ele>270.66666666666663</ele><time>2026-04-18T07:50:33.899Z</time></trkpt><trkpt lat="43.3462089" lon="11.9453529"><ele>270.3333333333333</ele><time>2026-04-18T07:50:34.901Z</time></trkpt><trkpt lat="43.3461053" lon="11.945106"><ele>270.0</ele><time>2026-04-18T07:50:35.9Z</time></trkpt><trkpt lat="43.3460092" lon="11.9448832"><ele>271.0</ele><time>2026-04-18T07:50:36.9Z</time></trkpt><trkpt lat="43.3459151" lon="11.9446731"><ele>272.0</ele><time>2026-04-18T07:50:37.9Z</time></trkpt><trkpt lat="43.3458357" lon="11.9444659"><ele>273.0</ele><time>2026-04-18T07:50:38.899Z</time></trkpt><trkpt lat="43.345775" lon="11.944245"><ele>273.3333333333333</ele><time>2026-04-18T07:50:39.9Z</time></trkpt><trkpt lat="43.3457393" lon="11.9440092"><ele>273.66666666666663</ele><time>2026-04-18T07:50:40.901Z</time></trkpt><trkpt lat="43.3457221" lon="11.9437648"><ele>274.0</ele><time>2026-04-18T07:50:41.9Z</time></trkpt><trkpt lat="43.3457235" lon="11.9435115"><ele>274.3333333333333</ele><time>2026-04-18T07:50:42.9Z</time></trkpt><trkpt lat="43.3457328" lon="11.9432547"><ele>274.6666666666667</ele><time>2026-04-18T07:50:43.9Z</time></trkpt><trkpt lat="43.3457395" lon="11.9430111"><ele>275.0</ele><time>2026-04-18T07:50:44.9Z</time></trkpt><trkpt lat="43.3457444" lon="11.9427927"><ele>275.0</ele><time>2026-04-18T07:50:45.9Z</time></trkpt><trkpt lat="43.3457414" lon="11.9426015"><ele>275.0</ele><time>2026-04-18T07:50:46.899Z</time></trkpt><trkpt lat="43.3457317" lon="11.9424041"><ele>275.0</ele><time>2026-04-18T07:50:47.9Z</time></trkpt><trkpt lat="43.3457028" lon="11.9422072"><ele>275.0</ele><time>2026-04-18T07:50:48.9Z</time></trkpt><trkpt lat="43.3456617" lon="11.9420206"><ele>275.25</ele><time>2026-04-18T07:50:49.899Z</time></trkpt><trkpt lat="43.3456105" lon="11.9418577"><ele>275.5</ele><time>2026-04-18T07:50:50.9Z</time></trkpt><trkpt lat="43.3455569" lon="11.9416972"><ele>275.75</ele><time>2026-04-18T07:50:51.9Z</time></trkpt><trkpt lat="43.3454989" lon="11.9415319"><ele>276.0</ele><time>2026-04-18T07:50:52.9Z</time></trkpt><trkpt lat="43.3454343" lon="11.9413576"><ele>275.0</ele><time>2026-04-18T07:50:53.899Z</time></trkpt><trkpt lat="43.3453646" lon="11.9411688"><ele>274.0</ele><time>2026-04-18T07:50:54.901Z</time></trkpt><trkpt lat="43.3452934" lon="11.9409666"><ele>273.0</ele><time>2026-04-18T07:50:55.9Z</time></trkpt><trkpt lat="43.3452263" lon="11.9407517"><ele>273.0</ele><time>2026-04-18T07:50:56.9Z</time></trkpt><trkpt lat="43.3451616" lon="11.9405287"><ele>273.0</ele><time>2026-04-18T07:50:57.9Z</time></trkpt><trkpt lat="43.3450931" lon="11.9403021"><ele>273.0</ele><time>2026-04-18T07:50:58.9Z</time></trkpt><trkpt lat="43.345024" lon="11.940064"><ele>273.0</ele><time>2026-04-18T07:50:59.901Z</time></trkpt><trkpt lat="43.3449609" lon="11.9398245"><ele>273.0</ele><time>2026-04-18T07:51:00.901Z</time></trkpt><trkpt lat="43.3449023" lon="11.9395781"><ele>273.0</ele><time>2026-04-18T07:51:01.9Z</time></trkpt><trkpt lat="43.3448452" lon="11.9393443"><ele>273.3333333333333</ele><time>2026-04-18T07:51:02.9Z</time></trkpt><trkpt lat="43.3447831" lon="11.9391174"><ele>273.66666666666663</ele><time>2026-04-18T07:51:03.9Z</time></trkpt><trkpt lat="43.3447009" lon="11.9388895"><ele>274.0</ele><time>2026-04-18T07:51:04.9Z</time></trkpt><trkpt lat="43.3446004" lon="11.9386521"><ele>273.3333333333333</ele><time>2026-04-18T07:51:05.899Z</time></trkpt><trkpt lat="43.3444964" lon="11.9384034"><ele>272.6666666666667</ele><time>2026-04-18T07:51:06.9Z</time></trkpt><trkpt lat="43.344405" lon="11.9381632"><ele>272.0</ele><time>2026-04-18T07:51:07.9Z</time></trkpt><trkpt lat="43.3443267" lon="11.9379357"><ele>272.0</ele><time>2026-04-18T07:51:08.899Z</time></trkpt><trkpt lat="43.3442579" lon="11.9377111"><ele>272.0</ele><time>2026-04-18T07:51:09.9Z</time></trkpt><trkpt lat="43.3441919" lon="11.9374879"><ele>272.0</ele><time>2026-04-18T07:51:10.9Z</time></trkpt><trkpt lat="43.3441241" lon="11.9372588"><ele>272.0</ele><time>2026-04-18T07:51:11.899Z</time></trkpt><trkpt lat="43.3440631" lon="11.9370245"><ele>272.0</ele><time>2026-04-18T07:51:12.9Z</time></trkpt><trkpt lat="43.3440001" lon="11.9367909"><ele>272.0</ele><time>2026-04-18T07:51:13.9Z</time></trkpt><trkpt lat="43.3439358" lon="11.9365687"><ele>272.0</ele><time>2026-04-18T07:51:14.9Z</time></trkpt><trkpt lat="43.3438801" lon="11.9363628"><ele>272.0</ele><time>2026-04-18T07:51:15.899Z</time></trkpt><trkpt lat="43.3438262" lon="11.9361742"><ele>272.0</ele><time>2026-04-18T07:51:16.9Z</time></trkpt><trkpt lat="43.343779" lon="11.9360085"><ele>272.0</ele><time>2026-04-18T07:51:17.9Z</time></trkpt><trkpt lat="43.343736" lon="11.9358662"><ele>271.6666666666667</ele><time>2026-04-18T07:51:18.899Z</time></trkpt><trkpt lat="43.3437053" lon="11.9357409"><ele>271.33333333333337</ele><time>2026-04-18T07:51:19.9Z</time></trkpt><trkpt lat="43.3436856" lon="11.9356539"><ele>271.0</ele><time>2026-04-18T07:51:20.9Z</time></trkpt><trkpt lat="43.343616" lon="11.9355707"><ele>270.6666666666667</ele><time>2026-04-18T07:51:22.9Z</time></trkpt><trkpt lat="43.3435512" lon="11.9355768"><ele>270.3333333333333</ele><time>2026-04-18T07:51:23.9Z</time></trkpt><trkpt lat="43.3434717" lon="11.9356095"><ele>270.0</ele><time>2026-04-18T07:51:24.899Z</time></trkpt><trkpt lat="43.3433727" lon="11.9356591"><ele>270.0</ele><time>2026-04-18T07:51:25.9Z</time></trkpt><trkpt lat="43.3432656" lon="11.935708"><ele>270.0</ele><time>2026-04-18T07:51:26.9Z</time></trkpt><trkpt lat="43.3431716" lon="11.9357443"><ele>270.0</ele><time>2026-04-18T07:51:27.9Z</time></trkpt><trkpt lat="43.3430781" lon="11.9357721"><ele>270.0</ele><time>2026-04-18T07:51:28.9Z</time></trkpt><trkpt lat="43.3429892" lon="11.9357734"><ele>270.0</ele><time>2026-04-18T07:51:29.901Z</time></trkpt><trkpt lat="43.3429092" lon="11.9357243"><ele>269.0</ele><time>2026-04-18T07:51:30.9Z</time></trkpt><trkpt lat="43.3428446" lon="11.9356281"><ele>268.0</ele><time>2026-04-18T07:51:31.899Z</time></trkpt><trkpt lat="43.342782" lon="11.9354798"><ele>267.0</ele><time>2026-04-18T07:51:32.9Z</time></trkpt><trkpt lat="43.3427263" lon="11.9352974"><ele>266.0</ele><time>2026-04-18T07:51:33.9Z</time></trkpt><trkpt lat="43.3426445" lon="11.9351042"><ele>265.33333333333337</ele><time>2026-04-18T07:51:34.899Z</time></trkpt><trkpt lat="43.3425413" lon="11.9349126"><ele>264.6666666666667</ele><time>2026-04-18T07:51:35.899Z</time></trkpt><trkpt lat="43.3424283" lon="11.9347463"><ele>264.0</ele><time>2026-04-18T07:51:36.899Z</time></trkpt><trkpt lat="43.3422868" lon="11.9345703"><ele>263.3333333333333</ele><time>2026-04-18T07:51:37.9Z</time></trkpt><trkpt lat="43.3421392" lon="11.9343846"><ele>262.66666666666663</ele><time>2026-04-18T07:51:38.901Z</time></trkpt><trkpt lat="43.3419928" lon="11.9341757"><ele>262.0</ele><time>2026-04-18T07:51:39.899Z</time></trkpt><trkpt lat="43.3418491" lon="11.9339434"><ele>262.0</ele><time>2026-04-18T07:51:40.9Z</time></trkpt><trkpt lat="43.3417081" lon="11.9336957"><ele>262.0</ele><time>2026-04-18T07:51:41.899Z</time></trkpt><trkpt lat="43.3415625" lon="11.9334411"><ele>262.0</ele><time>2026-04-18T07:51:42.899Z</time></trkpt><trkpt lat="43.3414278" lon="11.9331959"><ele>262.0</ele><time>2026-04-18T07:51:43.899Z</time></trkpt><trkpt lat="43.3413082" lon="11.9329658"><ele>262.0</ele><time>2026-04-18T07:51:44.899Z</time></trkpt><trkpt lat="43.3412122" lon="11.9327409"><ele>262.0</ele><time>2026-04-18T07:51:45.899Z</time></trkpt><trkpt lat="43.3411409" lon="11.9324968"><ele>262.0</ele><time>2026-04-18T07:51:46.9Z</time></trkpt><trkpt lat="43.3410901" lon="11.9322359"><ele>262.0</ele><time>2026-04-18T07:51:47.899Z</time></trkpt><trkpt lat="43.3410414" lon="11.9319667"><ele>262.66666666666663</ele><time>2026-04-18T07:51:48.899Z</time></trkpt><trkpt lat="43.3409825" lon="11.9316916"><ele>263.3333333333333</ele><time>2026-04-18T07:51:49.899Z</time></trkpt><trkpt lat="43.3409215" lon="11.9314403"><ele>264.0</ele><time>2026-04-18T07:51:50.899Z</time></trkpt><trkpt lat="43.3408712" lon="11.931231"><ele>264.0</ele><time>2026-04-18T07:51:51.899Z</time></trkpt><trkpt lat="43.3408216" lon="11.9310504"><ele>264.0</ele><time>2026-04-18T07:51:52.9Z</time></trkpt><trkpt lat="43.3407752" lon="11.9308832"><ele>264.0</ele><time>2026-04-18T07:51:53.9Z</time></trkpt><trkpt lat="43.3407165" lon="11.9307232"><ele>264.0</ele><time>2026-04-18T07:51:54.9Z</time></trkpt><trkpt lat="43.3406397" lon="11.9305747"><ele>264.0</ele><time>2026-04-18T07:51:55.899Z</time></trkpt><trkpt lat="43.3405486" lon="11.9304457"><ele>264.0</ele><time>2026-04-18T07:51:56.899Z</time></trkpt><trkpt lat="43.3404506" lon="11.9303283"><ele>264.0</ele><time>2026-04-18T07:51:57.899Z</time></trkpt><trkpt lat="43.3403364" lon="11.9302268"><ele>264.0</ele><time>2026-04-18T07:51:58.9Z</time></trkpt><trkpt lat="43.340223" lon="11.9301387"><ele>264.0</ele><time>2026-04-18T07:51:59.9Z</time></trkpt><trkpt lat="43.3401193" lon="11.9300667"><ele>264.0</ele><time>2026-04-18T07:52:00.9Z</time></trkpt><trkpt lat="43.3400257" lon="11.9300037"><ele>264.0</ele><time>2026-04-18T07:52:01.9Z</time></trkpt><trkpt lat="43.3399341" lon="11.9299461"><ele>264.0</ele><time>2026-04-18T07:52:02.9Z</time></trkpt><trkpt lat="43.3398421" lon="11.9298975"><ele>264.0</ele><time>2026-04-18T07:52:03.9Z</time></trkpt><trkpt lat="43.3397404" lon="11.9298462"><ele>263.0</ele><time>2026-04-18T07:52:04.899Z</time></trkpt><trkpt lat="43.3396325" lon="11.9297913"><ele>262.0</ele><time>2026-04-18T07:52:05.899Z</time></trkpt><trkpt lat="43.3395188" lon="11.9297335"><ele>261.0</ele><time>2026-04-18T07:52:06.9Z</time></trkpt><trkpt lat="43.3393851" lon="11.9296483"><ele>260.0</ele><time>2026-04-18T07:52:07.899Z</time></trkpt><trkpt lat="43.3392314" lon="11.9295329"><ele>260.0</ele><time>2026-04-18T07:52:08.899Z</time></trkpt><trkpt lat="43.3390674" lon="11.929389"><ele>260.0</ele><time>2026-04-18T07:52:09.9Z</time></trkpt><trkpt lat="43.3388827" lon="11.9292377"><ele>260.0</ele><time>2026-04-18T07:52:10.899Z</time></trkpt><trkpt lat="43.3386945" lon="11.9290908"><ele>259.33333333333337</ele><time>2026-04-18T07:52:11.899Z</time></trkpt><trkpt lat="43.338515" lon="11.9289616"><ele>258.6666666666667</ele><time>2026-04-18T07:52:12.899Z</time></trkpt><trkpt lat="43.3383342" lon="11.9288581"><ele>258.0</ele><time>2026-04-18T07:52:13.898Z</time></trkpt><trkpt lat="43.3381424" lon="11.9287827"><ele>258.3333333333333</ele><time>2026-04-18T07:52:14.898Z</time></trkpt><trkpt lat="43.3379375" lon="11.9287341"><ele>258.66666666666663</ele><time>2026-04-18T07:52:15.899Z</time></trkpt><trkpt lat="43.337735" lon="11.9287091"><ele>259.0</ele><time>2026-04-18T07:52:16.898Z</time></trkpt><trkpt lat="43.3375475" lon="11.9286924"><ele>259.0</ele><time>2026-04-18T07:52:17.899Z</time></trkpt><trkpt lat="43.3373645" lon="11.9286804"><ele>259.0</ele><time>2026-04-18T07:52:18.898Z</time></trkpt><trkpt lat="43.3371934" lon="11.928668"><ele>259.0</ele><time>2026-04-18T07:52:19.899Z</time></trkpt><trkpt lat="43.3370287" lon="11.9286552"><ele>258.3333333333333</ele><time>2026-04-18T07:52:20.899Z</time></trkpt><trkpt lat="43.3368646" lon="11.9286343"><ele>257.6666666666667</ele><time>2026-04-18T07:52:21.899Z</time></trkpt><trkpt lat="43.3366829" lon="11.9285735"><ele>257.0</ele><time>2026-04-18T07:52:22.899Z</time></trkpt><trkpt lat="43.3365208" lon="11.9284959"><ele>257.0</ele><time>2026-04-18T07:52:23.899Z</time></trkpt><trkpt lat="43.3363747" lon="11.9283906"><ele>257.0</ele><time>2026-04-18T07:52:24.899Z</time></trkpt><trkpt lat="43.3362334" lon="11.9282556"><ele>257.0</ele><time>2026-04-18T07:52:25.899Z</time></trkpt><trkpt lat="43.3360971" lon="11.9281037"><ele>257.0</ele><time>2026-04-18T07:52:26.899Z</time></trkpt><trkpt lat="43.3359701" lon="11.9279314"><ele>257.0</ele><time>2026-04-18T07:52:27.898Z</time></trkpt><trkpt lat="43.3358423" lon="11.927732"><ele>257.0</ele><time>2026-04-18T07:52:28.899Z</time></trkpt><trkpt lat="43.3357258" lon="11.9275023"><ele>257.0</ele><time>2026-04-18T07:52:29.899Z</time></trkpt><trkpt lat="43.3356129" lon="11.9272571"><ele>257.0</ele><time>2026-04-18T07:52:30.899Z</time></trkpt><trkpt lat="43.3355221" lon="11.9270222"><ele>257.0</ele><time>2026-04-18T07:52:31.899Z</time></trkpt><trkpt lat="43.3354535" lon="11.9267872"><ele>257.0</ele><time>2026-04-18T07:52:32.899Z</time></trkpt><trkpt lat="43.3354011" lon="11.9265406"><ele>257.0</ele><time>2026-04-18T07:52:33.899Z</time></trkpt><trkpt lat="43.3353672" lon="11.9262747"><ele>257.0</ele><time>2026-04-18T07:52:34.898Z</time></trkpt><trkpt lat="43.3353393" lon="11.9259928"><ele>256.6666666666667</ele><time>2026-04-18T07:52:35.898Z</time></trkpt><trkpt lat="43.335309" lon="11.9256947"><ele>256.3333333333333</ele><time>2026-04-18T07:52:36.898Z</time></trkpt><trkpt lat="43.3352743" lon="11.9254144"><ele>256.0</ele><time>2026-04-18T07:52:37.898Z</time></trkpt><trkpt lat="43.3352285" lon="11.9251515"><ele>256.0</ele><time>2026-04-18T07:52:38.899Z</time></trkpt><trkpt lat="43.3351786" lon="11.9249034"><ele>256.0</ele><time>2026-04-18T07:52:39.899Z</time></trkpt><trkpt lat="43.3351199" lon="11.9246928"><ele>256.0</ele><time>2026-04-18T07:52:40.899Z</time></trkpt><trkpt lat="43.3350661" lon="11.9245255"><ele>255.99999999999997</ele><time>2026-04-18T07:52:41.898Z</time></trkpt><trkpt lat="43.3350107" lon="11.9243921"><ele>256.0</ele><time>2026-04-18T07:52:42.9Z</time></trkpt><trkpt lat="43.3349625" lon="11.9242827"><ele>256.0</ele><time>2026-04-18T07:52:43.898Z</time></trkpt><trkpt lat="43.3349227" lon="11.9241974"><ele>256.0</ele><time>2026-04-18T07:52:44.899Z</time></trkpt><trkpt lat="43.3348774" lon="11.924102"><ele>255.99999999999997</ele><time>2026-04-18T07:52:46.899Z</time></trkpt><trkpt lat="43.3348399" lon="11.9240159"><ele>256.0</ele><time>2026-04-18T07:53:20.899Z</time></trkpt><trkpt lat="43.3347643" lon="11.9239023"><ele>256.0</ele><time>2026-04-18T07:53:22.899Z</time></trkpt><trkpt lat="43.3347374" lon="11.923807"><ele>255.99999999999997</ele><time>2026-04-18T07:53:23.899Z</time></trkpt><trkpt lat="43.3347389" lon="11.9237147"><ele>256.0</ele><time>2026-04-18T07:53:24.899Z</time></trkpt><trkpt lat="43.3347617" lon="11.9236317"><ele>256.0</ele><time>2026-04-18T07:53:25.898Z</time></trkpt><trkpt lat="43.3347995" lon="11.9235514"><ele>255.99999999999997</ele><time>2026-04-18T07:53:26.898Z</time></trkpt><trkpt lat="43.334832" lon="11.9234709"><ele>256.0</ele><time>2026-04-18T07:53:27.9Z</time></trkpt><trkpt lat="43.3348328" lon="11.9233774"><ele>256.0</ele><time>2026-04-18T07:53:28.899Z</time></trkpt><trkpt lat="43.3347428" lon="11.9232498"><ele>256.25</ele><time>2026-04-18T07:53:30.899Z</time></trkpt><trkpt lat="43.3346518" lon="11.9232181"><ele>256.5</ele><time>2026-04-18T07:53:31.899Z</time></trkpt><trkpt lat="43.3345374" lon="11.9231872"><ele>256.75</ele><time>2026-04-18T07:53:32.899Z</time></trkpt><trkpt lat="43.3344021" lon="11.9231556"><ele>257.0</ele><time>2026-04-18T07:53:33.899Z</time></trkpt><trkpt lat="43.3342515" lon="11.9231065"><ele>257.0</ele><time>2026-04-18T07:53:34.899Z</time></trkpt><trkpt lat="43.3340827" lon="11.923064"><ele>257.0</ele><time>2026-04-18T07:53:35.899Z</time></trkpt><trkpt lat="43.3338937" lon="11.9230209"><ele>257.0</ele><time>2026-04-18T07:53:36.899Z</time></trkpt><trkpt lat="43.333691" lon="11.9229716"><ele>256.6666666666667</ele><time>2026-04-18T07:53:37.9Z</time></trkpt><trkpt lat="43.3334768" lon="11.9229194"><ele>256.3333333333333</ele><time>2026-04-18T07:53:38.899Z</time></trkpt><trkpt lat="43.33325" lon="11.9228641"><ele>256.0</ele><time>2026-04-18T07:53:39.9Z</time></trkpt><trkpt lat="43.3330147" lon="11.9228031"><ele>255.5</ele><time>2026-04-18T07:53:40.899Z</time></trkpt><trkpt lat="43.3327681" lon="11.922742"><ele>255.0</ele><time>2026-04-18T07:53:41.899Z</time></trkpt><trkpt lat="43.3325178" lon="11.9226783"><ele>255.0</ele><time>2026-04-18T07:53:42.899Z</time></trkpt><trkpt lat="43.3322625" lon="11.9226117"><ele>255.0</ele><time>2026-04-18T07:53:43.898Z</time></trkpt><trkpt lat="43.3320017" lon="11.9225448"><ele>255.0</ele><time>2026-04-18T07:53:44.899Z</time></trkpt><trkpt lat="43.3317385" lon="11.9224821"><ele>255.0</ele><time>2026-04-18T07:53:45.899Z</time></trkpt><trkpt lat="43.3314692" lon="11.9224356"><ele>255.5</ele><time>2026-04-18T07:53:46.899Z</time></trkpt><trkpt lat="43.3312006" lon="11.922409"><ele>256.0</ele><time>2026-04-18T07:53:47.899Z</time></trkpt><trkpt lat="43.3309455" lon="11.9223907"><ele>256.0</ele><time>2026-04-18T07:53:48.899Z</time></trkpt><trkpt lat="43.3307001" lon="11.9223764"><ele>256.0</ele><time>2026-04-18T07:53:49.899Z</time></trkpt><trkpt lat="43.3304367" lon="11.9223607"><ele>255.5</ele><time>2026-04-18T07:53:50.899Z</time></trkpt><trkpt lat="43.3301679" lon="11.9223483"><ele>255.0</ele><time>2026-04-18T07:53:51.899Z</time></trkpt><trkpt lat="43.3298901" lon="11.9223297"><ele>255.5</ele><time>2026-04-18T07:53:52.899Z</time></trkpt><trkpt lat="43.3296004" lon="11.9223123"><ele>256.0</ele><time>2026-04-18T07:53:53.898Z</time></trkpt><trkpt lat="43.3293089" lon="11.9222949"><ele>256.0</ele><time>2026-04-18T07:53:54.9Z</time></trkpt><trkpt lat="43.3290166" lon="11.922275"><ele>256.0</ele><time>2026-04-18T07:53:55.899Z</time></trkpt><trkpt lat="43.3287393" lon="11.9222588"><ele>256.5</ele><time>2026-04-18T07:53:56.898Z</time></trkpt><trkpt lat="43.3284707" lon="11.9222402"><ele>257.0</ele><time>2026-04-18T07:53:57.898Z</time></trkpt><trkpt lat="43.3281945" lon="11.9222222"><ele>256.5</ele><time>2026-04-18T07:53:58.899Z</time></trkpt><trkpt lat="43.3279211" lon="11.9222023"><ele>256.0</ele><time>2026-04-18T07:53:59.899Z</time></trkpt><trkpt lat="43.3276458" lon="11.9221816"><ele>256.0</ele><time>2026-04-18T07:54:00.9Z</time></trkpt><trkpt lat="43.327369" lon="11.9221584"><ele>256.0</ele><time>2026-04-18T07:54:01.899Z</time></trkpt><trkpt lat="43.3270901" lon="11.9221399"><ele>256.0</ele><time>2026-04-18T07:54:02.899Z</time></trkpt><trkpt lat="43.3268068" lon="11.9221205"><ele>256.0</ele><time>2026-04-18T07:54:03.899Z</time></trkpt><trkpt lat="43.3265243" lon="11.9221025"><ele>256.0</ele><time>2026-04-18T07:54:04.898Z</time></trkpt><trkpt lat="43.3262533" lon="11.9220879"><ele>256.0</ele><time>2026-04-18T07:54:05.898Z</time></trkpt><trkpt lat="43.325996" lon="11.9220746"><ele>256.0</ele><time>2026-04-18T07:54:06.898Z</time></trkpt><trkpt lat="43.3257578" lon="11.9220634"><ele>256.0</ele><time>2026-04-18T07:54:07.898Z</time></trkpt><trkpt lat="43.3255187" lon="11.9220564"><ele>255.0</ele><time>2026-04-18T07:54:08.899Z</time></trkpt><trkpt lat="43.3252814" lon="11.9220429"><ele>254.0</ele><time>2026-04-18T07:54:09.899Z</time></trkpt><trkpt lat="43.3250377" lon="11.9220302"><ele>254.0</ele><time>2026-04-18T07:54:10.899Z</time></trkpt><trkpt lat="43.3247802" lon="11.9220244"><ele>254.0</ele><time>2026-04-18T07:54:11.899Z</time></trkpt><trkpt lat="43.3245205" lon="11.9220119"><ele>254.0</ele><time>2026-04-18T07:54:12.898Z</time></trkpt><trkpt lat="43.3242544" lon="11.9219995"><ele>254.0</ele><time>2026-04-18T07:54:13.899Z</time></trkpt><trkpt lat="43.3239812" lon="11.9219907"><ele>254.0</ele><time>2026-04-18T07:54:14.898Z</time></trkpt><trkpt lat="43.3237052" lon="11.9219835"><ele>254.0</ele><time>2026-04-18T07:54:15.898Z</time></trkpt><trkpt lat="43.3234246" lon="11.9219698"><ele>254.0</ele><time>2026-04-18T07:54:16.899Z</time></trkpt><trkpt lat="43.3231394" lon="11.9219603"><ele>254.0</ele><time>2026-04-18T07:54:17.899Z</time></trkpt><trkpt lat="43.3228569" lon="11.9219509"><ele>254.5</ele><time>2026-04-18T07:54:18.899Z</time></trkpt><trkpt lat="43.3225661" lon="11.9219404"><ele>255.0</ele><time>2026-04-18T07:54:19.898Z</time></trkpt><trkpt lat="43.3222723" lon="11.9219288"><ele>255.5</ele><time>2026-04-18T07:54:20.899Z</time></trkpt><trkpt lat="43.3219796" lon="11.9219162"><ele>256.0</ele><time>2026-04-18T07:54:21.899Z</time></trkpt><trkpt lat="43.3216797" lon="11.9219029"><ele>256.0</ele><time>2026-04-18T07:54:22.899Z</time></trkpt><trkpt lat="43.3213804" lon="11.9218917"><ele>256.0</ele><time>2026-04-18T07:54:23.898Z</time></trkpt><trkpt lat="43.3210783" lon="11.9218798"><ele>256.0</ele><time>2026-04-18T07:54:24.899Z</time></trkpt><trkpt lat="43.3207912" lon="11.9218624"><ele>256.0</ele><time>2026-04-18T07:54:25.9Z</time></trkpt><trkpt lat="43.320519" lon="11.9218468"><ele>257.0</ele><time>2026-04-18T07:54:26.899Z</time></trkpt><trkpt lat="43.320259" lon="11.9218388"><ele>258.0</ele><time>2026-04-18T07:54:27.899Z</time></trkpt><trkpt lat="43.3200125" lon="11.9218303"><ele>258.0</ele><time>2026-04-18T07:54:28.9Z</time></trkpt><trkpt lat="43.3197768" lon="11.9218395"><ele>258.0</ele><time>2026-04-18T07:54:29.899Z</time></trkpt><trkpt lat="43.3195459" lon="11.921865"><ele>259.5</ele><time>2026-04-18T07:54:30.898Z</time></trkpt><trkpt lat="43.3193108" lon="11.9219245"><ele>261.0</ele><time>2026-04-18T07:54:31.899Z</time></trkpt><trkpt lat="43.3190777" lon="11.9220121"><ele>260.0</ele><time>2026-04-18T07:54:32.899Z</time></trkpt><trkpt lat="43.318843" lon="11.9221161"><ele>259.0</ele><time>2026-04-18T07:54:33.898Z</time></trkpt><trkpt lat="43.3186083" lon="11.922225"><ele>259.0</ele><time>2026-04-18T07:54:34.899Z</time></trkpt><trkpt lat="43.3183766" lon="11.9223408"><ele>259.0</ele><time>2026-04-18T07:54:35.898Z</time></trkpt><trkpt lat="43.3181406" lon="11.9224525"><ele>262.0</ele><time>2026-04-18T07:54:36.899Z</time></trkpt><trkpt lat="43.3179019" lon="11.9225714"><ele>265.0</ele><time>2026-04-18T07:54:37.899Z</time></trkpt><trkpt lat="43.3176618" lon="11.9226865"><ele>265.0</ele><time>2026-04-18T07:54:38.899Z</time></trkpt><trkpt lat="43.3174247" lon="11.9227985"><ele>265.0</ele><time>2026-04-18T07:54:39.898Z</time></trkpt><trkpt lat="43.3171878" lon="11.9229154"><ele>264.0</ele><time>2026-04-18T07:54:40.899Z</time></trkpt><trkpt lat="43.3169531" lon="11.9230308"><ele>263.0</ele><time>2026-04-18T07:54:41.899Z</time></trkpt><trkpt lat="43.3167185" lon="11.9231458"><ele>263.0</ele><time>2026-04-18T07:54:42.899Z</time></trkpt><trkpt lat="43.3164806" lon="11.923272"><ele>263.0</ele><time>2026-04-18T07:54:43.9Z</time></trkpt><trkpt lat="43.3162434" lon="11.9234035"><ele>264.0</ele><time>2026-04-18T07:54:44.899Z</time></trkpt><trkpt lat="43.3160135" lon="11.923534"><ele>265.0</ele><time>2026-04-18T07:54:45.899Z</time></trkpt><trkpt lat="43.3157933" lon="11.9236602"><ele>265.0</ele><time>2026-04-18T07:54:46.899Z</time></trkpt><trkpt lat="43.315586" lon="11.9237731"><ele>265.0</ele><time>2026-04-18T07:54:47.899Z</time></trkpt><trkpt lat="43.3153916" lon="11.9238699"><ele>265.0</ele><time>2026-04-18T07:54:48.899Z</time></trkpt><trkpt lat="43.3151955" lon="11.9239446"><ele>265.3333333333333</ele><time>2026-04-18T07:54:49.899Z</time></trkpt><trkpt lat="43.3149868" lon="11.9239959"><ele>265.6666666666667</ele><time>2026-04-18T07:54:50.9Z</time></trkpt><trkpt lat="43.3147673" lon="11.9240316"><ele>266.0</ele><time>2026-04-18T07:54:51.899Z</time></trkpt><trkpt lat="43.3145379" lon="11.9240638"><ele>265.0</ele><time>2026-04-18T07:54:52.899Z</time></trkpt><trkpt lat="43.314309" lon="11.9241062"><ele>264.0</ele><time>2026-04-18T07:54:53.9Z</time></trkpt><trkpt lat="43.3140724" lon="11.9241773"><ele>266.5</ele><time>2026-04-18T07:54:54.899Z</time></trkpt><trkpt lat="43.3138289" lon="11.9242791"><ele>269.0</ele><time>2026-04-18T07:54:55.899Z</time></trkpt><trkpt lat="43.3135819" lon="11.9243944"><ele>269.0</ele><time>2026-04-18T07:54:56.899Z</time></trkpt><trkpt lat="43.3133281" lon="11.9245139"><ele>269.0</ele><time>2026-04-18T07:54:57.898Z</time></trkpt><trkpt lat="43.3130635" lon="11.9246358"><ele>269.5</ele><time>2026-04-18T07:54:58.899Z</time></trkpt><trkpt lat="43.3128066" lon="11.9247553"><ele>270.0</ele><time>2026-04-18T07:54:59.899Z</time></trkpt><trkpt lat="43.3125419" lon="11.9248795"><ele>270.0</ele><time>2026-04-18T07:55:00.899Z</time></trkpt><trkpt lat="43.3122804" lon="11.9250058"><ele>270.0</ele><time>2026-04-18T07:55:01.899Z</time></trkpt><trkpt lat="43.312017" lon="11.9251403"><ele>270.5</ele><time>2026-04-18T07:55:02.899Z</time></trkpt><trkpt lat="43.3117537" lon="11.9252769"><ele>271.0</ele><time>2026-04-18T07:55:03.898Z</time></trkpt><trkpt lat="43.311485" lon="11.9254172"><ele>269.5</ele><time>2026-04-18T07:55:04.898Z</time></trkpt><trkpt lat="43.3112211" lon="11.9255629"><ele>268.0</ele><time>2026-04-18T07:55:05.899Z</time></trkpt><trkpt lat="43.3109688" lon="11.9257022"><ele>268.0</ele><time>2026-04-18T07:55:06.898Z</time></trkpt><trkpt lat="43.3107108" lon="11.9258453"><ele>268.0</ele><time>2026-04-18T07:55:07.898Z</time></trkpt><trkpt lat="43.310453" lon="11.9259863"><ele>270.5</ele><time>2026-04-18T07:55:08.898Z</time></trkpt><trkpt lat="43.3101967" lon="11.9261325"><ele>273.0</ele><time>2026-04-18T07:55:09.899Z</time></trkpt><trkpt lat="43.3099478" lon="11.9262839"><ele>268.5</ele><time>2026-04-18T07:55:10.899Z</time></trkpt><trkpt lat="43.3097159" lon="11.9264387"><ele>264.0</ele><time>2026-04-18T07:55:11.899Z</time></trkpt><trkpt lat="43.309488" lon="11.9266116"><ele>266.0</ele><time>2026-04-18T07:55:12.9Z</time></trkpt><trkpt lat="43.3092728" lon="11.9267932"><ele>268.0</ele><time>2026-04-18T07:55:13.898Z</time></trkpt><trkpt lat="43.309053" lon="11.9269835"><ele>265.0</ele><time>2026-04-18T07:55:14.899Z</time></trkpt><trkpt lat="43.3088376" lon="11.9271672"><ele>262.0</ele><time>2026-04-18T07:55:15.899Z</time></trkpt><trkpt lat="43.3086239" lon="11.9273476"><ele>262.0</ele><time>2026-04-18T07:55:16.898Z</time></trkpt><trkpt lat="43.3084139" lon="11.9275274"><ele>262.0</ele><time>2026-04-18T07:55:17.899Z</time></trkpt><trkpt lat="43.3082087" lon="11.9277003"><ele>263.0</ele><time>2026-04-18T07:55:18.899Z</time></trkpt><trkpt lat="43.3080074" lon="11.9278693"><ele>264.0</ele><time>2026-04-18T07:55:19.899Z</time></trkpt><trkpt lat="43.3078082" lon="11.928035"><ele>264.0</ele><time>2026-04-18T07:55:20.899Z</time></trkpt><trkpt lat="43.3076105" lon="11.9281969"><ele>264.0</ele><time>2026-04-18T07:55:21.899Z</time></trkpt><trkpt lat="43.307418" lon="11.928356"><ele>264.0</ele><time>2026-04-18T07:55:22.898Z</time></trkpt><trkpt lat="43.3072437" lon="11.9285039"><ele>264.0</ele><time>2026-04-18T07:55:23.899Z</time></trkpt><trkpt lat="43.3070847" lon="11.9286416"><ele>264.0</ele><time>2026-04-18T07:55:24.899Z</time></trkpt><trkpt lat="43.3069275" lon="11.9287773"><ele>264.0</ele><time>2026-04-18T07:55:25.899Z</time></trkpt><trkpt lat="43.3067722" lon="11.9289123"><ele>264.0</ele><time>2026-04-18T07:55:26.898Z</time></trkpt><trkpt lat="43.3066188" lon="11.9290452"><ele>264.0</ele><time>2026-04-18T07:55:27.899Z</time></trkpt><trkpt lat="43.3064718" lon="11.9291681"><ele>263.2</ele><time>2026-04-18T07:55:28.9Z</time></trkpt><trkpt lat="43.3063416" lon="11.9292757"><ele>262.4</ele><time>2026-04-18T07:55:29.899Z</time></trkpt><trkpt lat="43.3062396" lon="11.9293639"><ele>261.6</ele><time>2026-04-18T07:55:30.898Z</time></trkpt><trkpt lat="43.3061645" lon="11.9294254"><ele>260.8</ele><time>2026-04-18T07:55:31.899Z</time></trkpt><trkpt lat="43.3061087" lon="11.9294719"><ele>260.0</ele><time>2026-04-18T07:55:32.899Z</time></trkpt><trkpt lat="43.3060068" lon="11.929553"><ele>260.0</ele><time>2026-04-18T07:55:34.898Z</time></trkpt><trkpt lat="43.3059157" lon="11.9296323"><ele>260.0</ele><time>2026-04-18T07:55:36.9Z</time></trkpt><trkpt lat="43.3058266" lon="11.9297"><ele>260.0</ele><time>2026-04-18T07:55:38.899Z</time></trkpt><trkpt lat="43.3057172" lon="11.9297888"><ele>260.0</ele><time>2026-04-18T07:55:40.898Z</time></trkpt><trkpt lat="43.3056561" lon="11.9298574"><ele>260.0</ele><time>2026-04-18T07:55:41.898Z</time></trkpt><trkpt lat="43.3055824" lon="11.9299315"><ele>259.6</ele><time>2026-04-18T07:55:42.899Z</time></trkpt><trkpt lat="43.3054963" lon="11.9300035"><ele>259.2</ele><time>2026-04-18T07:55:43.899Z</time></trkpt><trkpt lat="43.3054111" lon="11.9300717"><ele>258.8</ele><time>2026-04-18T07:55:44.9Z</time></trkpt><trkpt lat="43.3053211" lon="11.9301488"><ele>258.4</ele><time>2026-04-18T07:55:45.9Z</time></trkpt><trkpt lat="43.3052256" lon="11.9302306"><ele>258.0</ele><time>2026-04-18T07:55:46.899Z</time></trkpt><trkpt lat="43.3051276" lon="11.9303194"><ele>258.6</ele><time>2026-04-18T07:55:47.899Z</time></trkpt><trkpt lat="43.3050259" lon="11.9304079"><ele>259.20000000000005</ele><time>2026-04-18T07:55:48.899Z</time></trkpt><trkpt lat="43.3049169" lon="11.9305012"><ele>259.8</ele><time>2026-04-18T07:55:49.898Z</time></trkpt><trkpt lat="43.3048171" lon="11.930586"><ele>260.40000000000003</ele><time>2026-04-18T07:55:50.899Z</time></trkpt><trkpt lat="43.3047522" lon="11.9306396"><ele>261.0</ele><time>2026-04-18T07:55:51.898Z</time></trkpt><trkpt lat="43.3046665" lon="11.9307076"><ele>261.0</ele><time>2026-04-18T07:55:53.899Z</time></trkpt><trkpt lat="43.304608" lon="11.9307507"><ele>261.0</ele><time>2026-04-18T07:55:55.9Z</time></trkpt><trkpt lat="43.3045033" lon="11.9308406"><ele>261.0</ele><time>2026-04-18T07:55:57.898Z</time></trkpt><trkpt lat="43.3044289" lon="11.9309225"><ele>261.0</ele><time>2026-04-18T07:55:58.899Z</time></trkpt><trkpt lat="43.3043225" lon="11.9310344"><ele>261.0</ele><time>2026-04-18T07:55:59.9Z</time></trkpt><trkpt lat="43.3041803" lon="11.9311541"><ele>261.3333333333333</ele><time>2026-04-18T07:56:00.899Z</time></trkpt><trkpt lat="43.3040192" lon="11.9312716"><ele>261.66666666666663</ele><time>2026-04-18T07:56:01.899Z</time></trkpt><trkpt lat="43.3038327" lon="11.9314128"><ele>262.0</ele><time>2026-04-18T07:56:02.899Z</time></trkpt><trkpt lat="43.3036344" lon="11.9315752"><ele>263.5</ele><time>2026-04-18T07:56:03.899Z</time></trkpt><trkpt lat="43.3034251" lon="11.9317521"><ele>265.0</ele><time>2026-04-18T07:56:04.899Z</time></trkpt><trkpt lat="43.3032095" lon="11.9319491"><ele>265.0</ele><time>2026-04-18T07:56:05.899Z</time></trkpt><trkpt lat="43.3029847" lon="11.9321659"><ele>265.0</ele><time>2026-04-18T07:56:06.899Z</time></trkpt><trkpt lat="43.3027612" lon="11.9324035"><ele>268.0</ele><time>2026-04-18T07:56:07.899Z</time></trkpt><trkpt lat="43.302535" lon="11.9326564"><ele>271.0</ele><time>2026-04-18T07:56:08.899Z</time></trkpt><trkpt lat="43.3023071" lon="11.9329179"><ele>269.5</ele><time>2026-04-18T07:56:09.899Z</time></trkpt><trkpt lat="43.3020714" lon="11.9331872"><ele>268.0</ele><time>2026-04-18T07:56:10.899Z</time></trkpt><trkpt lat="43.3018381" lon="11.9334505"><ele>268.0</ele><time>2026-04-18T07:56:11.899Z</time></trkpt><trkpt lat="43.3016225" lon="11.9336983"><ele>268.0</ele><time>2026-04-18T07:56:12.899Z</time></trkpt><trkpt lat="43.3014142" lon="11.9339368"><ele>267.5</ele><time>2026-04-18T07:56:13.898Z</time></trkpt><trkpt lat="43.3012185" lon="11.934162"><ele>267.0</ele><time>2026-04-18T07:56:14.898Z</time></trkpt><trkpt lat="43.301026" lon="11.9343907"><ele>267.0</ele><time>2026-04-18T07:56:15.899Z</time></trkpt><trkpt lat="43.3008424" lon="11.9346327"><ele>267.0</ele><time>2026-04-18T07:56:16.899Z</time></trkpt><trkpt lat="43.3006673" lon="11.9348785"><ele>266.5</ele><time>2026-04-18T07:56:17.899Z</time></trkpt><trkpt lat="43.3005076" lon="11.9351172"><ele>266.0</ele><time>2026-04-18T07:56:18.899Z</time></trkpt><trkpt lat="43.3003566" lon="11.9353502"><ele>266.0</ele><time>2026-04-18T07:56:19.899Z</time></trkpt><trkpt lat="43.3002062" lon="11.9355905"><ele>266.0</ele><time>2026-04-18T07:56:20.899Z</time></trkpt><trkpt lat="43.3000651" lon="11.9358269"><ele>268.0</ele><time>2026-04-18T07:56:21.898Z</time></trkpt><trkpt lat="43.2999261" lon="11.9360659"><ele>270.0</ele><time>2026-04-18T07:56:22.899Z</time></trkpt><trkpt lat="43.2997934" lon="11.9363119"><ele>272.0</ele><time>2026-04-18T07:56:23.9Z</time></trkpt><trkpt lat="43.2996636" lon="11.9365618"><ele>269.33333333333337</ele><time>2026-04-18T07:56:24.899Z</time></trkpt><trkpt lat="43.2995362" lon="11.9368158"><ele>266.6666666666667</ele><time>2026-04-18T07:56:25.899Z</time></trkpt><trkpt lat="43.299424" lon="11.9370445"><ele>264.0</ele><time>2026-04-18T07:56:26.899Z</time></trkpt><trkpt lat="43.2993183" lon="11.9372591"><ele>264.0</ele><time>2026-04-18T07:56:27.9Z</time></trkpt><trkpt lat="43.2992116" lon="11.9374702"><ele>264.0</ele><time>2026-04-18T07:56:28.9Z</time></trkpt><trkpt lat="43.2991077" lon="11.9376614"><ele>264.0</ele><time>2026-04-18T07:56:29.899Z</time></trkpt><trkpt lat="43.2990064" lon="11.9378358"><ele>263.0</ele><time>2026-04-18T07:56:30.899Z</time></trkpt><trkpt lat="43.2988974" lon="11.938003"><ele>262.0</ele><time>2026-04-18T07:56:31.898Z</time></trkpt><trkpt lat="43.2987748" lon="11.9381606"><ele>261.0</ele><time>2026-04-18T07:56:32.898Z</time></trkpt><trkpt lat="43.2986396" lon="11.9383106"><ele>262.3333333333333</ele><time>2026-04-18T07:56:33.899Z</time></trkpt><trkpt lat="43.298496" lon="11.9384466"><ele>263.66666666666663</ele><time>2026-04-18T07:56:34.9Z</time></trkpt><trkpt lat="43.2983574" lon="11.9385602"><ele>265.0</ele><time>2026-04-18T07:56:35.899Z</time></trkpt><trkpt lat="43.298219" lon="11.938665"><ele>263.0</ele><time>2026-04-18T07:56:36.9Z</time></trkpt><trkpt lat="43.2980752" lon="11.9387615"><ele>261.0</ele><time>2026-04-18T07:56:37.899Z</time></trkpt><trkpt lat="43.2979282" lon="11.938858"><ele>259.0</ele><time>2026-04-18T07:56:38.898Z</time></trkpt><trkpt lat="43.2977685" lon="11.9389653"><ele>259.0</ele><time>2026-04-18T07:56:39.899Z</time></trkpt><trkpt lat="43.2976131" lon="11.9390741"><ele>259.0</ele><time>2026-04-18T07:56:40.898Z</time></trkpt><trkpt lat="43.2974724" lon="11.9391882"><ele>259.0</ele><time>2026-04-18T07:56:41.898Z</time></trkpt><trkpt lat="43.2973415" lon="11.9393109"><ele>258.66666666666663</ele><time>2026-04-18T07:56:42.897Z</time></trkpt><trkpt lat="43.2972108" lon="11.9394395"><ele>258.3333333333333</ele><time>2026-04-18T07:56:43.897Z</time></trkpt><trkpt lat="43.2970801" lon="11.9395752"><ele>258.0</ele><time>2026-04-18T07:56:44.899Z</time></trkpt><trkpt lat="43.2969533" lon="11.9397063"><ele>258.0</ele><time>2026-04-18T07:56:45.897Z</time></trkpt><trkpt lat="43.296834" lon="11.9398318"><ele>258.0</ele><time>2026-04-18T07:56:46.898Z</time></trkpt><trkpt lat="43.2967188" lon="11.9399597"><ele>258.0</ele><time>2026-04-18T07:56:47.898Z</time></trkpt><trkpt lat="43.2966134" lon="11.9400935"><ele>258.0</ele><time>2026-04-18T07:56:48.899Z</time></trkpt><trkpt lat="43.2965146" lon="11.9402352"><ele>257.3333333333333</ele><time>2026-04-18T07:56:49.898Z</time></trkpt><trkpt lat="43.2964123" lon="11.9403913"><ele>256.66666666666663</ele><time>2026-04-18T07:56:50.898Z</time></trkpt><trkpt lat="43.2963026" lon="11.9405555"><ele>256.0</ele><time>2026-04-18T07:56:51.898Z</time></trkpt><trkpt lat="43.2961845" lon="11.9407323"><ele>256.0</ele><time>2026-04-18T07:56:52.898Z</time></trkpt><trkpt lat="43.2960639" lon="11.9409158"><ele>256.0</ele><time>2026-04-18T07:56:53.898Z</time></trkpt><trkpt lat="43.295936" lon="11.9411093"><ele>256.0</ele><time>2026-04-18T07:56:54.897Z</time></trkpt><trkpt lat="43.2958094" lon="11.9413009"><ele>256.0</ele><time>2026-04-18T07:56:55.899Z</time></trkpt><trkpt lat="43.2956889" lon="11.941487"><ele>256.0</ele><time>2026-04-18T07:56:56.898Z</time></trkpt><trkpt lat="43.2955698" lon="11.9416749"><ele>256.0</ele><time>2026-04-18T07:56:57.898Z</time></trkpt><trkpt lat="43.2954525" lon="11.9418514"><ele>255.0</ele><time>2026-04-18T07:56:58.898Z</time></trkpt><trkpt lat="43.2953321" lon="11.9420416"><ele>254.0</ele><time>2026-04-18T07:56:59.897Z</time></trkpt><trkpt lat="43.2952058" lon="11.9422466"><ele>253.0</ele><time>2026-04-18T07:57:00.898Z</time></trkpt><trkpt lat="43.2950749" lon="11.9424718"><ele>254.5</ele><time>2026-04-18T07:57:01.898Z</time></trkpt><trkpt lat="43.2949269" lon="11.942717"><ele>256.0</ele><time>2026-04-18T07:57:02.898Z</time></trkpt><trkpt lat="43.2947624" lon="11.9429683"><ele>255.5</ele><time>2026-04-18T07:57:03.897Z</time></trkpt><trkpt lat="43.2945818" lon="11.9432197"><ele>255.0</ele><time>2026-04-18T07:57:04.898Z</time></trkpt><trkpt lat="43.294392" lon="11.9434864"><ele>256.5</ele><time>2026-04-18T07:57:05.898Z</time></trkpt><trkpt lat="43.2942029" lon="11.9437717"><ele>258.0</ele><time>2026-04-18T07:57:06.898Z</time></trkpt><trkpt lat="43.294011" lon="11.944064"><ele>259.0</ele><time>2026-04-18T07:57:07.897Z</time></trkpt><trkpt lat="43.2938157" lon="11.9443632"><ele>260.0</ele><time>2026-04-18T07:57:08.898Z</time></trkpt><trkpt lat="43.2936268" lon="11.9446494"><ele>260.0</ele><time>2026-04-18T07:57:09.899Z</time></trkpt><trkpt lat="43.2934449" lon="11.9449284"><ele>260.0</ele><time>2026-04-18T07:57:10.898Z</time></trkpt><trkpt lat="43.2932566" lon="11.9452156"><ele>260.0</ele><time>2026-04-18T07:57:11.898Z</time></trkpt><trkpt lat="43.2930659" lon="11.9455097"><ele>260.0</ele><time>2026-04-18T07:57:12.898Z</time></trkpt><trkpt lat="43.2928746" lon="11.9457988"><ele>260.5</ele><time>2026-04-18T07:57:13.898Z</time></trkpt><trkpt lat="43.2926928" lon="11.9460755"><ele>261.0</ele><time>2026-04-18T07:57:14.898Z</time></trkpt><trkpt lat="43.292521" lon="11.9463367"><ele>261.0</ele><time>2026-04-18T07:57:15.898Z</time></trkpt><trkpt lat="43.2923562" lon="11.9465843"><ele>261.0</ele><time>2026-04-18T07:57:16.898Z</time></trkpt><trkpt lat="43.292201" lon="11.9468285"><ele>261.3333333333333</ele><time>2026-04-18T07:57:17.898Z</time></trkpt><trkpt lat="43.2920554" lon="11.9470562"><ele>261.66666666666663</ele><time>2026-04-18T07:57:18.897Z</time></trkpt><trkpt lat="43.2919156" lon="11.9472723"><ele>262.0</ele><time>2026-04-18T07:57:19.899Z</time></trkpt><trkpt lat="43.2917789" lon="11.9474674"><ele>263.0</ele><time>2026-04-18T07:57:20.898Z</time></trkpt><trkpt lat="43.2916431" lon="11.9476386"><ele>264.0</ele><time>2026-04-18T07:57:21.898Z</time></trkpt><trkpt lat="43.29149" lon="11.9477754"><ele>265.0</ele><time>2026-04-18T07:57:22.898Z</time></trkpt><trkpt lat="43.2913219" lon="11.9478573"><ele>265.0</ele><time>2026-04-18T07:57:23.897Z</time></trkpt><trkpt lat="43.2911273" lon="11.9478984"><ele>265.0</ele><time>2026-04-18T07:57:24.897Z</time></trkpt><trkpt lat="43.2909208" lon="11.9479099"><ele>265.0</ele><time>2026-04-18T07:57:25.897Z</time></trkpt><trkpt lat="43.2907035" lon="11.9479122"><ele>264.66666666666663</ele><time>2026-04-18T07:57:26.898Z</time></trkpt><trkpt lat="43.2904954" lon="11.9479165"><ele>264.3333333333333</ele><time>2026-04-18T07:57:27.898Z</time></trkpt><trkpt lat="43.2902915" lon="11.9479196"><ele>264.0</ele><time>2026-04-18T07:57:28.897Z</time></trkpt><trkpt lat="43.2900991" lon="11.9479275"><ele>264.0</ele><time>2026-04-18T07:57:29.897Z</time></trkpt><trkpt lat="43.2899179" lon="11.947927"><ele>264.0</ele><time>2026-04-18T07:57:30.898Z</time></trkpt><trkpt lat="43.2897386" lon="11.9479259"><ele>264.0</ele><time>2026-04-18T07:57:31.898Z</time></trkpt><trkpt lat="43.2895667" lon="11.9479258"><ele>263.3333333333333</ele><time>2026-04-18T07:57:32.898Z</time></trkpt><trkpt lat="43.2893966" lon="11.9479245"><ele>262.66666666666663</ele><time>2026-04-18T07:57:33.898Z</time></trkpt><trkpt lat="43.2892296" lon="11.9479245"><ele>262.0</ele><time>2026-04-18T07:57:34.898Z</time></trkpt><trkpt lat="43.2890623" lon="11.9479233"><ele>262.5</ele><time>2026-04-18T07:57:35.898Z</time></trkpt><trkpt lat="43.2889044" lon="11.947923"><ele>263.0</ele><time>2026-04-18T07:57:36.899Z</time></trkpt><trkpt lat="43.2887563" lon="11.9479186"><ele>263.5</ele><time>2026-04-18T07:57:37.897Z</time></trkpt><trkpt lat="43.2886162" lon="11.9479198"><ele>264.0</ele><time>2026-04-18T07:57:38.897Z</time></trkpt><trkpt lat="43.2884809" lon="11.9479328"><ele>264.0</ele><time>2026-04-18T07:57:39.898Z</time></trkpt><trkpt lat="43.2883468" lon="11.947965"><ele>264.0</ele><time>2026-04-18T07:57:40.898Z</time></trkpt><trkpt lat="43.2882142" lon="11.9480347"><ele>264.0</ele><time>2026-04-18T07:57:41.897Z</time></trkpt><trkpt lat="43.2880861" lon="11.9481336"><ele>264.0</ele><time>2026-04-18T07:57:42.898Z</time></trkpt><trkpt lat="43.2879692" lon="11.948267"><ele>263.0</ele><time>2026-04-18T07:57:43.898Z</time></trkpt><trkpt lat="43.2878725" lon="11.9484296"><ele>262.0</ele><time>2026-04-18T07:57:44.898Z</time></trkpt><trkpt lat="43.2877969" lon="11.9486113"><ele>261.0</ele><time>2026-04-18T07:57:45.899Z</time></trkpt><trkpt lat="43.2877482" lon="11.9488124"><ele>261.0</ele><time>2026-04-18T07:57:46.898Z</time></trkpt><trkpt lat="43.2877217" lon="11.949039"><ele>261.0</ele><time>2026-04-18T07:57:47.898Z</time></trkpt><trkpt lat="43.2877071" lon="11.9492847"><ele>261.0</ele><time>2026-04-18T07:57:48.897Z</time></trkpt><trkpt lat="43.2877022" lon="11.9495384"><ele>262.0</ele><time>2026-04-18T07:57:49.899Z</time></trkpt><trkpt lat="43.2877026" lon="11.9497803"><ele>263.0</ele><time>2026-04-18T07:57:50.898Z</time></trkpt><trkpt lat="43.287699" lon="11.9500219"><ele>264.0</ele><time>2026-04-18T07:57:51.898Z</time></trkpt><trkpt lat="43.2876981" lon="11.9502624"><ele>264.3333333333333</ele><time>2026-04-18T07:57:52.899Z</time></trkpt><trkpt lat="43.2877003" lon="11.9505012"><ele>264.66666666666663</ele><time>2026-04-18T07:57:53.898Z</time></trkpt><trkpt lat="43.2876972" lon="11.950727"><ele>265.0</ele><time>2026-04-18T07:57:54.898Z</time></trkpt><trkpt lat="43.2876968" lon="11.9509461"><ele>264.3333333333333</ele><time>2026-04-18T07:57:55.898Z</time></trkpt><trkpt lat="43.2876995" lon="11.951179"><ele>263.6666666666667</ele><time>2026-04-18T07:57:56.898Z</time></trkpt><trkpt lat="43.287704" lon="11.951431"><ele>263.0</ele><time>2026-04-18T07:57:57.898Z</time></trkpt><trkpt lat="43.2877017" lon="11.9517003"><ele>262.6666666666667</ele><time>2026-04-18T07:57:58.898Z</time></trkpt><trkpt lat="43.2876965" lon="11.9519824"><ele>262.3333333333333</ele><time>2026-04-18T07:57:59.898Z</time></trkpt><trkpt lat="43.2876902" lon="11.952276"><ele>262.0</ele><time>2026-04-18T07:58:00.898Z</time></trkpt><trkpt lat="43.287681" lon="11.9525648"><ele>261.66666666666663</ele><time>2026-04-18T07:58:01.898Z</time></trkpt><trkpt lat="43.2876725" lon="11.9528515"><ele>261.3333333333333</ele><time>2026-04-18T07:58:02.898Z</time></trkpt><trkpt lat="43.2876665" lon="11.9531256"><ele>261.0</ele><time>2026-04-18T07:58:03.897Z</time></trkpt><trkpt lat="43.2876612" lon="11.9533899"><ele>262.0</ele><time>2026-04-18T07:58:04.899Z</time></trkpt><trkpt lat="43.2876548" lon="11.9536602"><ele>263.0</ele><time>2026-04-18T07:58:05.898Z</time></trkpt><trkpt lat="43.2876471" lon="11.9539344"><ele>264.0</ele><time>2026-04-18T07:58:06.899Z</time></trkpt><trkpt lat="43.2876429" lon="11.9541933"><ele>262.3333333333333</ele><time>2026-04-18T07:58:07.898Z</time></trkpt><trkpt lat="43.2876398" lon="11.9544435"><ele>260.66666666666663</ele><time>2026-04-18T07:58:08.899Z</time></trkpt><trkpt lat="43.2876355" lon="11.9546881"><ele>259.0</ele><time>2026-04-18T07:58:09.898Z</time></trkpt><trkpt lat="43.2876305" lon="11.954929"><ele>258.66666666666663</ele><time>2026-04-18T07:58:10.897Z</time></trkpt><trkpt lat="43.2876189" lon="11.9551722"><ele>258.3333333333333</ele><time>2026-04-18T07:58:11.898Z</time></trkpt><trkpt lat="43.2875993" lon="11.9553984"><ele>258.0</ele><time>2026-04-18T07:58:12.897Z</time></trkpt><trkpt lat="43.2875674" lon="11.9556191"><ele>258.0</ele><time>2026-04-18T07:58:13.897Z</time></trkpt><trkpt lat="43.2875216" lon="11.9558477"><ele>258.0</ele><time>2026-04-18T07:58:14.898Z</time></trkpt><trkpt lat="43.2874579" lon="11.9560987"><ele>258.0</ele><time>2026-04-18T07:58:15.899Z</time></trkpt><trkpt lat="43.2873756" lon="11.9563732"><ele>258.5</ele><time>2026-04-18T07:58:16.897Z</time></trkpt><trkpt lat="43.2872772" lon="11.9566627"><ele>259.0</ele><time>2026-04-18T07:58:17.897Z</time></trkpt><trkpt lat="43.2871721" lon="11.9569517"><ele>259.0</ele><time>2026-04-18T07:58:18.898Z</time></trkpt><trkpt lat="43.2870727" lon="11.9572171"><ele>259.0</ele><time>2026-04-18T07:58:19.898Z</time></trkpt><trkpt lat="43.2869793" lon="11.9574618"><ele>259.0</ele><time>2026-04-18T07:58:20.898Z</time></trkpt><trkpt lat="43.2868969" lon="11.9576858"><ele>259.66666666666663</ele><time>2026-04-18T07:58:21.898Z</time></trkpt><trkpt lat="43.2868245" lon="11.9578952"><ele>260.3333333333333</ele><time>2026-04-18T07:58:22.897Z</time></trkpt><trkpt lat="43.2867576" lon="11.9580866"><ele>261.0</ele><time>2026-04-18T07:58:23.899Z</time></trkpt><trkpt lat="43.2866885" lon="11.9582779"><ele>261.75</ele><time>2026-04-18T07:58:24.898Z</time></trkpt><trkpt lat="43.2866174" lon="11.9584641"><ele>262.5</ele><time>2026-04-18T07:58:25.899Z</time></trkpt><trkpt lat="43.2865576" lon="11.9586401"><ele>263.25</ele><time>2026-04-18T07:58:26.897Z</time></trkpt><trkpt lat="43.2864995" lon="11.9588036"><ele>264.0</ele><time>2026-04-18T07:58:27.898Z</time></trkpt><trkpt lat="43.2864403" lon="11.9589704"><ele>263.25</ele><time>2026-04-18T07:58:28.898Z</time></trkpt><trkpt lat="43.2863821" lon="11.9591389"><ele>262.5</ele><time>2026-04-18T07:58:29.898Z</time></trkpt><trkpt lat="43.286327" lon="11.9592996"><ele>261.75</ele><time>2026-04-18T07:58:30.897Z</time></trkpt><trkpt lat="43.2862729" lon="11.9594562"><ele>261.0</ele><time>2026-04-18T07:58:31.898Z</time></trkpt><trkpt lat="43.2862185" lon="11.9596328"><ele>261.0</ele><time>2026-04-18T07:58:32.899Z</time></trkpt><trkpt lat="43.286155" lon="11.9598207"><ele>261.0</ele><time>2026-04-18T07:58:33.898Z</time></trkpt><trkpt lat="43.2860859" lon="11.9600254"><ele>261.0</ele><time>2026-04-18T07:58:34.899Z</time></trkpt><trkpt lat="43.2860141" lon="11.9602388"><ele>261.3333333333333</ele><time>2026-04-18T07:58:35.899Z</time></trkpt><trkpt lat="43.2859436" lon="11.9604454"><ele>261.66666666666663</ele><time>2026-04-18T07:58:36.898Z</time></trkpt><trkpt lat="43.2858806" lon="11.9606344"><ele>262.0</ele><time>2026-04-18T07:58:37.897Z</time></trkpt><trkpt lat="43.2858205" lon="11.9608004"><ele>262.0</ele><time>2026-04-18T07:58:38.897Z</time></trkpt><trkpt lat="43.2857627" lon="11.9609513"><ele>262.0</ele><time>2026-04-18T07:58:39.897Z</time></trkpt><trkpt lat="43.2857138" lon="11.9610833"><ele>262.0</ele><time>2026-04-18T07:58:40.897Z</time></trkpt><trkpt lat="43.285671" lon="11.9611924"><ele>262.0</ele><time>2026-04-18T07:58:41.898Z</time></trkpt><trkpt lat="43.2856309" lon="11.9612886"><ele>262.0</ele><time>2026-04-18T07:58:42.898Z</time></trkpt><trkpt lat="43.2855966" lon="11.9613826"><ele>262.0</ele><time>2026-04-18T07:58:43.897Z</time></trkpt><trkpt lat="43.2855608" lon="11.9614695"><ele>262.0</ele><time>2026-04-18T07:58:44.897Z</time></trkpt><trkpt lat="43.2855314" lon="11.9615571"><ele>262.0</ele><time>2026-04-18T07:58:45.899Z</time></trkpt><trkpt lat="43.2854791" lon="11.9617208"><ele>262.0</ele><time>2026-04-18T07:58:47.898Z</time></trkpt><trkpt lat="43.2854457" lon="11.9618095"><ele>262.0</ele><time>2026-04-18T07:58:48.898Z</time></trkpt><trkpt lat="43.2854087" lon="11.9618993"><ele>262.0</ele><time>2026-04-18T07:58:49.898Z</time></trkpt><trkpt lat="43.2853539" lon="11.962056"><ele>262.0</ele><time>2026-04-18T07:58:51.898Z</time></trkpt><trkpt lat="43.2853164" lon="11.9621542"><ele>262.0</ele><time>2026-04-18T07:58:52.898Z</time></trkpt><trkpt lat="43.2852799" lon="11.9622673"><ele>262.0</ele><time>2026-04-18T07:58:53.898Z</time></trkpt><trkpt lat="43.2852383" lon="11.9623877"><ele>262.0</ele><time>2026-04-18T07:58:54.898Z</time></trkpt><trkpt lat="43.2851966" lon="11.9625033"><ele>262.0</ele><time>2026-04-18T07:58:55.898Z</time></trkpt><trkpt lat="43.2851608" lon="11.9626114"><ele>262.0</ele><time>2026-04-18T07:58:56.898Z</time></trkpt><trkpt lat="43.2851232" lon="11.9627227"><ele>262.0</ele><time>2026-04-18T07:58:57.897Z</time></trkpt><trkpt lat="43.2850824" lon="11.9628428"><ele>262.0</ele><time>2026-04-18T07:58:58.898Z</time></trkpt><trkpt lat="43.2850392" lon="11.9629721"><ele>262.0</ele><time>2026-04-18T07:58:59.898Z</time></trkpt><trkpt lat="43.2849913" lon="11.963113"><ele>262.0</ele><time>2026-04-18T07:59:00.898Z</time></trkpt><trkpt lat="43.2849415" lon="11.9632624"><ele>262.0</ele><time>2026-04-18T07:59:01.899Z</time></trkpt><trkpt lat="43.2848927" lon="11.9634019"><ele>262.0</ele><time>2026-04-18T07:59:02.898Z</time></trkpt><trkpt lat="43.2848461" lon="11.9635234"><ele>262.0</ele><time>2026-04-18T07:59:03.899Z</time></trkpt><trkpt lat="43.284805" lon="11.9636336"><ele>262.0</ele><time>2026-04-18T07:59:04.898Z</time></trkpt><trkpt lat="43.2847655" lon="11.9637357"><ele>262.0</ele><time>2026-04-18T07:59:05.899Z</time></trkpt><trkpt lat="43.2847356" lon="11.963824"><ele>262.0</ele><time>2026-04-18T07:59:06.897Z</time></trkpt><trkpt lat="43.2847058" lon="11.9639065"><ele>262.0</ele><time>2026-04-18T07:59:07.897Z</time></trkpt><trkpt lat="43.2846774" lon="11.9639912"><ele>262.0</ele><time>2026-04-18T07:59:08.898Z</time></trkpt><trkpt lat="43.2846453" lon="11.9640881"><ele>262.0</ele><time>2026-04-18T07:59:09.898Z</time></trkpt><trkpt lat="43.2846068" lon="11.9641923"><ele>262.0</ele><time>2026-04-18T07:59:10.898Z</time></trkpt><trkpt lat="43.2845653" lon="11.9643129"><ele>262.0</ele><time>2026-04-18T07:59:11.898Z</time></trkpt><trkpt lat="43.2845215" lon="11.9644381"><ele>262.0</ele><time>2026-04-18T07:59:12.898Z</time></trkpt><trkpt lat="43.2844795" lon="11.9645501"><ele>262.2</ele><time>2026-04-18T07:59:13.899Z</time></trkpt><trkpt lat="43.2844392" lon="11.964659"><ele>262.4</ele><time>2026-04-18T07:59:14.897Z</time></trkpt><trkpt lat="43.2843959" lon="11.9647799"><ele>262.6</ele><time>2026-04-18T07:59:15.898Z</time></trkpt><trkpt lat="43.2843502" lon="11.9649125"><ele>262.8</ele><time>2026-04-18T07:59:16.898Z</time></trkpt><trkpt lat="43.2842997" lon="11.9650573"><ele>263.0</ele><time>2026-04-18T07:59:17.897Z</time></trkpt><trkpt lat="43.2842464" lon="11.9652118"><ele>263.25</ele><time>2026-04-18T07:59:18.898Z</time></trkpt><trkpt lat="43.2841909" lon="11.9653708"><ele>263.5</ele><time>2026-04-18T07:59:19.897Z</time></trkpt><trkpt lat="43.2841409" lon="11.9655189"><ele>263.75</ele><time>2026-04-18T07:59:20.898Z</time></trkpt><trkpt lat="43.2840876" lon="11.9656668"><ele>264.0</ele><time>2026-04-18T07:59:21.897Z</time></trkpt><trkpt lat="43.2840304" lon="11.9658193"><ele>264.0</ele><time>2026-04-18T07:59:22.898Z</time></trkpt><trkpt lat="43.2839728" lon="11.9659807"><ele>264.0</ele><time>2026-04-18T07:59:23.898Z</time></trkpt><trkpt lat="43.2839194" lon="11.9661332"><ele>264.0</ele><time>2026-04-18T07:59:24.898Z</time></trkpt><trkpt lat="43.2838686" lon="11.9662732"><ele>264.0</ele><time>2026-04-18T07:59:25.898Z</time></trkpt><trkpt lat="43.2838135" lon="11.9664234"><ele>264.0</ele><time>2026-04-18T07:59:26.897Z</time></trkpt><trkpt lat="43.2837576" lon="11.9665863"><ele>264.0</ele><time>2026-04-18T07:59:27.898Z</time></trkpt><trkpt lat="43.2837004" lon="11.966756"><ele>264.0</ele><time>2026-04-18T07:59:28.899Z</time></trkpt><trkpt lat="43.2836367" lon="11.9669355"><ele>264.0</ele><time>2026-04-18T07:59:29.898Z</time></trkpt><trkpt lat="43.2835803" lon="11.9671028"><ele>264.0</ele><time>2026-04-18T07:59:30.898Z</time></trkpt><trkpt lat="43.2835272" lon="11.9672548"><ele>264.0</ele><time>2026-04-18T07:59:31.898Z</time></trkpt><trkpt lat="43.2834719" lon="11.9674047"><ele>264.0</ele><time>2026-04-18T07:59:32.898Z</time></trkpt><trkpt lat="43.2834168" lon="11.967555"><ele>264.0</ele><time>2026-04-18T07:59:33.899Z</time></trkpt><trkpt lat="43.283365" lon="11.9677087"><ele>264.5</ele><time>2026-04-18T07:59:34.899Z</time></trkpt><trkpt lat="43.2833122" lon="11.9678657"><ele>265.0</ele><time>2026-04-18T07:59:35.897Z</time></trkpt><trkpt lat="43.2832581" lon="11.9680292"><ele>265.5</ele><time>2026-04-18T07:59:36.897Z</time></trkpt><trkpt lat="43.2831994" lon="11.968198"><ele>266.0</ele><time>2026-04-18T07:59:37.899Z</time></trkpt><trkpt lat="43.2831372" lon="11.9683756"><ele>266.33333333333337</ele><time>2026-04-18T07:59:38.899Z</time></trkpt><trkpt lat="43.2830715" lon="11.9685692"><ele>266.6666666666667</ele><time>2026-04-18T07:59:39.897Z</time></trkpt><trkpt lat="43.2830026" lon="11.9687602"><ele>267.0</ele><time>2026-04-18T07:59:40.898Z</time></trkpt><trkpt lat="43.2829356" lon="11.9689423"><ele>267.0</ele><time>2026-04-18T07:59:41.898Z</time></trkpt><trkpt lat="43.2828699" lon="11.9691062"><ele>267.0</ele><time>2026-04-18T07:59:42.898Z</time></trkpt><trkpt lat="43.2828023" lon="11.969261"><ele>267.0</ele><time>2026-04-18T07:59:43.898Z</time></trkpt><trkpt lat="43.2827227" lon="11.9694068"><ele>267.0</ele><time>2026-04-18T07:59:44.898Z</time></trkpt><trkpt lat="43.2826289" lon="11.9695397"><ele>267.0</ele><time>2026-04-18T07:59:45.897Z</time></trkpt><trkpt lat="43.2825304" lon="11.9696588"><ele>267.0</ele><time>2026-04-18T07:59:46.897Z</time></trkpt><trkpt lat="43.2824316" lon="11.9697593"><ele>267.0</ele><time>2026-04-18T07:59:47.898Z</time></trkpt><trkpt lat="43.2823373" lon="11.9698444"><ele>267.0</ele><time>2026-04-18T07:59:48.898Z</time></trkpt><trkpt lat="43.2822526" lon="11.9699246"><ele>267.0</ele><time>2026-04-18T07:59:49.898Z</time></trkpt><trkpt lat="43.2821678" lon="11.9700019"><ele>267.0</ele><time>2026-04-18T07:59:50.898Z</time></trkpt><trkpt lat="43.2820924" lon="11.9700672"><ele>267.0</ele><time>2026-04-18T07:59:51.898Z</time></trkpt><trkpt lat="43.2820246" lon="11.9701234"><ele>267.0</ele><time>2026-04-18T07:59:52.898Z</time></trkpt><trkpt lat="43.281964" lon="11.9701699"><ele>267.0</ele><time>2026-04-18T07:59:53.898Z</time></trkpt><trkpt lat="43.2818339" lon="11.970221"><ele>267.0</ele><time>2026-04-18T07:59:55.898Z</time></trkpt><trkpt lat="43.281764" lon="11.970228"><ele>267.0</ele><time>2026-04-18T07:59:56.898Z</time></trkpt><trkpt lat="43.2817004" lon="11.9702415"><ele>267.0</ele><time>2026-04-18T07:59:57.899Z</time></trkpt><trkpt lat="43.281635" lon="11.9702758"><ele>267.0</ele><time>2026-04-18T07:59:58.898Z</time></trkpt><trkpt lat="43.2815728" lon="11.9703375"><ele>267.0</ele><time>2026-04-18T07:59:59.899Z</time></trkpt><trkpt lat="43.2815087" lon="11.9704112"><ele>267.0</ele><time>2026-04-18T08:00:00.898Z</time></trkpt><trkpt lat="43.2814415" lon="11.9704839"><ele>266.8</ele><time>2026-04-18T08:00:01.897Z</time></trkpt><trkpt lat="43.2813598" lon="11.9705398"><ele>266.6</ele><time>2026-04-18T08:00:02.898Z</time></trkpt><trkpt lat="43.2812623" lon="11.9705732"><ele>266.40000000000003</ele><time>2026-04-18T08:00:03.899Z</time></trkpt><trkpt lat="43.2811527" lon="11.9705988"><ele>266.2</ele><time>2026-04-18T08:00:04.897Z</time></trkpt><trkpt lat="43.2810312" lon="11.9706167"><ele>266.0</ele><time>2026-04-18T08:00:05.898Z</time></trkpt><trkpt lat="43.2808731" lon="11.9706397"><ele>266.0</ele><time>2026-04-18T08:00:06.898Z</time></trkpt><trkpt lat="43.2806897" lon="11.9706645"><ele>266.0</ele><time>2026-04-18T08:00:07.899Z</time></trkpt><trkpt lat="43.2804825" lon="11.9706738"><ele>266.0</ele><time>2026-04-18T08:00:08.898Z</time></trkpt><trkpt lat="43.2802532" lon="11.9706766"><ele>266.5</ele><time>2026-04-18T08:00:09.897Z</time></trkpt><trkpt lat="43.280012" lon="11.970684"><ele>267.0</ele><time>2026-04-18T08:00:10.897Z</time></trkpt><trkpt lat="43.2797596" lon="11.9706966"><ele>267.5</ele><time>2026-04-18T08:00:11.897Z</time></trkpt><trkpt lat="43.279498" lon="11.9707134"><ele>268.0</ele><time>2026-04-18T08:00:12.899Z</time></trkpt><trkpt lat="43.2792473" lon="11.9707285"><ele>268.0</ele><time>2026-04-18T08:00:13.898Z</time></trkpt><trkpt lat="43.2790151" lon="11.9707448"><ele>268.0</ele><time>2026-04-18T08:00:14.898Z</time></trkpt><trkpt lat="43.2787926" lon="11.9707626"><ele>267.3333333333333</ele><time>2026-04-18T08:00:15.898Z</time></trkpt><trkpt lat="43.2785817" lon="11.9707761"><ele>266.6666666666667</ele><time>2026-04-18T08:00:16.897Z</time></trkpt><trkpt lat="43.2783696" lon="11.9707901"><ele>266.0</ele><time>2026-04-18T08:00:17.898Z</time></trkpt><trkpt lat="43.2781552" lon="11.9708031"><ele>267.33333333333337</ele><time>2026-04-18T08:00:18.898Z</time></trkpt><trkpt lat="43.2779448" lon="11.9708196"><ele>268.6666666666667</ele><time>2026-04-18T08:00:19.898Z</time></trkpt><trkpt lat="43.2777351" lon="11.970833"><ele>270.0</ele><time>2026-04-18T08:00:20.898Z</time></trkpt><trkpt lat="43.2775249" lon="11.9708462"><ele>271.0</ele><time>2026-04-18T08:00:21.898Z</time></trkpt><trkpt lat="43.2773246" lon="11.9708594"><ele>272.0</ele><time>2026-04-18T08:00:22.898Z</time></trkpt><trkpt lat="43.2771265" lon="11.9708749"><ele>273.0</ele><time>2026-04-18T08:00:23.898Z</time></trkpt><trkpt lat="43.2769244" lon="11.9708857"><ele>273.0</ele><time>2026-04-18T08:00:24.897Z</time></trkpt><trkpt lat="43.2767168" lon="11.9709046"><ele>273.0</ele><time>2026-04-18T08:00:25.898Z</time></trkpt><trkpt lat="43.2765105" lon="11.9709215"><ele>273.0</ele><time>2026-04-18T08:00:26.898Z</time></trkpt><trkpt lat="43.2762992" lon="11.9709369"><ele>274.3333333333333</ele><time>2026-04-18T08:00:27.898Z</time></trkpt><trkpt lat="43.2760868" lon="11.9709471"><ele>275.66666666666663</ele><time>2026-04-18T08:00:28.897Z</time></trkpt><trkpt lat="43.2758769" lon="11.9709598"><ele>277.0</ele><time>2026-04-18T08:00:29.898Z</time></trkpt><trkpt lat="43.275681" lon="11.9709732"><ele>277.0</ele><time>2026-04-18T08:00:30.898Z</time></trkpt><trkpt lat="43.2754965" lon="11.9709976"><ele>277.0</ele><time>2026-04-18T08:00:31.898Z</time></trkpt><trkpt lat="43.2753265" lon="11.9710323"><ele>277.0</ele><time>2026-04-18T08:00:32.898Z</time></trkpt><trkpt lat="43.2751688" lon="11.9710803"><ele>277.0</ele><time>2026-04-18T08:00:33.898Z</time></trkpt><trkpt lat="43.2750173" lon="11.9711511"><ele>277.0</ele><time>2026-04-18T08:00:34.898Z</time></trkpt><trkpt lat="43.274867" lon="11.971237"><ele>277.0</ele><time>2026-04-18T08:00:35.898Z</time></trkpt><trkpt lat="43.2747197" lon="11.9713296"><ele>276.75</ele><time>2026-04-18T08:00:36.898Z</time></trkpt><trkpt lat="43.2745834" lon="11.9714157"><ele>276.5</ele><time>2026-04-18T08:00:37.899Z</time></trkpt><trkpt lat="43.2744525" lon="11.9714953"><ele>276.25</ele><time>2026-04-18T08:00:38.898Z</time></trkpt><trkpt lat="43.2743183" lon="11.9715704"><ele>276.0</ele><time>2026-04-18T08:00:39.898Z</time></trkpt><trkpt lat="43.2741795" lon="11.9716427"><ele>277.0</ele><time>2026-04-18T08:00:40.897Z</time></trkpt><trkpt lat="43.2740354" lon="11.9717069"><ele>278.0</ele><time>2026-04-18T08:00:41.897Z</time></trkpt><trkpt lat="43.2738819" lon="11.9717605"><ele>279.0</ele><time>2026-04-18T08:00:42.898Z</time></trkpt><trkpt lat="43.273722" lon="11.9718088"><ele>279.6666666666667</ele><time>2026-04-18T08:00:43.898Z</time></trkpt><trkpt lat="43.2735546" lon="11.9718629"><ele>280.33333333333337</ele><time>2026-04-18T08:00:44.898Z</time></trkpt><trkpt lat="43.2733896" lon="11.9719136"><ele>281.0</ele><time>2026-04-18T08:00:45.898Z</time></trkpt><trkpt lat="43.273235" lon="11.9719637"><ele>280.0</ele><time>2026-04-18T08:00:46.899Z</time></trkpt><trkpt lat="43.2730889" lon="11.9720157"><ele>279.0</ele><time>2026-04-18T08:00:47.899Z</time></trkpt><trkpt lat="43.2729562" lon="11.9720636"><ele>278.0</ele><time>2026-04-18T08:00:48.898Z</time></trkpt><trkpt lat="43.2728308" lon="11.9721178"><ele>277.0</ele><time>2026-04-18T08:00:49.897Z</time></trkpt><trkpt lat="43.2727013" lon="11.9721906"><ele>277.0</ele><time>2026-04-18T08:00:50.898Z</time></trkpt><trkpt lat="43.272573" lon="11.9722874"><ele>277.0</ele><time>2026-04-18T08:00:51.899Z</time></trkpt><trkpt lat="43.2724396" lon="11.9724241"><ele>277.0</ele><time>2026-04-18T08:00:52.898Z</time></trkpt><trkpt lat="43.2722942" lon="11.9725919"><ele>277.66666666666663</ele><time>2026-04-18T08:00:53.898Z</time></trkpt><trkpt lat="43.2721331" lon="11.9727766"><ele>278.3333333333333</ele><time>2026-04-18T08:00:54.898Z</time></trkpt><trkpt lat="43.2719549" lon="11.9729746"><ele>279.0</ele><time>2026-04-18T08:00:55.898Z</time></trkpt><trkpt lat="43.2717584" lon="11.973179"><ele>279.5</ele><time>2026-04-18T08:00:56.898Z</time></trkpt><trkpt lat="43.2715594" lon="11.9733945"><ele>280.0</ele><time>2026-04-18T08:00:57.898Z</time></trkpt><trkpt lat="43.2713679" lon="11.9736045"><ele>280.0</ele><time>2026-04-18T08:00:58.897Z</time></trkpt><trkpt lat="43.2711907" lon="11.9738003"><ele>280.0</ele><time>2026-04-18T08:00:59.899Z</time></trkpt><trkpt lat="43.2710218" lon="11.973977"><ele>280.0</ele><time>2026-04-18T08:01:00.898Z</time></trkpt><trkpt lat="43.270847" lon="11.9741373"><ele>282.0</ele><time>2026-04-18T08:01:01.898Z</time></trkpt><trkpt lat="43.2706778" lon="11.9742724"><ele>284.0</ele><time>2026-04-18T08:01:02.898Z</time></trkpt><trkpt lat="43.2705173" lon="11.9743803"><ele>286.0</ele><time>2026-04-18T08:01:03.898Z</time></trkpt><trkpt lat="43.2703714" lon="11.9744619"><ele>286.0</ele><time>2026-04-18T08:01:04.899Z</time></trkpt><trkpt lat="43.2702206" lon="11.9745258"><ele>286.0</ele><time>2026-04-18T08:01:05.897Z</time></trkpt><trkpt lat="43.2700547" lon="11.9745667"><ele>286.0</ele><time>2026-04-18T08:01:06.897Z</time></trkpt><trkpt lat="43.2698794" lon="11.9745841"><ele>284.0</ele><time>2026-04-18T08:01:07.897Z</time></trkpt><trkpt lat="43.2696901" lon="11.9745962"><ele>282.0</ele><time>2026-04-18T08:01:08.898Z</time></trkpt><trkpt lat="43.2694991" lon="11.97461"><ele>280.0</ele><time>2026-04-18T08:01:09.897Z</time></trkpt><trkpt lat="43.2693181" lon="11.9746207"><ele>280.0</ele><time>2026-04-18T08:01:10.896Z</time></trkpt><trkpt lat="43.269138" lon="11.9746332"><ele>280.0</ele><time>2026-04-18T08:01:11.896Z</time></trkpt><trkpt lat="43.2689639" lon="11.9746451"><ele>280.0</ele><time>2026-04-18T08:01:12.896Z</time></trkpt><trkpt lat="43.2688033" lon="11.9746579"><ele>278.25</ele><time>2026-04-18T08:01:13.896Z</time></trkpt><trkpt lat="43.2686598" lon="11.9746722"><ele>276.5</ele><time>2026-04-18T08:01:14.897Z</time></trkpt><trkpt lat="43.2685317" lon="11.9746816"><ele>274.75</ele><time>2026-04-18T08:01:15.897Z</time></trkpt><trkpt lat="43.2684231" lon="11.9746754"><ele>273.0</ele><time>2026-04-18T08:01:16.897Z</time></trkpt><trkpt lat="43.2683324" lon="11.974644"><ele>273.0</ele><time>2026-04-18T08:01:17.897Z</time></trkpt><trkpt lat="43.2682634" lon="11.9745825"><ele>273.0</ele><time>2026-04-18T08:01:18.897Z</time></trkpt><trkpt lat="43.2682093" lon="11.9745012"><ele>273.0</ele><time>2026-04-18T08:01:19.897Z</time></trkpt><trkpt lat="43.2681586" lon="11.9744128"><ele>273.0</ele><time>2026-04-18T08:01:20.897Z</time></trkpt><trkpt lat="43.2680905" lon="11.974363"><ele>273.0</ele><time>2026-04-18T08:01:21.897Z</time></trkpt><trkpt lat="43.2680112" lon="11.9743615"><ele>273.0</ele><time>2026-04-18T08:01:22.897Z</time></trkpt><trkpt lat="43.2679438" lon="11.97442"><ele>272.0</ele><time>2026-04-18T08:01:23.896Z</time></trkpt><trkpt lat="43.2678873" lon="11.9745121"><ele>271.0</ele><time>2026-04-18T08:01:24.897Z</time></trkpt><trkpt lat="43.267807" lon="11.9746155"><ele>270.0</ele><time>2026-04-18T08:01:25.897Z</time></trkpt><trkpt lat="43.2677009" lon="11.9746788"><ele>269.0</ele><time>2026-04-18T08:01:26.897Z</time></trkpt><trkpt lat="43.2675654" lon="11.9747114"><ele>269.0</ele><time>2026-04-18T08:01:27.897Z</time></trkpt><trkpt lat="43.2674126" lon="11.9747284"><ele>269.0</ele><time>2026-04-18T08:01:28.897Z</time></trkpt><trkpt lat="43.2672486" lon="11.9747416"><ele>269.0</ele><time>2026-04-18T08:01:29.897Z</time></trkpt><trkpt lat="43.2670962" lon="11.9747499"><ele>269.0</ele><time>2026-04-18T08:01:30.898Z</time></trkpt><trkpt lat="43.2669492" lon="11.9747587"><ele>269.0</ele><time>2026-04-18T08:01:31.897Z</time></trkpt><trkpt lat="43.2667895" lon="11.9747795"><ele>269.0</ele><time>2026-04-18T08:01:32.897Z</time></trkpt><trkpt lat="43.2666149" lon="11.9748116"><ele>269.0</ele><time>2026-04-18T08:01:33.897Z</time></trkpt><trkpt lat="43.2664282" lon="11.9748206"><ele>269.0</ele><time>2026-04-18T08:01:34.897Z</time></trkpt><trkpt lat="43.2662265" lon="11.9748244"><ele>269.0</ele><time>2026-04-18T08:01:35.898Z</time></trkpt><trkpt lat="43.2660257" lon="11.9748335"><ele>269.0</ele><time>2026-04-18T08:01:36.896Z</time></trkpt><trkpt lat="43.2658489" lon="11.9748456"><ele>269.0</ele><time>2026-04-18T08:01:37.896Z</time></trkpt><trkpt lat="43.2656818" lon="11.9748567"><ele>269.0</ele><time>2026-04-18T08:01:38.896Z</time></trkpt><trkpt lat="43.2655249" lon="11.9748647"><ele>269.25</ele><time>2026-04-18T08:01:39.897Z</time></trkpt><trkpt lat="43.2653777" lon="11.9748722"><ele>269.5</ele><time>2026-04-18T08:01:40.897Z</time></trkpt><trkpt lat="43.2652424" lon="11.97488"><ele>269.75</ele><time>2026-04-18T08:01:41.896Z</time></trkpt><trkpt lat="43.2651155" lon="11.9748907"><ele>270.0</ele><time>2026-04-18T08:01:42.896Z</time></trkpt><trkpt lat="43.264986" lon="11.9749035"><ele>270.0</ele><time>2026-04-18T08:01:43.897Z</time></trkpt><trkpt lat="43.2648489" lon="11.9749125"><ele>270.0</ele><time>2026-04-18T08:01:44.897Z</time></trkpt><trkpt lat="43.2647026" lon="11.9749248"><ele>270.0</ele><time>2026-04-18T08:01:45.896Z</time></trkpt><trkpt lat="43.2645507" lon="11.9749346"><ele>270.0</ele><time>2026-04-18T08:01:46.897Z</time></trkpt><trkpt lat="43.2644095" lon="11.9749515"><ele>270.4</ele><time>2026-04-18T08:01:47.896Z</time></trkpt><trkpt lat="43.2642914" lon="11.9749697"><ele>270.8</ele><time>2026-04-18T08:01:48.896Z</time></trkpt><trkpt lat="43.2642102" lon="11.9749866"><ele>271.2</ele><time>2026-04-18T08:01:49.896Z</time></trkpt><trkpt lat="43.2640969" lon="11.9750123"><ele>271.6</ele><time>2026-04-18T08:01:51.898Z</time></trkpt><trkpt lat="43.2639994" lon="11.9750464"><ele>272.0</ele><time>2026-04-18T08:01:53.898Z</time></trkpt><trkpt lat="43.2639133" lon="11.9750515"><ele>272.83333333333337</ele><time>2026-04-18T08:01:59.897Z</time></trkpt><trkpt lat="43.2637781" lon="11.9750921"><ele>273.6666666666667</ele><time>2026-04-18T08:02:01.897Z</time></trkpt><trkpt lat="43.263693" lon="11.9751174"><ele>274.5</ele><time>2026-04-18T08:02:02.897Z</time></trkpt><trkpt lat="43.2636157" lon="11.9751457"><ele>275.3333333333333</ele><time>2026-04-18T08:02:03.897Z</time></trkpt><trkpt lat="43.2635486" lon="11.9751652"><ele>276.16666666666663</ele><time>2026-04-18T08:02:04.896Z</time></trkpt><trkpt lat="43.2634845" lon="11.9751923"><ele>277.0</ele><time>2026-04-18T08:02:05.898Z</time></trkpt><trkpt lat="43.2634158" lon="11.975215"><ele>277.0</ele><time>2026-04-18T08:02:06.898Z</time></trkpt><trkpt lat="43.2633343" lon="11.9752447"><ele>277.0</ele><time>2026-04-18T08:02:07.897Z</time></trkpt><trkpt lat="43.263242" lon="11.9752656"><ele>277.0</ele><time>2026-04-18T08:02:08.897Z</time></trkpt><trkpt lat="43.2631499" lon="11.9752914"><ele>277.0</ele><time>2026-04-18T08:02:09.897Z</time></trkpt><trkpt lat="43.2630553" lon="11.9753176"><ele>277.0</ele><time>2026-04-18T08:02:10.897Z</time></trkpt><trkpt lat="43.2629576" lon="11.9753519"><ele>276.4</ele><time>2026-04-18T08:02:11.897Z</time></trkpt><trkpt lat="43.2628615" lon="11.9753873"><ele>275.79999999999995</ele><time>2026-04-18T08:02:12.897Z</time></trkpt><trkpt lat="43.2627677" lon="11.9754254"><ele>275.2</ele><time>2026-04-18T08:02:13.897Z</time></trkpt><trkpt lat="43.2626701" lon="11.9754767"><ele>274.59999999999997</ele><time>2026-04-18T08:02:14.896Z</time></trkpt><trkpt lat="43.2625773" lon="11.9755386"><ele>274.0</ele><time>2026-04-18T08:02:15.896Z</time></trkpt><trkpt lat="43.2624884" lon="11.9756041"><ele>274.0</ele><time>2026-04-18T08:02:16.897Z</time></trkpt><trkpt lat="43.262407" lon="11.9756673"><ele>274.0</ele><time>2026-04-18T08:02:17.897Z</time></trkpt><trkpt lat="43.262333" lon="11.9757245"><ele>274.0</ele><time>2026-04-18T08:02:18.898Z</time></trkpt><trkpt lat="43.2622622" lon="11.975774"><ele>274.0</ele><time>2026-04-18T08:02:19.897Z</time></trkpt><trkpt lat="43.2621954" lon="11.9758252"><ele>274.0</ele><time>2026-04-18T08:02:20.897Z</time></trkpt><trkpt lat="43.2621287" lon="11.9758772"><ele>274.0</ele><time>2026-04-18T08:02:21.897Z</time></trkpt><trkpt lat="43.2620698" lon="11.9759209"><ele>274.0</ele><time>2026-04-18T08:02:22.896Z</time></trkpt><trkpt lat="43.2620131" lon="11.9759591"><ele>274.0</ele><time>2026-04-18T08:02:23.896Z</time></trkpt><trkpt lat="43.261913" lon="11.9760238"><ele>274.0</ele><time>2026-04-18T08:02:25.896Z</time></trkpt><trkpt lat="43.2618026" lon="11.9760923"><ele>274.0</ele><time>2026-04-18T08:02:27.897Z</time></trkpt><trkpt lat="43.2617263" lon="11.9761134"><ele>274.0</ele><time>2026-04-18T08:02:28.896Z</time></trkpt><trkpt lat="43.2616367" lon="11.9761313"><ele>274.0</ele><time>2026-04-18T08:02:29.896Z</time></trkpt><trkpt lat="43.2615531" lon="11.976181"><ele>274.0</ele><time>2026-04-18T08:02:30.897Z</time></trkpt><trkpt lat="43.261461" lon="11.9762601"><ele>274.0</ele><time>2026-04-18T08:02:31.896Z</time></trkpt><trkpt lat="43.2613634" lon="11.9763384"><ele>274.0</ele><time>2026-04-18T08:02:32.897Z</time></trkpt><trkpt lat="43.2613092" lon="11.9763884"><ele>274.0</ele><time>2026-04-18T08:02:33.897Z</time></trkpt><trkpt lat="43.2612514" lon="11.9764349"><ele>274.0</ele><time>2026-04-18T08:02:35.896Z</time></trkpt><trkpt lat="43.2611546" lon="11.9765075"><ele>273.8</ele><time>2026-04-18T08:02:38.896Z</time></trkpt><trkpt lat="43.2610826" lon="11.9765802"><ele>273.59999999999997</ele><time>2026-04-18T08:02:39.897Z</time></trkpt><trkpt lat="43.2610097" lon="11.9766679"><ele>273.4</ele><time>2026-04-18T08:02:40.896Z</time></trkpt><trkpt lat="43.2609218" lon="11.9767842"><ele>273.2</ele><time>2026-04-18T08:02:41.896Z</time></trkpt><trkpt lat="43.2608252" lon="11.9769058"><ele>273.0</ele><time>2026-04-18T08:02:42.896Z</time></trkpt><trkpt lat="43.2607191" lon="11.9770438"><ele>270.6666666666667</ele><time>2026-04-18T08:02:43.896Z</time></trkpt><trkpt lat="43.26061" lon="11.9771963"><ele>268.33333333333337</ele><time>2026-04-18T08:02:44.897Z</time></trkpt><trkpt lat="43.2605053" lon="11.9773442"><ele>266.0</ele><time>2026-04-18T08:02:45.897Z</time></trkpt><trkpt lat="43.2604062" lon="11.9774884"><ele>265.75</ele><time>2026-04-18T08:02:46.897Z</time></trkpt><trkpt lat="43.2603145" lon="11.9776303"><ele>265.5</ele><time>2026-04-18T08:02:47.897Z</time></trkpt><trkpt lat="43.2602237" lon="11.9777665"><ele>265.25</ele><time>2026-04-18T08:02:48.896Z</time></trkpt><trkpt lat="43.2601402" lon="11.9778865"><ele>265.0</ele><time>2026-04-18T08:02:49.897Z</time></trkpt><trkpt lat="43.260064" lon="11.9780006"><ele>265.0</ele><time>2026-04-18T08:02:50.897Z</time></trkpt><trkpt lat="43.2599898" lon="11.9781069"><ele>265.0</ele><time>2026-04-18T08:02:51.897Z</time></trkpt><trkpt lat="43.2599242" lon="11.9782151"><ele>265.0</ele><time>2026-04-18T08:02:52.897Z</time></trkpt><trkpt lat="43.2598579" lon="11.9783089"><ele>265.0</ele><time>2026-04-18T08:02:53.897Z</time></trkpt><trkpt lat="43.2598004" lon="11.9783982"><ele>265.0</ele><time>2026-04-18T08:02:54.897Z</time></trkpt><trkpt lat="43.2597348" lon="11.9784724"><ele>263.8333333333333</ele><time>2026-04-18T08:02:55.898Z</time></trkpt><trkpt lat="43.2596596" lon="11.9785238"><ele>262.66666666666663</ele><time>2026-04-18T08:02:56.897Z</time></trkpt><trkpt lat="43.259588" lon="11.9785711"><ele>261.5</ele><time>2026-04-18T08:02:57.896Z</time></trkpt><trkpt lat="43.2595261" lon="11.9786454"><ele>260.3333333333333</ele><time>2026-04-18T08:02:58.896Z</time></trkpt><trkpt lat="43.2594798" lon="11.9787523"><ele>259.1666666666667</ele><time>2026-04-18T08:02:59.896Z</time></trkpt><trkpt lat="43.2594411" lon="11.978869"><ele>258.0</ele><time>2026-04-18T08:03:00.896Z</time></trkpt><trkpt lat="43.2593847" lon="11.9789829"><ele>258.0</ele><time>2026-04-18T08:03:01.897Z</time></trkpt><trkpt lat="43.2593102" lon="11.9790829"><ele>258.0</ele><time>2026-04-18T08:03:02.897Z</time></trkpt><trkpt lat="43.2592205" lon="11.979176"><ele>258.0</ele><time>2026-04-18T08:03:03.898Z</time></trkpt><trkpt lat="43.2591166" lon="11.9792664"><ele>258.0</ele><time>2026-04-18T08:03:04.897Z</time></trkpt><trkpt lat="43.2589977" lon="11.9793604"><ele>258.0</ele><time>2026-04-18T08:03:05.897Z</time></trkpt><trkpt lat="43.2588678" lon="11.9794529"><ele>258.0</ele><time>2026-04-18T08:03:06.898Z</time></trkpt><trkpt lat="43.2587403" lon="11.9795408"><ele>258.0</ele><time>2026-04-18T08:03:07.896Z</time></trkpt><trkpt lat="43.2586189" lon="11.97962"><ele>258.0</ele><time>2026-04-18T08:03:08.897Z</time></trkpt><trkpt lat="43.2585009" lon="11.9796997"><ele>258.0</ele><time>2026-04-18T08:03:09.897Z</time></trkpt><trkpt lat="43.2583875" lon="11.979774"><ele>258.0</ele><time>2026-04-18T08:03:10.897Z</time></trkpt><trkpt lat="43.2582788" lon="11.9798421"><ele>258.0</ele><time>2026-04-18T08:03:11.897Z</time></trkpt><trkpt lat="43.2581663" lon="11.9799128"><ele>258.0</ele><time>2026-04-18T08:03:12.897Z</time></trkpt><trkpt lat="43.2580498" lon="11.9799905"><ele>258.0</ele><time>2026-04-18T08:03:13.896Z</time></trkpt><trkpt lat="43.2579402" lon="11.9800591"><ele>258.0</ele><time>2026-04-18T08:03:14.896Z</time></trkpt><trkpt lat="43.2578471" lon="11.9801164"><ele>258.0</ele><time>2026-04-18T08:03:15.897Z</time></trkpt><trkpt lat="43.2577633" lon="11.9801673"><ele>258.0</ele><time>2026-04-18T08:03:16.896Z</time></trkpt><trkpt lat="43.2576915" lon="11.980206"><ele>258.0</ele><time>2026-04-18T08:03:17.896Z</time></trkpt><trkpt lat="43.2576225" lon="11.9802329"><ele>258.0</ele><time>2026-04-18T08:03:18.896Z</time></trkpt><trkpt lat="43.2575495" lon="11.9802343"><ele>258.0</ele><time>2026-04-18T08:03:19.897Z</time></trkpt><trkpt lat="43.257474" lon="11.9802339"><ele>258.0</ele><time>2026-04-18T08:03:20.898Z</time></trkpt><trkpt lat="43.2573986" lon="11.9802739"><ele>258.0</ele><time>2026-04-18T08:03:21.898Z</time></trkpt><trkpt lat="43.2573291" lon="11.9803526"><ele>258.0</ele><time>2026-04-18T08:03:22.897Z</time></trkpt><trkpt lat="43.2572639" lon="11.9804516"><ele>258.0</ele><time>2026-04-18T08:03:23.896Z</time></trkpt><trkpt lat="43.2571781" lon="11.9805362"><ele>257.5</ele><time>2026-04-18T08:03:24.898Z</time></trkpt><trkpt lat="43.2570685" lon="11.9806127"><ele>257.0</ele><time>2026-04-18T08:03:25.897Z</time></trkpt><trkpt lat="43.2569392" lon="11.980696"><ele>256.5</ele><time>2026-04-18T08:03:26.896Z</time></trkpt><trkpt lat="43.2568035" lon="11.9807842"><ele>256.0</ele><time>2026-04-18T08:03:27.897Z</time></trkpt><trkpt lat="43.2566718" lon="11.980873"><ele>256.0</ele><time>2026-04-18T08:03:28.897Z</time></trkpt><trkpt lat="43.2565442" lon="11.9809528"><ele>256.0</ele><time>2026-04-18T08:03:29.897Z</time></trkpt><trkpt lat="43.2564242" lon="11.9810253"><ele>256.0</ele><time>2026-04-18T08:03:30.897Z</time></trkpt><trkpt lat="43.2563151" lon="11.9810944"><ele>256.0</ele><time>2026-04-18T08:03:31.897Z</time></trkpt><trkpt lat="43.256212" lon="11.9811649"><ele>255.8</ele><time>2026-04-18T08:03:32.897Z</time></trkpt><trkpt lat="43.2561241" lon="11.981224"><ele>255.60000000000002</ele><time>2026-04-18T08:03:33.897Z</time></trkpt><trkpt lat="43.256042" lon="11.981272"><ele>255.4</ele><time>2026-04-18T08:03:34.897Z</time></trkpt><trkpt lat="43.2559599" lon="11.9813239"><ele>255.2</ele><time>2026-04-18T08:03:35.897Z</time></trkpt><trkpt lat="43.2558612" lon="11.9813857"><ele>255.0</ele><time>2026-04-18T08:03:36.897Z</time></trkpt><trkpt lat="43.2557492" lon="11.9814544"><ele>255.0</ele><time>2026-04-18T08:03:37.897Z</time></trkpt><trkpt lat="43.2556206" lon="11.9815325"><ele>255.0</ele><time>2026-04-18T08:03:38.897Z</time></trkpt><trkpt lat="43.2554994" lon="11.9816088"><ele>255.0</ele><time>2026-04-18T08:03:39.898Z</time></trkpt><trkpt lat="43.2553863" lon="11.9816827"><ele>255.0</ele><time>2026-04-18T08:03:40.897Z</time></trkpt><trkpt lat="43.2552741" lon="11.9817527"><ele>255.25</ele><time>2026-04-18T08:03:41.897Z</time></trkpt><trkpt lat="43.2551546" lon="11.9818298"><ele>255.5</ele><time>2026-04-18T08:03:42.897Z</time></trkpt><trkpt lat="43.2550305" lon="11.9819158"><ele>255.75</ele><time>2026-04-18T08:03:43.896Z</time></trkpt><trkpt lat="43.2549052" lon="11.9820023"><ele>256.0</ele><time>2026-04-18T08:03:44.896Z</time></trkpt><trkpt lat="43.2547672" lon="11.9820914"><ele>256.0</ele><time>2026-04-18T08:03:45.896Z</time></trkpt><trkpt lat="43.254637" lon="11.9821775"><ele>256.0</ele><time>2026-04-18T08:03:46.896Z</time></trkpt><trkpt lat="43.2545129" lon="11.9822644"><ele>256.0</ele><time>2026-04-18T08:03:47.896Z</time></trkpt><trkpt lat="43.2544009" lon="11.9823472"><ele>256.0</ele><time>2026-04-18T08:03:48.896Z</time></trkpt><trkpt lat="43.2542864" lon="11.9824345"><ele>256.0</ele><time>2026-04-18T08:03:49.896Z</time></trkpt><trkpt lat="43.2541744" lon="11.9825189"><ele>256.0</ele><time>2026-04-18T08:03:50.897Z</time></trkpt><trkpt lat="43.2540614" lon="11.9826097"><ele>256.0</ele><time>2026-04-18T08:03:51.897Z</time></trkpt><trkpt lat="43.253948" lon="11.9827008"><ele>256.0</ele><time>2026-04-18T08:03:52.897Z</time></trkpt><trkpt lat="43.2538315" lon="11.9827961"><ele>256.5</ele><time>2026-04-18T08:03:53.897Z</time></trkpt><trkpt lat="43.2537185" lon="11.9828958"><ele>257.0</ele><time>2026-04-18T08:03:54.897Z</time></trkpt><trkpt lat="43.2536" lon="11.9830045"><ele>257.5</ele><time>2026-04-18T08:03:55.897Z</time></trkpt><trkpt lat="43.2534779" lon="11.9831154"><ele>258.0</ele><time>2026-04-18T08:03:56.897Z</time></trkpt><trkpt lat="43.2533578" lon="11.9832245"><ele>258.0</ele><time>2026-04-18T08:03:57.897Z</time></trkpt><trkpt lat="43.2532499" lon="11.9833212"><ele>258.0</ele><time>2026-04-18T08:03:58.897Z</time></trkpt><trkpt lat="43.2531563" lon="11.9834086"><ele>258.0</ele><time>2026-04-18T08:03:59.898Z</time></trkpt><trkpt lat="43.2530912" lon="11.9834662"><ele>258.0</ele><time>2026-04-18T08:04:00.897Z</time></trkpt><trkpt lat="43.2530353" lon="11.9835185"><ele>258.0</ele><time>2026-04-18T08:04:01.898Z</time></trkpt><trkpt lat="43.2529432" lon="11.983592"><ele>258.0</ele><time>2026-04-18T08:04:03.897Z</time></trkpt><trkpt lat="43.252858" lon="11.9836779"><ele>258.0</ele><time>2026-04-18T08:04:05.897Z</time></trkpt><trkpt lat="43.2528028" lon="11.9837299"><ele>258.0</ele><time>2026-04-18T08:04:06.897Z</time></trkpt><trkpt lat="43.2527439" lon="11.9837855"><ele>258.0</ele><time>2026-04-18T08:04:07.897Z</time></trkpt><trkpt lat="43.2526775" lon="11.9838491"><ele>258.0</ele><time>2026-04-18T08:04:08.897Z</time></trkpt><trkpt lat="43.2526112" lon="11.9839121"><ele>258.0</ele><time>2026-04-18T08:04:09.897Z</time></trkpt><trkpt lat="43.2525374" lon="11.9839806"><ele>258.0</ele><time>2026-04-18T08:04:10.897Z</time></trkpt><trkpt lat="43.2524583" lon="11.9840557"><ele>258.0</ele><time>2026-04-18T08:04:11.897Z</time></trkpt><trkpt lat="43.252373" lon="11.9841373"><ele>258.0</ele><time>2026-04-18T08:04:12.896Z</time></trkpt><trkpt lat="43.2522787" lon="11.9842277"><ele>258.0</ele><time>2026-04-18T08:04:13.897Z</time></trkpt><trkpt lat="43.2521762" lon="11.9843261"><ele>258.0</ele><time>2026-04-18T08:04:14.897Z</time></trkpt><trkpt lat="43.2520684" lon="11.9844306"><ele>257.5</ele><time>2026-04-18T08:04:15.897Z</time></trkpt><trkpt lat="43.2519514" lon="11.9845368"><ele>257.0</ele><time>2026-04-18T08:04:16.897Z</time></trkpt><trkpt lat="43.2518277" lon="11.9846494"><ele>256.5</ele><time>2026-04-18T08:04:17.897Z</time></trkpt><trkpt lat="43.2517122" lon="11.9847605"><ele>256.0</ele><time>2026-04-18T08:04:18.897Z</time></trkpt><trkpt lat="43.2515901" lon="11.9848723"><ele>256.0</ele><time>2026-04-18T08:04:19.897Z</time></trkpt><trkpt lat="43.2514707" lon="11.9849869"><ele>256.0</ele><time>2026-04-18T08:04:20.897Z</time></trkpt><trkpt lat="43.2513425" lon="11.9851064"><ele>256.0</ele><time>2026-04-18T08:04:21.896Z</time></trkpt><trkpt lat="43.2512159" lon="11.9852287"><ele>255.75</ele><time>2026-04-18T08:04:22.897Z</time></trkpt><trkpt lat="43.2510878" lon="11.9853459"><ele>255.5</ele><time>2026-04-18T08:04:23.897Z</time></trkpt><trkpt lat="43.2509688" lon="11.9854584"><ele>255.25</ele><time>2026-04-18T08:04:24.897Z</time></trkpt><trkpt lat="43.2508528" lon="11.9855698"><ele>255.0</ele><time>2026-04-18T08:04:25.896Z</time></trkpt><trkpt lat="43.2507376" lon="11.98568"><ele>255.25</ele><time>2026-04-18T08:04:26.897Z</time></trkpt><trkpt lat="43.250621" lon="11.985789"><ele>255.5</ele><time>2026-04-18T08:04:27.896Z</time></trkpt><trkpt lat="43.250497" lon="11.9859046"><ele>255.75</ele><time>2026-04-18T08:04:28.896Z</time></trkpt><trkpt lat="43.2503735" lon="11.9860197"><ele>256.0</ele><time>2026-04-18T08:04:29.897Z</time></trkpt><trkpt lat="43.2502391" lon="11.9861456"><ele>256.0</ele><time>2026-04-18T08:04:30.897Z</time></trkpt><trkpt lat="43.2500909" lon="11.9862868"><ele>256.0</ele><time>2026-04-18T08:04:31.897Z</time></trkpt><trkpt lat="43.2499498" lon="11.986418"><ele>256.0</ele><time>2026-04-18T08:04:32.896Z</time></trkpt><trkpt lat="43.2498053" lon="11.9865516"><ele>255.0</ele><time>2026-04-18T08:04:33.898Z</time></trkpt><trkpt lat="43.2496572" lon="11.9866915"><ele>254.0</ele><time>2026-04-18T08:04:34.898Z</time></trkpt><trkpt lat="43.249513" lon="11.9868266"><ele>253.0</ele><time>2026-04-18T08:04:35.897Z</time></trkpt><trkpt lat="43.2493754" lon="11.9869553"><ele>253.0</ele><time>2026-04-18T08:04:36.897Z</time></trkpt><trkpt lat="43.2492288" lon="11.9870914"><ele>253.0</ele><time>2026-04-18T08:04:37.897Z</time></trkpt><trkpt lat="43.2490768" lon="11.9872302"><ele>253.0</ele><time>2026-04-18T08:04:38.897Z</time></trkpt><trkpt lat="43.2489226" lon="11.987374"><ele>253.33333333333331</ele><time>2026-04-18T08:04:39.897Z</time></trkpt><trkpt lat="43.248766" lon="11.987521"><ele>253.66666666666669</ele><time>2026-04-18T08:04:40.897Z</time></trkpt><trkpt lat="43.2486105" lon="11.9876681"><ele>254.0</ele><time>2026-04-18T08:04:41.897Z</time></trkpt><trkpt lat="43.2484559" lon="11.9878148"><ele>254.0</ele><time>2026-04-18T08:04:42.897Z</time></trkpt><trkpt lat="43.2483062" lon="11.9879566"><ele>254.0</ele><time>2026-04-18T08:04:43.897Z</time></trkpt><trkpt lat="43.2481617" lon="11.9880904"><ele>254.0</ele><time>2026-04-18T08:04:44.897Z</time></trkpt><trkpt lat="43.2480124" lon="11.9882296"><ele>254.33333333333334</ele><time>2026-04-18T08:04:45.897Z</time></trkpt><trkpt lat="43.2478634" lon="11.9883708"><ele>254.66666666666669</ele><time>2026-04-18T08:04:46.897Z</time></trkpt><trkpt lat="43.2477165" lon="11.9885063"><ele>255.0</ele><time>2026-04-18T08:04:47.897Z</time></trkpt><trkpt lat="43.2475779" lon="11.9886382"><ele>255.0</ele><time>2026-04-18T08:04:48.897Z</time></trkpt><trkpt lat="43.2474421" lon="11.9887614"><ele>255.0</ele><time>2026-04-18T08:04:49.897Z</time></trkpt><trkpt lat="43.2473078" lon="11.9888897"><ele>255.0</ele><time>2026-04-18T08:04:50.896Z</time></trkpt><trkpt lat="43.2471797" lon="11.9890109"><ele>255.0</ele><time>2026-04-18T08:04:51.896Z</time></trkpt><trkpt lat="43.2470592" lon="11.9891237"><ele>255.0</ele><time>2026-04-18T08:04:52.897Z</time></trkpt><trkpt lat="43.2469466" lon="11.9892281"><ele>255.0</ele><time>2026-04-18T08:04:53.897Z</time></trkpt><trkpt lat="43.2468468" lon="11.9893196"><ele>255.0</ele><time>2026-04-18T08:04:54.897Z</time></trkpt><trkpt lat="43.2467514" lon="11.989407"><ele>255.0</ele><time>2026-04-18T08:04:55.898Z</time></trkpt><trkpt lat="43.2466657" lon="11.9894905"><ele>255.0</ele><time>2026-04-18T08:04:56.896Z</time></trkpt><trkpt lat="43.2465716" lon="11.9895784"><ele>255.0</ele><time>2026-04-18T08:04:57.896Z</time></trkpt><trkpt lat="43.2464718" lon="11.9896696"><ele>255.0</ele><time>2026-04-18T08:04:58.897Z</time></trkpt><trkpt lat="43.2463529" lon="11.9897715"><ele>255.0</ele><time>2026-04-18T08:04:59.896Z</time></trkpt><trkpt lat="43.2462252" lon="11.9898873"><ele>255.0</ele><time>2026-04-18T08:05:00.897Z</time></trkpt><trkpt lat="43.2460899" lon="11.9900142"><ele>255.0</ele><time>2026-04-18T08:05:01.898Z</time></trkpt><trkpt lat="43.2459475" lon="11.9901583"><ele>255.0</ele><time>2026-04-18T08:05:02.898Z</time></trkpt><trkpt lat="43.245816" lon="11.9902843"><ele>255.0</ele><time>2026-04-18T08:05:03.897Z</time></trkpt><trkpt lat="43.2456908" lon="11.9904009"><ele>255.0</ele><time>2026-04-18T08:05:04.897Z</time></trkpt><trkpt lat="43.2455755" lon="11.9905092"><ele>255.25</ele><time>2026-04-18T08:05:05.898Z</time></trkpt><trkpt lat="43.2454622" lon="11.9906111"><ele>255.5</ele><time>2026-04-18T08:05:06.898Z</time></trkpt><trkpt lat="43.2453469" lon="11.9907144"><ele>255.75</ele><time>2026-04-18T08:05:07.897Z</time></trkpt><trkpt lat="43.245221" lon="11.99083"><ele>256.0</ele><time>2026-04-18T08:05:08.897Z</time></trkpt><trkpt lat="43.2451003" lon="11.9909466"><ele>256.0</ele><time>2026-04-18T08:05:09.897Z</time></trkpt><trkpt lat="43.2449807" lon="11.9910639"><ele>256.0</ele><time>2026-04-18T08:05:10.896Z</time></trkpt><trkpt lat="43.2448586" lon="11.9911785"><ele>256.0</ele><time>2026-04-18T08:05:11.897Z</time></trkpt><trkpt lat="43.2447331" lon="11.9912969"><ele>256.0</ele><time>2026-04-18T08:05:12.896Z</time></trkpt><trkpt lat="43.244608" lon="11.9914168"><ele>256.5</ele><time>2026-04-18T08:05:13.897Z</time></trkpt><trkpt lat="43.2444827" lon="11.9915333"><ele>257.0</ele><time>2026-04-18T08:05:14.897Z</time></trkpt><trkpt lat="43.2443668" lon="11.9916432"><ele>257.5</ele><time>2026-04-18T08:05:15.897Z</time></trkpt><trkpt lat="43.2442598" lon="11.9917433"><ele>258.0</ele><time>2026-04-18T08:05:16.896Z</time></trkpt><trkpt lat="43.2441573" lon="11.9918371"><ele>258.0</ele><time>2026-04-18T08:05:17.897Z</time></trkpt><trkpt lat="43.2440622" lon="11.9919281"><ele>258.0</ele><time>2026-04-18T08:05:18.897Z</time></trkpt><trkpt lat="43.2439727" lon="11.9920089"><ele>258.0</ele><time>2026-04-18T08:05:19.897Z</time></trkpt><trkpt lat="43.2438913" lon="11.9920836"><ele>258.0</ele><time>2026-04-18T08:05:20.898Z</time></trkpt><trkpt lat="43.2438084" lon="11.9921612"><ele>258.0</ele><time>2026-04-18T08:05:21.898Z</time></trkpt><trkpt lat="43.2437336" lon="11.9922284"><ele>258.0</ele><time>2026-04-18T08:05:22.897Z</time></trkpt><trkpt lat="43.2436598" lon="11.9923027"><ele>258.0</ele><time>2026-04-18T08:05:23.897Z</time></trkpt><trkpt lat="43.2435901" lon="11.9923703"><ele>258.0</ele><time>2026-04-18T08:05:24.896Z</time></trkpt><trkpt lat="43.2435293" lon="11.9924345"><ele>258.0</ele><time>2026-04-18T08:05:25.897Z</time></trkpt><trkpt lat="43.2434728" lon="11.9924889"><ele>258.0</ele><time>2026-04-18T08:05:26.897Z</time></trkpt><trkpt lat="43.2434148" lon="11.9925418"><ele>258.0</ele><time>2026-04-18T08:05:27.897Z</time></trkpt><trkpt lat="43.2433544" lon="11.9925923"><ele>257.99999999999994</ele><time>2026-04-18T08:05:28.897Z</time></trkpt><trkpt lat="43.2432861" lon="11.9926428"><ele>258.0</ele><time>2026-04-18T08:05:29.897Z</time></trkpt><trkpt lat="43.2432141" lon="11.9926823"><ele>258.0</ele><time>2026-04-18T08:05:30.896Z</time></trkpt><trkpt lat="43.2431434" lon="11.9927052"><ele>258.0</ele><time>2026-04-18T08:05:31.896Z</time></trkpt><trkpt lat="43.2430748" lon="11.9927282"><ele>258.0</ele><time>2026-04-18T08:05:32.896Z</time></trkpt><trkpt lat="43.2430129" lon="11.9927611"><ele>257.99999999999994</ele><time>2026-04-18T08:05:33.896Z</time></trkpt><trkpt lat="43.2429603" lon="11.9928171"><ele>258.0</ele><time>2026-04-18T08:05:34.896Z</time></trkpt><trkpt lat="43.2429183" lon="11.9928979"><ele>258.0</ele><time>2026-04-18T08:05:35.896Z</time></trkpt><trkpt lat="43.2428706" lon="11.992991"><ele>258.0</ele><time>2026-04-18T08:05:36.896Z</time></trkpt><trkpt lat="43.2428068" lon="11.9930825"><ele>258.0</ele><time>2026-04-18T08:05:37.895Z</time></trkpt><trkpt lat="43.2427234" lon="11.9931741"><ele>258.0</ele><time>2026-04-18T08:05:38.896Z</time></trkpt><trkpt lat="43.2426269" lon="11.993272"><ele>258.0</ele><time>2026-04-18T08:05:39.896Z</time></trkpt><trkpt lat="43.2425208" lon="11.9933729"><ele>258.0</ele><time>2026-04-18T08:05:40.896Z</time></trkpt><trkpt lat="43.2424117" lon="11.9934732"><ele>258.0</ele><time>2026-04-18T08:05:41.896Z</time></trkpt><trkpt lat="43.2423089" lon="11.9935734"><ele>258.0</ele><time>2026-04-18T08:05:42.896Z</time></trkpt><trkpt lat="43.2422089" lon="11.9936706"><ele>258.0</ele><time>2026-04-18T08:05:43.895Z</time></trkpt><trkpt lat="43.2421024" lon="11.9937696"><ele>258.25</ele><time>2026-04-18T08:05:44.895Z</time></trkpt><trkpt lat="43.2419928" lon="11.993865"><ele>258.5</ele><time>2026-04-18T08:05:45.896Z</time></trkpt><trkpt lat="43.2418858" lon="11.9939668"><ele>258.75</ele><time>2026-04-18T08:05:46.896Z</time></trkpt><trkpt lat="43.2417814" lon="11.9940676"><ele>259.0</ele><time>2026-04-18T08:05:47.896Z</time></trkpt><trkpt lat="43.2416834" lon="11.994158"><ele>259.0</ele><time>2026-04-18T08:05:48.896Z</time></trkpt><trkpt lat="43.2415981" lon="11.9942341"><ele>259.0</ele><time>2026-04-18T08:05:49.897Z</time></trkpt><trkpt lat="43.2415118" lon="11.9943165"><ele>259.0</ele><time>2026-04-18T08:05:50.895Z</time></trkpt><trkpt lat="43.2414252" lon="11.9943949"><ele>259.0</ele><time>2026-04-18T08:05:51.896Z</time></trkpt><trkpt lat="43.2413363" lon="11.9944832"><ele>259.0</ele><time>2026-04-18T08:05:52.896Z</time></trkpt><trkpt lat="43.2412417" lon="11.994575"><ele>259.0</ele><time>2026-04-18T08:05:53.895Z</time></trkpt><trkpt lat="43.2411444" lon="11.9946659"><ele>259.0</ele><time>2026-04-18T08:05:54.896Z</time></trkpt><trkpt lat="43.2410411" lon="11.9947613"><ele>259.0</ele><time>2026-04-18T08:05:55.896Z</time></trkpt><trkpt lat="43.2409271" lon="11.9948655"><ele>259.0</ele><time>2026-04-18T08:05:56.896Z</time></trkpt><trkpt lat="43.2408149" lon="11.9949715"><ele>258.75</ele><time>2026-04-18T08:05:57.895Z</time></trkpt><trkpt lat="43.240695" lon="11.9950827"><ele>258.5</ele><time>2026-04-18T08:05:58.895Z</time></trkpt><trkpt lat="43.2405683" lon="11.9951992"><ele>258.25</ele><time>2026-04-18T08:05:59.896Z</time></trkpt><trkpt lat="43.2404507" lon="11.9953121"><ele>258.0</ele><time>2026-04-18T08:06:00.895Z</time></trkpt><trkpt lat="43.2403434" lon="11.995411"><ele>258.5</ele><time>2026-04-18T08:06:01.896Z</time></trkpt><trkpt lat="43.2402416" lon="11.9955078"><ele>259.0</ele><time>2026-04-18T08:06:02.896Z</time></trkpt><trkpt lat="43.2401377" lon="11.9956058"><ele>259.5</ele><time>2026-04-18T08:06:03.896Z</time></trkpt><trkpt lat="43.2400403" lon="11.9956992"><ele>260.0</ele><time>2026-04-18T08:06:04.896Z</time></trkpt><trkpt lat="43.2399363" lon="11.9958008"><ele>260.0</ele><time>2026-04-18T08:06:05.896Z</time></trkpt><trkpt lat="43.2398315" lon="11.9958922"><ele>260.0</ele><time>2026-04-18T08:06:06.897Z</time></trkpt><trkpt lat="43.2397264" lon="11.9959933"><ele>260.0</ele><time>2026-04-18T08:06:07.895Z</time></trkpt><trkpt lat="43.2396174" lon="11.9960967"><ele>260.0</ele><time>2026-04-18T08:06:08.896Z</time></trkpt><trkpt lat="43.2395081" lon="11.9962026"><ele>260.0</ele><time>2026-04-18T08:06:09.897Z</time></trkpt><trkpt lat="43.2394" lon="11.9963067"><ele>260.0</ele><time>2026-04-18T08:06:10.896Z</time></trkpt><trkpt lat="43.2392872" lon="11.9964112"><ele>260.0</ele><time>2026-04-18T08:06:11.896Z</time></trkpt><trkpt lat="43.239172" lon="11.9965175"><ele>260.0</ele><time>2026-04-18T08:06:12.896Z</time></trkpt><trkpt lat="43.2390519" lon="11.9966234"><ele>260.33333333333337</ele><time>2026-04-18T08:06:13.896Z</time></trkpt><trkpt lat="43.2389293" lon="11.9967402"><ele>260.6666666666667</ele><time>2026-04-18T08:06:14.896Z</time></trkpt><trkpt lat="43.2388042" lon="11.9968572"><ele>261.0</ele><time>2026-04-18T08:06:15.896Z</time></trkpt><trkpt lat="43.2386776" lon="11.996978"><ele>261.0</ele><time>2026-04-18T08:06:16.897Z</time></trkpt><trkpt lat="43.2385633" lon="11.9970883"><ele>261.0</ele><time>2026-04-18T08:06:17.896Z</time></trkpt><trkpt lat="43.2384688" lon="11.9971809"><ele>261.0</ele><time>2026-04-18T08:06:18.896Z</time></trkpt><trkpt lat="43.23838" lon="11.9972642"><ele>261.0</ele><time>2026-04-18T08:06:19.896Z</time></trkpt><trkpt lat="43.2382916" lon="11.9973454"><ele>261.0</ele><time>2026-04-18T08:06:20.896Z</time></trkpt><trkpt lat="43.2382031" lon="11.9974299"><ele>261.0</ele><time>2026-04-18T08:06:21.896Z</time></trkpt><trkpt lat="43.238114" lon="11.9975135"><ele>261.0</ele><time>2026-04-18T08:06:22.895Z</time></trkpt><trkpt lat="43.2380267" lon="11.9975963"><ele>261.0</ele><time>2026-04-18T08:06:23.895Z</time></trkpt><trkpt lat="43.2379416" lon="11.9976752"><ele>261.0</ele><time>2026-04-18T08:06:24.895Z</time></trkpt><trkpt lat="43.2378613" lon="11.9977477"><ele>260.8</ele><time>2026-04-18T08:06:25.897Z</time></trkpt><trkpt lat="43.2377893" lon="11.997815"><ele>260.6</ele><time>2026-04-18T08:06:26.895Z</time></trkpt><trkpt lat="43.2377152" lon="11.9978824"><ele>260.4</ele><time>2026-04-18T08:06:27.896Z</time></trkpt><trkpt lat="43.2376373" lon="11.9979538"><ele>260.2</ele><time>2026-04-18T08:06:28.896Z</time></trkpt><trkpt lat="43.2375589" lon="11.9980318"><ele>260.0</ele><time>2026-04-18T08:06:29.897Z</time></trkpt><trkpt lat="43.237474" lon="11.9981084"><ele>260.0</ele><time>2026-04-18T08:06:30.895Z</time></trkpt><trkpt lat="43.2373907" lon="11.9981816"><ele>260.0</ele><time>2026-04-18T08:06:31.896Z</time></trkpt><trkpt lat="43.2373097" lon="11.9982579"><ele>260.0</ele><time>2026-04-18T08:06:32.896Z</time></trkpt><trkpt lat="43.2372319" lon="11.9983294"><ele>260.0</ele><time>2026-04-18T08:06:33.897Z</time></trkpt><trkpt lat="43.2371626" lon="11.9983945"><ele>260.0</ele><time>2026-04-18T08:06:34.896Z</time></trkpt><trkpt lat="43.2370964" lon="11.9984556"><ele>260.6</ele><time>2026-04-18T08:06:35.896Z</time></trkpt><trkpt lat="43.2370321" lon="11.9985204"><ele>261.2</ele><time>2026-04-18T08:06:36.896Z</time></trkpt><trkpt lat="43.236962" lon="11.9985869"><ele>261.8</ele><time>2026-04-18T08:06:37.895Z</time></trkpt><trkpt lat="43.2368807" lon="11.9986587"><ele>262.4</ele><time>2026-04-18T08:06:38.895Z</time></trkpt><trkpt lat="43.2367969" lon="11.9987369"><ele>263.0</ele><time>2026-04-18T08:06:39.896Z</time></trkpt><trkpt lat="43.2367125" lon="11.9988168"><ele>263.0</ele><time>2026-04-18T08:06:40.895Z</time></trkpt><trkpt lat="43.2366387" lon="11.9988814"><ele>263.0</ele><time>2026-04-18T08:06:41.896Z</time></trkpt><trkpt lat="43.2365637" lon="11.9989474"><ele>263.0</ele><time>2026-04-18T08:06:42.896Z</time></trkpt><trkpt lat="43.2364841" lon="11.999018"><ele>263.0</ele><time>2026-04-18T08:06:43.896Z</time></trkpt><trkpt lat="43.2364095" lon="11.9990876"><ele>263.0</ele><time>2026-04-18T08:06:44.896Z</time></trkpt><trkpt lat="43.2363234" lon="11.9991831"><ele>263.33333333333337</ele><time>2026-04-18T08:06:45.896Z</time></trkpt><trkpt lat="43.2362102" lon="11.9993041"><ele>263.6666666666667</ele><time>2026-04-18T08:06:46.896Z</time></trkpt><trkpt lat="43.2360717" lon="11.9994397"><ele>264.0</ele><time>2026-04-18T08:06:47.896Z</time></trkpt><trkpt lat="43.2359113" lon="11.999587"><ele>264.0</ele><time>2026-04-18T08:06:48.896Z</time></trkpt><trkpt lat="43.2357429" lon="11.9997379"><ele>264.0</ele><time>2026-04-18T08:06:49.896Z</time></trkpt><trkpt lat="43.2355822" lon="11.9998831"><ele>264.0</ele><time>2026-04-18T08:06:50.896Z</time></trkpt><trkpt lat="43.2354121" lon="12.0000384"><ele>264.0</ele><time>2026-04-18T08:06:51.896Z</time></trkpt><trkpt lat="43.2352509" lon="12.0001896"><ele>264.0</ele><time>2026-04-18T08:06:52.897Z</time></trkpt><trkpt lat="43.2351003" lon="12.00033"><ele>264.0</ele><time>2026-04-18T08:06:53.897Z</time></trkpt><trkpt lat="43.2349544" lon="12.0004673"><ele>264.0</ele><time>2026-04-18T08:06:54.896Z</time></trkpt><trkpt lat="43.2348071" lon="12.0006077"><ele>264.0</ele><time>2026-04-18T08:06:55.896Z</time></trkpt><trkpt lat="43.2346587" lon="12.0007508"><ele>264.0</ele><time>2026-04-18T08:06:56.897Z</time></trkpt><trkpt lat="43.2345125" lon="12.0008887"><ele>265.3333333333333</ele><time>2026-04-18T08:06:57.896Z</time></trkpt><trkpt lat="43.2343636" lon="12.0010268"><ele>266.66666666666663</ele><time>2026-04-18T08:06:58.896Z</time></trkpt><trkpt lat="43.2342203" lon="12.0011625"><ele>268.0</ele><time>2026-04-18T08:06:59.895Z</time></trkpt><trkpt lat="43.2340822" lon="12.0012916"><ele>268.66666666666663</ele><time>2026-04-18T08:07:00.896Z</time></trkpt><trkpt lat="43.2339416" lon="12.0014231"><ele>269.3333333333333</ele><time>2026-04-18T08:07:01.896Z</time></trkpt><trkpt lat="43.233799" lon="12.001557"><ele>270.0</ele><time>2026-04-18T08:07:02.897Z</time></trkpt><trkpt lat="43.2336518" lon="12.0016923"><ele>271.6666666666667</ele><time>2026-04-18T08:07:03.896Z</time></trkpt><trkpt lat="43.233506" lon="12.0018303"><ele>273.33333333333337</ele><time>2026-04-18T08:07:04.896Z</time></trkpt><trkpt lat="43.233361" lon="12.0019638"><ele>275.0</ele><time>2026-04-18T08:07:05.896Z</time></trkpt><trkpt lat="43.2332184" lon="12.0020979"><ele>274.0</ele><time>2026-04-18T08:07:06.895Z</time></trkpt><trkpt lat="43.2330712" lon="12.0022344"><ele>273.0</ele><time>2026-04-18T08:07:07.895Z</time></trkpt><trkpt lat="43.232928" lon="12.0023636"><ele>272.0</ele><time>2026-04-18T08:07:08.896Z</time></trkpt><trkpt lat="43.2327838" lon="12.0025011"><ele>274.0</ele><time>2026-04-18T08:07:09.895Z</time></trkpt><trkpt lat="43.2326372" lon="12.0026426"><ele>276.0</ele><time>2026-04-18T08:07:10.896Z</time></trkpt><trkpt lat="43.232489" lon="12.00278"><ele>278.0</ele><time>2026-04-18T08:07:11.896Z</time></trkpt><trkpt lat="43.2323469" lon="12.0029124"><ele>277.33333333333337</ele><time>2026-04-18T08:07:12.896Z</time></trkpt><trkpt lat="43.2322094" lon="12.0030395"><ele>276.6666666666667</ele><time>2026-04-18T08:07:13.896Z</time></trkpt><trkpt lat="43.2320656" lon="12.0031725"><ele>276.0</ele><time>2026-04-18T08:07:14.896Z</time></trkpt><trkpt lat="43.2319167" lon="12.0033115"><ele>277.0</ele><time>2026-04-18T08:07:15.896Z</time></trkpt><trkpt lat="43.2317667" lon="12.0034449"><ele>278.0</ele><time>2026-04-18T08:07:16.896Z</time></trkpt><trkpt lat="43.2316215" lon="12.0035579"><ele>279.0</ele><time>2026-04-18T08:07:17.897Z</time></trkpt><trkpt lat="43.2314696" lon="12.0036603"><ele>279.0</ele><time>2026-04-18T08:07:18.896Z</time></trkpt><trkpt lat="43.2313023" lon="12.0037478"><ele>279.0</ele><time>2026-04-18T08:07:19.896Z</time></trkpt><trkpt lat="43.2311297" lon="12.003815"><ele>279.0</ele><time>2026-04-18T08:07:20.897Z</time></trkpt><trkpt lat="43.2309474" lon="12.0038652"><ele>279.0</ele><time>2026-04-18T08:07:21.895Z</time></trkpt><trkpt lat="43.2307574" lon="12.0039099"><ele>279.0</ele><time>2026-04-18T08:07:22.896Z</time></trkpt><trkpt lat="43.2305695" lon="12.0039527"><ele>279.0</ele><time>2026-04-18T08:07:23.895Z</time></trkpt><trkpt lat="43.2303975" lon="12.0039905"><ele>279.3333333333333</ele><time>2026-04-18T08:07:24.896Z</time></trkpt><trkpt lat="43.2302398" lon="12.0040262"><ele>279.66666666666663</ele><time>2026-04-18T08:07:25.896Z</time></trkpt><trkpt lat="43.2300933" lon="12.0040615"><ele>280.0</ele><time>2026-04-18T08:07:26.896Z</time></trkpt><trkpt lat="43.2299517" lon="12.004093"><ele>280.0</ele><time>2026-04-18T08:07:27.895Z</time></trkpt><trkpt lat="43.2298148" lon="12.0041282"><ele>280.0</ele><time>2026-04-18T08:07:28.895Z</time></trkpt><trkpt lat="43.2296734" lon="12.00416"><ele>280.0</ele><time>2026-04-18T08:07:29.896Z</time></trkpt><trkpt lat="43.2295308" lon="12.0041932"><ele>280.0</ele><time>2026-04-18T08:07:30.896Z</time></trkpt><trkpt lat="43.2294003" lon="12.0042261"><ele>280.5</ele><time>2026-04-18T08:07:31.896Z</time></trkpt><trkpt lat="43.2292689" lon="12.0042604"><ele>281.0</ele><time>2026-04-18T08:07:32.896Z</time></trkpt><trkpt lat="43.229129" lon="12.0042969"><ele>281.5</ele><time>2026-04-18T08:07:33.897Z</time></trkpt><trkpt lat="43.2289787" lon="12.0043375"><ele>282.0</ele><time>2026-04-18T08:07:34.897Z</time></trkpt><trkpt lat="43.2288199" lon="12.0043793"><ele>282.0</ele><time>2026-04-18T08:07:35.896Z</time></trkpt><trkpt lat="43.2286538" lon="12.0044113"><ele>282.0</ele><time>2026-04-18T08:07:36.897Z</time></trkpt><trkpt lat="43.2284792" lon="12.004436"><ele>282.0</ele><time>2026-04-18T08:07:37.896Z</time></trkpt><trkpt lat="43.2282964" lon="12.0044476"><ele>282.3333333333333</ele><time>2026-04-18T08:07:38.896Z</time></trkpt><trkpt lat="43.2281215" lon="12.0044462"><ele>282.66666666666663</ele><time>2026-04-18T08:07:39.896Z</time></trkpt><trkpt lat="43.2279541" lon="12.004448"><ele>283.0</ele><time>2026-04-18T08:07:40.896Z</time></trkpt><trkpt lat="43.2277868" lon="12.0044474"><ele>283.0</ele><time>2026-04-18T08:07:41.896Z</time></trkpt><trkpt lat="43.2276169" lon="12.0044463"><ele>283.0</ele><time>2026-04-18T08:07:42.896Z</time></trkpt><trkpt lat="43.2274462" lon="12.0044439"><ele>283.0</ele><time>2026-04-18T08:07:43.896Z</time></trkpt><trkpt lat="43.2272735" lon="12.0044404"><ele>283.3333333333333</ele><time>2026-04-18T08:07:44.896Z</time></trkpt><trkpt lat="43.2270978" lon="12.0044383"><ele>283.6666666666667</ele><time>2026-04-18T08:07:45.896Z</time></trkpt><trkpt lat="43.2269215" lon="12.0044395"><ele>284.0</ele><time>2026-04-18T08:07:46.897Z</time></trkpt><trkpt lat="43.2267467" lon="12.0044534"><ele>284.0</ele><time>2026-04-18T08:07:47.896Z</time></trkpt><trkpt lat="43.2265837" lon="12.0044729"><ele>284.0</ele><time>2026-04-18T08:07:48.896Z</time></trkpt><trkpt lat="43.2264325" lon="12.0044947"><ele>284.0</ele><time>2026-04-18T08:07:49.896Z</time></trkpt><trkpt lat="43.2262811" lon="12.0045248"><ele>283.75</ele><time>2026-04-18T08:07:50.895Z</time></trkpt><trkpt lat="43.2261243" lon="12.0045554"><ele>283.5</ele><time>2026-04-18T08:07:51.895Z</time></trkpt><trkpt lat="43.2259763" lon="12.0045801"><ele>283.25</ele><time>2026-04-18T08:07:52.896Z</time></trkpt><trkpt lat="43.2258375" lon="12.0046136"><ele>283.0</ele><time>2026-04-18T08:07:53.896Z</time></trkpt><trkpt lat="43.2256995" lon="12.0046403"><ele>283.25</ele><time>2026-04-18T08:07:54.895Z</time></trkpt><trkpt lat="43.2255566" lon="12.0046694"><ele>283.5</ele><time>2026-04-18T08:07:55.896Z</time></trkpt><trkpt lat="43.2254158" lon="12.0047013"><ele>283.75</ele><time>2026-04-18T08:07:56.895Z</time></trkpt><trkpt lat="43.2252661" lon="12.0047312"><ele>284.0</ele><time>2026-04-18T08:07:57.897Z</time></trkpt><trkpt lat="43.2251144" lon="12.0047587"><ele>284.0</ele><time>2026-04-18T08:07:58.896Z</time></trkpt><trkpt lat="43.2249589" lon="12.0047886"><ele>284.0</ele><time>2026-04-18T08:07:59.895Z</time></trkpt><trkpt lat="43.2247992" lon="12.0048186"><ele>284.0</ele><time>2026-04-18T08:08:00.896Z</time></trkpt><trkpt lat="43.2246342" lon="12.0048463"><ele>284.0</ele><time>2026-04-18T08:08:01.896Z</time></trkpt><trkpt lat="43.2244697" lon="12.0048714"><ele>284.0</ele><time>2026-04-18T08:08:02.896Z</time></trkpt><trkpt lat="43.2243175" lon="12.0048977"><ele>284.0</ele><time>2026-04-18T08:08:03.896Z</time></trkpt><trkpt lat="43.2241751" lon="12.0049407"><ele>284.0</ele><time>2026-04-18T08:08:04.896Z</time></trkpt><trkpt lat="43.2240321" lon="12.004994"><ele>284.0</ele><time>2026-04-18T08:08:05.897Z</time></trkpt><trkpt lat="43.2238891" lon="12.0050576"><ele>284.0</ele><time>2026-04-18T08:08:06.896Z</time></trkpt><trkpt lat="43.2237559" lon="12.0051236"><ele>284.0</ele><time>2026-04-18T08:08:07.897Z</time></trkpt><trkpt lat="43.2236295" lon="12.0051913"><ele>284.25</ele><time>2026-04-18T08:08:08.897Z</time></trkpt><trkpt lat="43.2235019" lon="12.0052674"><ele>284.5</ele><time>2026-04-18T08:08:09.896Z</time></trkpt><trkpt lat="43.2233728" lon="12.0053606"><ele>284.75</ele><time>2026-04-18T08:08:10.896Z</time></trkpt><trkpt lat="43.2232399" lon="12.0054668"><ele>285.0</ele><time>2026-04-18T08:08:11.896Z</time></trkpt><trkpt lat="43.2231025" lon="12.0055813"><ele>285.3333333333333</ele><time>2026-04-18T08:08:12.896Z</time></trkpt><trkpt lat="43.2229637" lon="12.005693"><ele>285.66666666666663</ele><time>2026-04-18T08:08:13.896Z</time></trkpt><trkpt lat="43.2228171" lon="12.00579"><ele>286.0</ele><time>2026-04-18T08:08:14.896Z</time></trkpt><trkpt lat="43.2226631" lon="12.0058699"><ele>286.0</ele><time>2026-04-18T08:08:15.896Z</time></trkpt><trkpt lat="43.2225053" lon="12.0059503"><ele>286.0</ele><time>2026-04-18T08:08:16.896Z</time></trkpt><trkpt lat="43.2223548" lon="12.0060305"><ele>286.0</ele><time>2026-04-18T08:08:17.896Z</time></trkpt><trkpt lat="43.2222079" lon="12.0061206"><ele>284.66666666666663</ele><time>2026-04-18T08:08:18.896Z</time></trkpt><trkpt lat="43.2220783" lon="12.0062157"><ele>283.3333333333333</ele><time>2026-04-18T08:08:19.896Z</time></trkpt><trkpt lat="43.2219435" lon="12.0063205"><ele>282.0</ele><time>2026-04-18T08:08:20.895Z</time></trkpt><trkpt lat="43.22181" lon="12.0064404"><ele>282.0</ele><time>2026-04-18T08:08:21.895Z</time></trkpt><trkpt lat="43.2216863" lon="12.0065486"><ele>282.0</ele><time>2026-04-18T08:08:22.895Z</time></trkpt><trkpt lat="43.2215604" lon="12.0066617"><ele>282.0</ele><time>2026-04-18T08:08:23.897Z</time></trkpt><trkpt lat="43.2214288" lon="12.0067827"><ele>280.3333333333333</ele><time>2026-04-18T08:08:24.896Z</time></trkpt><trkpt lat="43.2212982" lon="12.0069009"><ele>278.66666666666663</ele><time>2026-04-18T08:08:25.896Z</time></trkpt><trkpt lat="43.2211683" lon="12.0070113"><ele>277.0</ele><time>2026-04-18T08:08:26.897Z</time></trkpt><trkpt lat="43.2210375" lon="12.0071313"><ele>277.0</ele><time>2026-04-18T08:08:27.896Z</time></trkpt><trkpt lat="43.2208992" lon="12.0072513"><ele>277.0</ele><time>2026-04-18T08:08:28.896Z</time></trkpt><trkpt lat="43.2207627" lon="12.0073762"><ele>277.0</ele><time>2026-04-18T08:08:29.896Z</time></trkpt><trkpt lat="43.2206273" lon="12.0074954"><ele>277.3333333333333</ele><time>2026-04-18T08:08:30.896Z</time></trkpt><trkpt lat="43.2204892" lon="12.0076164"><ele>277.6666666666667</ele><time>2026-04-18T08:08:31.896Z</time></trkpt><trkpt lat="43.2203478" lon="12.0077322"><ele>278.0</ele><time>2026-04-18T08:08:32.896Z</time></trkpt><trkpt lat="43.2202024" lon="12.0078353"><ele>278.0</ele><time>2026-04-18T08:08:33.896Z</time></trkpt><trkpt lat="43.2200592" lon="12.0079226"><ele>278.0</ele><time>2026-04-18T08:08:34.896Z</time></trkpt><trkpt lat="43.2199196" lon="12.0079969"><ele>278.0</ele><time>2026-04-18T08:08:35.897Z</time></trkpt><trkpt lat="43.2197898" lon="12.0080604"><ele>278.0</ele><time>2026-04-18T08:08:36.897Z</time></trkpt><trkpt lat="43.2196758" lon="12.0081243"><ele>278.0</ele><time>2026-04-18T08:08:37.897Z</time></trkpt><trkpt lat="43.2195647" lon="12.0082159"><ele>278.0</ele><time>2026-04-18T08:08:38.896Z</time></trkpt><trkpt lat="43.2194596" lon="12.0083475"><ele>278.0</ele><time>2026-04-18T08:08:39.897Z</time></trkpt><trkpt lat="43.2193597" lon="12.0085053"><ele>278.0</ele><time>2026-04-18T08:08:40.896Z</time></trkpt><trkpt lat="43.2192718" lon="12.0086883"><ele>278.0</ele><time>2026-04-18T08:08:41.897Z</time></trkpt><trkpt lat="43.2191983" lon="12.0089059"><ele>278.0</ele><time>2026-04-18T08:08:42.895Z</time></trkpt><trkpt lat="43.2191381" lon="12.0091462"><ele>278.0</ele><time>2026-04-18T08:08:43.895Z</time></trkpt><trkpt lat="43.2190827" lon="12.0094071"><ele>278.33333333333337</ele><time>2026-04-18T08:08:44.895Z</time></trkpt><trkpt lat="43.2190329" lon="12.0096826"><ele>278.6666666666667</ele><time>2026-04-18T08:08:45.895Z</time></trkpt><trkpt lat="43.2189916" lon="12.0099758"><ele>279.0</ele><time>2026-04-18T08:08:46.895Z</time></trkpt><trkpt lat="43.2189666" lon="12.0102638"><ele>279.0</ele><time>2026-04-18T08:08:47.896Z</time></trkpt><trkpt lat="43.2189431" lon="12.0105271"><ele>279.0</ele><time>2026-04-18T08:08:48.896Z</time></trkpt><trkpt lat="43.2189104" lon="12.0107746"><ele>279.0</ele><time>2026-04-18T08:08:49.896Z</time></trkpt><trkpt lat="43.2188542" lon="12.0110298"><ele>280.0</ele><time>2026-04-18T08:08:50.896Z</time></trkpt><trkpt lat="43.218774" lon="12.0112962"><ele>281.0</ele><time>2026-04-18T08:08:51.896Z</time></trkpt><trkpt lat="43.2186849" lon="12.0115662"><ele>282.0</ele><time>2026-04-18T08:08:52.896Z</time></trkpt><trkpt lat="43.2185925" lon="12.0118422"><ele>282.0</ele><time>2026-04-18T08:08:53.895Z</time></trkpt><trkpt lat="43.2185007" lon="12.012102"><ele>282.0</ele><time>2026-04-18T08:08:54.895Z</time></trkpt><trkpt lat="43.2184113" lon="12.0123335"><ele>282.0</ele><time>2026-04-18T08:08:55.895Z</time></trkpt><trkpt lat="43.2183129" lon="12.0125406"><ele>281.6666666666667</ele><time>2026-04-18T08:08:56.895Z</time></trkpt><trkpt lat="43.2181978" lon="12.0127321"><ele>281.33333333333337</ele><time>2026-04-18T08:08:57.895Z</time></trkpt><trkpt lat="43.2180606" lon="12.0129151"><ele>281.0</ele><time>2026-04-18T08:08:58.895Z</time></trkpt><trkpt lat="43.2179073" lon="12.0130943"><ele>281.0</ele><time>2026-04-18T08:08:59.895Z</time></trkpt><trkpt lat="43.2177412" lon="12.0132851"><ele>281.0</ele><time>2026-04-18T08:09:00.895Z</time></trkpt><trkpt lat="43.2175736" lon="12.0134745"><ele>281.0</ele><time>2026-04-18T08:09:01.896Z</time></trkpt><trkpt lat="43.2174125" lon="12.0136608"><ele>280.6666666666667</ele><time>2026-04-18T08:09:02.896Z</time></trkpt><trkpt lat="43.2172516" lon="12.0138384"><ele>280.3333333333333</ele><time>2026-04-18T08:09:03.897Z</time></trkpt><trkpt lat="43.2170932" lon="12.014017"><ele>280.0</ele><time>2026-04-18T08:09:04.896Z</time></trkpt><trkpt lat="43.2169293" lon="12.0141986"><ele>280.0</ele><time>2026-04-18T08:09:05.896Z</time></trkpt><trkpt lat="43.2167746" lon="12.014371"><ele>280.0</ele><time>2026-04-18T08:09:06.896Z</time></trkpt><trkpt lat="43.2166256" lon="12.0145345"><ele>280.0</ele><time>2026-04-18T08:09:07.897Z</time></trkpt><trkpt lat="43.2164838" lon="12.0146887"><ele>279.66666666666663</ele><time>2026-04-18T08:09:08.896Z</time></trkpt><trkpt lat="43.2163526" lon="12.0148328"><ele>279.3333333333333</ele><time>2026-04-18T08:09:09.896Z</time></trkpt><trkpt lat="43.2162154" lon="12.0149876"><ele>279.0</ele><time>2026-04-18T08:09:10.896Z</time></trkpt><trkpt lat="43.2160811" lon="12.0151498"><ele>279.6666666666667</ele><time>2026-04-18T08:09:11.896Z</time></trkpt><trkpt lat="43.2159504" lon="12.0153179"><ele>280.33333333333337</ele><time>2026-04-18T08:09:12.896Z</time></trkpt><trkpt lat="43.2158218" lon="12.0154865"><ele>281.0</ele><time>2026-04-18T08:09:13.896Z</time></trkpt><trkpt lat="43.2156975" lon="12.015654"><ele>281.0</ele><time>2026-04-18T08:09:14.896Z</time></trkpt><trkpt lat="43.2155795" lon="12.0158127"><ele>281.0</ele><time>2026-04-18T08:09:15.896Z</time></trkpt><trkpt lat="43.215472" lon="12.0159718"><ele>281.0</ele><time>2026-04-18T08:09:16.896Z</time></trkpt><trkpt lat="43.2153647" lon="12.0161364"><ele>281.6666666666667</ele><time>2026-04-18T08:09:17.897Z</time></trkpt><trkpt lat="43.2152582" lon="12.0163072"><ele>282.3333333333333</ele><time>2026-04-18T08:09:18.896Z</time></trkpt><trkpt lat="43.2151523" lon="12.0164808"><ele>283.0</ele><time>2026-04-18T08:09:19.895Z</time></trkpt><trkpt lat="43.215052" lon="12.0166496"><ele>283.0</ele><time>2026-04-18T08:09:20.896Z</time></trkpt><trkpt lat="43.2149557" lon="12.016804"><ele>283.0</ele><time>2026-04-18T08:09:21.896Z</time></trkpt><trkpt lat="43.2148564" lon="12.0169523"><ele>283.0</ele><time>2026-04-18T08:09:22.896Z</time></trkpt><trkpt lat="43.2147498" lon="12.0171044"><ele>283.0</ele><time>2026-04-18T08:09:23.896Z</time></trkpt><trkpt lat="43.2146496" lon="12.0172568"><ele>283.0</ele><time>2026-04-18T08:09:24.895Z</time></trkpt><trkpt lat="43.2145507" lon="12.0174234"><ele>283.0</ele><time>2026-04-18T08:09:25.896Z</time></trkpt><trkpt lat="43.214469" lon="12.0176018"><ele>283.0</ele><time>2026-04-18T08:09:26.895Z</time></trkpt><trkpt lat="43.2144113" lon="12.0177958"><ele>283.0</ele><time>2026-04-18T08:09:27.896Z</time></trkpt><trkpt lat="43.2143704" lon="12.0180034"><ele>283.0</ele><time>2026-04-18T08:09:28.896Z</time></trkpt><trkpt lat="43.2143378" lon="12.018218"><ele>283.0</ele><time>2026-04-18T08:09:29.895Z</time></trkpt><trkpt lat="43.2143023" lon="12.0184339"><ele>283.5</ele><time>2026-04-18T08:09:30.896Z</time></trkpt><trkpt lat="43.2142702" lon="12.0186345"><ele>284.0</ele><time>2026-04-18T08:09:31.896Z</time></trkpt><trkpt lat="43.2142415" lon="12.0188225"><ele>284.5</ele><time>2026-04-18T08:09:32.896Z</time></trkpt><trkpt lat="43.214208" lon="12.0190101"><ele>285.0</ele><time>2026-04-18T08:09:33.896Z</time></trkpt><trkpt lat="43.2141634" lon="12.0191906"><ele>286.0</ele><time>2026-04-18T08:09:34.895Z</time></trkpt><trkpt lat="43.2141079" lon="12.0193644"><ele>287.0</ele><time>2026-04-18T08:09:35.896Z</time></trkpt><trkpt lat="43.2140383" lon="12.0195312"><ele>288.0</ele><time>2026-04-18T08:09:36.896Z</time></trkpt><trkpt lat="43.213955" lon="12.0196911"><ele>289.0</ele><time>2026-04-18T08:09:37.896Z</time></trkpt><trkpt lat="43.2138588" lon="12.0198414"><ele>290.0</ele><time>2026-04-18T08:09:38.896Z</time></trkpt><trkpt lat="43.2137522" lon="12.0199909"><ele>291.0</ele><time>2026-04-18T08:09:39.895Z</time></trkpt><trkpt lat="43.2136429" lon="12.0201377"><ele>292.0</ele><time>2026-04-18T08:09:40.895Z</time></trkpt><trkpt lat="43.213524" lon="12.0202793"><ele>292.0</ele><time>2026-04-18T08:09:41.896Z</time></trkpt><trkpt lat="43.2134146" lon="12.0204102"><ele>292.0</ele><time>2026-04-18T08:09:42.896Z</time></trkpt><trkpt lat="43.2132833" lon="12.0205311"><ele>292.0</ele><time>2026-04-18T08:09:43.896Z</time></trkpt><trkpt lat="43.2131353" lon="12.0206498"><ele>290.66666666666663</ele><time>2026-04-18T08:09:44.896Z</time></trkpt><trkpt lat="43.21297" lon="12.0207746"><ele>289.3333333333333</ele><time>2026-04-18T08:09:45.896Z</time></trkpt><trkpt lat="43.2127942" lon="12.0209094"><ele>288.0</ele><time>2026-04-18T08:09:46.896Z</time></trkpt><trkpt lat="43.212614" lon="12.0210402"><ele>288.0</ele><time>2026-04-18T08:09:47.896Z</time></trkpt><trkpt lat="43.2124401" lon="12.0211618"><ele>288.0</ele><time>2026-04-18T08:09:48.895Z</time></trkpt><trkpt lat="43.2122744" lon="12.0212749"><ele>288.0</ele><time>2026-04-18T08:09:49.895Z</time></trkpt><trkpt lat="43.2121317" lon="12.0213707"><ele>288.75</ele><time>2026-04-18T08:09:50.894Z</time></trkpt><trkpt lat="43.2120018" lon="12.0214594"><ele>289.5</ele><time>2026-04-18T08:09:51.896Z</time></trkpt><trkpt lat="43.2118852" lon="12.0215387"><ele>290.25</ele><time>2026-04-18T08:09:52.895Z</time></trkpt><trkpt lat="43.2117628" lon="12.0216215"><ele>291.0</ele><time>2026-04-18T08:09:53.895Z</time></trkpt><trkpt lat="43.2116256" lon="12.0217129"><ele>292.3333333333333</ele><time>2026-04-18T08:09:54.895Z</time></trkpt><trkpt lat="43.2114668" lon="12.0218106"><ele>293.66666666666663</ele><time>2026-04-18T08:09:55.895Z</time></trkpt><trkpt lat="43.2112938" lon="12.0219094"><ele>295.0</ele><time>2026-04-18T08:09:56.895Z</time></trkpt><trkpt lat="43.211112" lon="12.0220173"><ele>295.0</ele><time>2026-04-18T08:09:57.895Z</time></trkpt><trkpt lat="43.210922" lon="12.0221356"><ele>295.0</ele><time>2026-04-18T08:09:58.895Z</time></trkpt><trkpt lat="43.2107338" lon="12.0222578"><ele>295.0</ele><time>2026-04-18T08:09:59.895Z</time></trkpt><trkpt lat="43.2105545" lon="12.022373"><ele>296.0</ele><time>2026-04-18T08:10:00.895Z</time></trkpt><trkpt lat="43.2103693" lon="12.0224872"><ele>297.0</ele><time>2026-04-18T08:10:01.896Z</time></trkpt><trkpt lat="43.2101797" lon="12.0226"><ele>298.0</ele><time>2026-04-18T08:10:02.895Z</time></trkpt><trkpt lat="43.209986" lon="12.022714"><ele>297.3333333333333</ele><time>2026-04-18T08:10:03.894Z</time></trkpt><trkpt lat="43.2097891" lon="12.0228373"><ele>296.6666666666667</ele><time>2026-04-18T08:10:04.895Z</time></trkpt><trkpt lat="43.2095852" lon="12.0229628"><ele>296.0</ele><time>2026-04-18T08:10:05.895Z</time></trkpt><trkpt lat="43.2093783" lon="12.023089"><ele>296.0</ele><time>2026-04-18T08:10:06.895Z</time></trkpt><trkpt lat="43.2091695" lon="12.0232059"><ele>296.0</ele><time>2026-04-18T08:10:07.894Z</time></trkpt><trkpt lat="43.2089737" lon="12.0233091"><ele>296.0</ele><time>2026-04-18T08:10:08.896Z</time></trkpt><trkpt lat="43.2087844" lon="12.0233989"><ele>299.0</ele><time>2026-04-18T08:10:09.895Z</time></trkpt><trkpt lat="43.2086097" lon="12.0234668"><ele>302.0</ele><time>2026-04-18T08:10:10.894Z</time></trkpt><trkpt lat="43.2084383" lon="12.023528"><ele>305.0</ele><time>2026-04-18T08:10:11.895Z</time></trkpt><trkpt lat="43.2082691" lon="12.0235838"><ele>305.33333333333337</ele><time>2026-04-18T08:10:12.895Z</time></trkpt><trkpt lat="43.2081034" lon="12.0236274"><ele>305.6666666666667</ele><time>2026-04-18T08:10:13.895Z</time></trkpt><trkpt lat="43.2079484" lon="12.0236588"><ele>306.0</ele><time>2026-04-18T08:10:14.895Z</time></trkpt><trkpt lat="43.2077959" lon="12.0236817"><ele>306.0</ele><time>2026-04-18T08:10:15.895Z</time></trkpt><trkpt lat="43.2076419" lon="12.0236991"><ele>306.0</ele><time>2026-04-18T08:10:16.895Z</time></trkpt><trkpt lat="43.2074841" lon="12.0237196"><ele>306.0</ele><time>2026-04-18T08:10:17.894Z</time></trkpt><trkpt lat="43.2073224" lon="12.0237438"><ele>306.0</ele><time>2026-04-18T08:10:18.895Z</time></trkpt><trkpt lat="43.2071619" lon="12.0237734"><ele>306.0</ele><time>2026-04-18T08:10:19.895Z</time></trkpt><trkpt lat="43.2070121" lon="12.0237994"><ele>306.0</ele><time>2026-04-18T08:10:20.895Z</time></trkpt><trkpt lat="43.2068677" lon="12.0238251"><ele>306.0</ele><time>2026-04-18T08:10:21.894Z</time></trkpt><trkpt lat="43.2067344" lon="12.0238502"><ele>306.0</ele><time>2026-04-18T08:10:22.896Z</time></trkpt><trkpt lat="43.2066055" lon="12.0238774"><ele>306.0</ele><time>2026-04-18T08:10:23.895Z</time></trkpt><trkpt lat="43.2064775" lon="12.0239035"><ele>306.0</ele><time>2026-04-18T08:10:24.896Z</time></trkpt><trkpt lat="43.206352" lon="12.0239271"><ele>305.0</ele><time>2026-04-18T08:10:25.895Z</time></trkpt><trkpt lat="43.2062408" lon="12.0239523"><ele>304.0</ele><time>2026-04-18T08:10:26.895Z</time></trkpt><trkpt lat="43.2061368" lon="12.0239717"><ele>303.0</ele><time>2026-04-18T08:10:27.895Z</time></trkpt><trkpt lat="43.2060372" lon="12.0239887"><ele>302.0</ele><time>2026-04-18T08:10:28.894Z</time></trkpt><trkpt lat="43.2059325" lon="12.0240063"><ele>301.0</ele><time>2026-04-18T08:10:29.895Z</time></trkpt><trkpt lat="43.2058256" lon="12.0240233"><ele>301.0</ele><time>2026-04-18T08:10:30.895Z</time></trkpt><trkpt lat="43.2057144" lon="12.0240455"><ele>301.0</ele><time>2026-04-18T08:10:31.895Z</time></trkpt><trkpt lat="43.2056114" lon="12.0240694"><ele>301.0</ele><time>2026-04-18T08:10:32.894Z</time></trkpt><trkpt lat="43.205517" lon="12.0240882"><ele>301.0</ele><time>2026-04-18T08:10:33.895Z</time></trkpt><trkpt lat="43.2054271" lon="12.0241078"><ele>301.0</ele><time>2026-04-18T08:10:34.895Z</time></trkpt><trkpt lat="43.2053347" lon="12.0241389"><ele>303.0</ele><time>2026-04-18T08:10:35.894Z</time></trkpt><trkpt lat="43.2052413" lon="12.0241761"><ele>305.0</ele><time>2026-04-18T08:10:36.896Z</time></trkpt><trkpt lat="43.2051458" lon="12.0242325"><ele>307.0</ele><time>2026-04-18T08:10:37.895Z</time></trkpt><trkpt lat="43.2050507" lon="12.0243146"><ele>309.0</ele><time>2026-04-18T08:10:38.895Z</time></trkpt><trkpt lat="43.204964" lon="12.0244249"><ele>311.0</ele><time>2026-04-18T08:10:39.895Z</time></trkpt><trkpt lat="43.2048673" lon="12.024578"><ele>310.0</ele><time>2026-04-18T08:10:40.894Z</time></trkpt><trkpt lat="43.2047392" lon="12.024769"><ele>309.0</ele><time>2026-04-18T08:10:41.895Z</time></trkpt><trkpt lat="43.2045986" lon="12.0249644"><ele>308.0</ele><time>2026-04-18T08:10:42.895Z</time></trkpt><trkpt lat="43.204445" lon="12.0251757"><ele>308.0</ele><time>2026-04-18T08:10:43.895Z</time></trkpt><trkpt lat="43.204294" lon="12.0253842"><ele>308.0</ele><time>2026-04-18T08:10:44.895Z</time></trkpt><trkpt lat="43.204165" lon="12.0255668"><ele>308.0</ele><time>2026-04-18T08:10:45.894Z</time></trkpt><trkpt lat="43.2040574" lon="12.025733"><ele>306.6666666666667</ele><time>2026-04-18T08:10:46.895Z</time></trkpt><trkpt lat="43.2039671" lon="12.0259016"><ele>305.3333333333333</ele><time>2026-04-18T08:10:47.895Z</time></trkpt><trkpt lat="43.2038982" lon="12.0260983"><ele>304.0</ele><time>2026-04-18T08:10:48.895Z</time></trkpt><trkpt lat="43.2038558" lon="12.0263149"><ele>304.0</ele><time>2026-04-18T08:10:49.895Z</time></trkpt><trkpt lat="43.2038348" lon="12.0265669"><ele>304.0</ele><time>2026-04-18T08:10:50.895Z</time></trkpt><trkpt lat="43.2038353" lon="12.0268423"><ele>304.0</ele><time>2026-04-18T08:10:51.895Z</time></trkpt><trkpt lat="43.203838" lon="12.0271406"><ele>306.0</ele><time>2026-04-18T08:10:52.894Z</time></trkpt><trkpt lat="43.2038405" lon="12.0274512"><ele>308.0</ele><time>2026-04-18T08:10:53.895Z</time></trkpt><trkpt lat="43.2038401" lon="12.0277775"><ele>308.5</ele><time>2026-04-18T08:10:54.895Z</time></trkpt><trkpt lat="43.2038397" lon="12.0281178"><ele>309.0</ele><time>2026-04-18T08:10:55.895Z</time></trkpt><trkpt lat="43.2038408" lon="12.0284464"><ele>309.0</ele><time>2026-04-18T08:10:56.894Z</time></trkpt><trkpt lat="43.2038427" lon="12.0287483"><ele>309.0</ele><time>2026-04-18T08:10:57.895Z</time></trkpt><trkpt lat="43.2038446" lon="12.0290147"><ele>309.0</ele><time>2026-04-18T08:10:58.895Z</time></trkpt><trkpt lat="43.2038402" lon="12.0292668"><ele>309.6666666666667</ele><time>2026-04-18T08:10:59.895Z</time></trkpt><trkpt lat="43.2038198" lon="12.0295094"><ele>310.33333333333337</ele><time>2026-04-18T08:11:00.894Z</time></trkpt><trkpt lat="43.2037731" lon="12.0297647"><ele>311.0</ele><time>2026-04-18T08:11:01.895Z</time></trkpt><trkpt lat="43.2037066" lon="12.0300381"><ele>312.5</ele><time>2026-04-18T08:11:02.894Z</time></trkpt><trkpt lat="43.2036358" lon="12.0303259"><ele>314.0</ele><time>2026-04-18T08:11:03.895Z</time></trkpt><trkpt lat="43.2035579" lon="12.0306295"><ele>315.5</ele><time>2026-04-18T08:11:04.895Z</time></trkpt><trkpt lat="43.2034768" lon="12.0309461"><ele>317.0</ele><time>2026-04-18T08:11:05.895Z</time></trkpt><trkpt lat="43.2033973" lon="12.0312584"><ele>317.0</ele><time>2026-04-18T08:11:06.895Z</time></trkpt><trkpt lat="43.2033247" lon="12.0315323"><ele>317.0</ele><time>2026-04-18T08:11:07.895Z</time></trkpt><trkpt lat="43.2032614" lon="12.0317599"><ele>317.0</ele><time>2026-04-18T08:11:08.895Z</time></trkpt><trkpt lat="43.2031995" lon="12.0319551"><ele>316.6666666666667</ele><time>2026-04-18T08:11:09.895Z</time></trkpt><trkpt lat="43.2031229" lon="12.0321234"><ele>316.3333333333333</ele><time>2026-04-18T08:11:10.895Z</time></trkpt><trkpt lat="43.2030348" lon="12.0322911"><ele>316.0</ele><time>2026-04-18T08:11:11.895Z</time></trkpt><trkpt lat="43.2029466" lon="12.0324812"><ele>316.0</ele><time>2026-04-18T08:11:12.894Z</time></trkpt><trkpt lat="43.202873" lon="12.0326958"><ele>316.0</ele><time>2026-04-18T08:11:13.895Z</time></trkpt><trkpt lat="43.2028235" lon="12.0328964"><ele>316.0</ele><time>2026-04-18T08:11:14.895Z</time></trkpt><trkpt lat="43.202801" lon="12.0331006"><ele>315.0</ele><time>2026-04-18T08:11:15.895Z</time></trkpt><trkpt lat="43.202811" lon="12.0333303"><ele>314.0</ele><time>2026-04-18T08:11:16.895Z</time></trkpt><trkpt lat="43.2028405" lon="12.0335759"><ele>313.0</ele><time>2026-04-18T08:11:17.894Z</time></trkpt><trkpt lat="43.2028652" lon="12.0338085"><ele>313.0</ele><time>2026-04-18T08:11:18.895Z</time></trkpt><trkpt lat="43.2028812" lon="12.0340146"><ele>313.0</ele><time>2026-04-18T08:11:19.895Z</time></trkpt><trkpt lat="43.202873" lon="12.0341933"><ele>313.0</ele><time>2026-04-18T08:11:20.894Z</time></trkpt><trkpt lat="43.2028358" lon="12.034371"><ele>313.0</ele><time>2026-04-18T08:11:21.894Z</time></trkpt><trkpt lat="43.2027648" lon="12.034535"><ele>313.0</ele><time>2026-04-18T08:11:22.894Z</time></trkpt><trkpt lat="43.202655" lon="12.0346921"><ele>313.0</ele><time>2026-04-18T08:11:23.895Z</time></trkpt><trkpt lat="43.2025164" lon="12.0348491"><ele>313.0</ele><time>2026-04-18T08:11:24.895Z</time></trkpt><trkpt lat="43.2023557" lon="12.0349996"><ele>312.0</ele><time>2026-04-18T08:11:25.895Z</time></trkpt><trkpt lat="43.202179" lon="12.0351361"><ele>311.0</ele><time>2026-04-18T08:11:26.895Z</time></trkpt><trkpt lat="43.2019841" lon="12.0352542"><ele>310.0</ele><time>2026-04-18T08:11:27.895Z</time></trkpt><trkpt lat="43.2017991" lon="12.0353614"><ele>310.0</ele><time>2026-04-18T08:11:28.895Z</time></trkpt><trkpt lat="43.201608" lon="12.0354823"><ele>310.0</ele><time>2026-04-18T08:11:29.895Z</time></trkpt><trkpt lat="43.2013988" lon="12.0356116"><ele>310.0</ele><time>2026-04-18T08:11:30.894Z</time></trkpt><trkpt lat="43.2011791" lon="12.0357276"><ele>309.0</ele><time>2026-04-18T08:11:31.896Z</time></trkpt><trkpt lat="43.200944" lon="12.0358452"><ele>308.0</ele><time>2026-04-18T08:11:32.895Z</time></trkpt><trkpt lat="43.2007164" lon="12.0359664"><ele>306.0</ele><time>2026-04-18T08:11:33.895Z</time></trkpt><trkpt lat="43.2004902" lon="12.036094"><ele>304.0</ele><time>2026-04-18T08:11:34.895Z</time></trkpt><trkpt lat="43.2002555" lon="12.0362277"><ele>304.0</ele><time>2026-04-18T08:11:35.895Z</time></trkpt><trkpt lat="43.2000359" lon="12.0363464"><ele>304.0</ele><time>2026-04-18T08:11:36.894Z</time></trkpt><trkpt lat="43.1998315" lon="12.0364607"><ele>303.66666666666663</ele><time>2026-04-18T08:11:37.895Z</time></trkpt><trkpt lat="43.1996316" lon="12.0365687"><ele>303.3333333333333</ele><time>2026-04-18T08:11:38.895Z</time></trkpt><trkpt lat="43.199443" lon="12.0366774"><ele>303.0</ele><time>2026-04-18T08:11:39.895Z</time></trkpt><trkpt lat="43.1992604" lon="12.0367776"><ele>303.0</ele><time>2026-04-18T08:11:40.894Z</time></trkpt><trkpt lat="43.1990841" lon="12.036873"><ele>303.0</ele><time>2026-04-18T08:11:41.895Z</time></trkpt><trkpt lat="43.1989232" lon="12.0369734"><ele>303.0</ele><time>2026-04-18T08:11:42.895Z</time></trkpt><trkpt lat="43.1987724" lon="12.0371035"><ele>302.3333333333333</ele><time>2026-04-18T08:11:43.895Z</time></trkpt><trkpt lat="43.1986211" lon="12.0372759"><ele>301.66666666666663</ele><time>2026-04-18T08:11:44.894Z</time></trkpt><trkpt lat="43.1984575" lon="12.0374787"><ele>301.0</ele><time>2026-04-18T08:11:45.894Z</time></trkpt><trkpt lat="43.1982825" lon="12.0377008"><ele>299.0</ele><time>2026-04-18T08:11:46.894Z</time></trkpt><trkpt lat="43.198098" lon="12.037932"><ele>297.0</ele><time>2026-04-18T08:11:47.894Z</time></trkpt><trkpt lat="43.1979101" lon="12.0381773"><ele>298.0</ele><time>2026-04-18T08:11:48.894Z</time></trkpt><trkpt lat="43.1977127" lon="12.0384324"><ele>299.0</ele><time>2026-04-18T08:11:49.895Z</time></trkpt><trkpt lat="43.1975141" lon="12.0386848"><ele>300.5</ele><time>2026-04-18T08:11:50.895Z</time></trkpt><trkpt lat="43.1973164" lon="12.0389486"><ele>302.0</ele><time>2026-04-18T08:11:51.895Z</time></trkpt><trkpt lat="43.1971288" lon="12.0392002"><ele>302.0</ele><time>2026-04-18T08:11:52.895Z</time></trkpt><trkpt lat="43.1969506" lon="12.0394404"><ele>302.0</ele><time>2026-04-18T08:11:53.895Z</time></trkpt><trkpt lat="43.1967665" lon="12.0396877"><ele>302.0</ele><time>2026-04-18T08:11:54.894Z</time></trkpt><trkpt lat="43.1965867" lon="12.0399391"><ele>302.0</ele><time>2026-04-18T08:11:55.895Z</time></trkpt><trkpt lat="43.1964185" lon="12.0401744"><ele>302.0</ele><time>2026-04-18T08:11:56.895Z</time></trkpt><trkpt lat="43.1962596" lon="12.0403965"><ele>302.0</ele><time>2026-04-18T08:11:57.896Z</time></trkpt><trkpt lat="43.1961067" lon="12.0406087"><ele>302.0</ele><time>2026-04-18T08:11:58.895Z</time></trkpt><trkpt lat="43.1959619" lon="12.0408086"><ele>302.0</ele><time>2026-04-18T08:11:59.894Z</time></trkpt><trkpt lat="43.1958257" lon="12.0409957"><ele>302.0</ele><time>2026-04-18T08:12:00.895Z</time></trkpt><trkpt lat="43.1956893" lon="12.0411783"><ele>302.0</ele><time>2026-04-18T08:12:01.895Z</time></trkpt><trkpt lat="43.1955578" lon="12.0413449"><ele>302.0</ele><time>2026-04-18T08:12:02.895Z</time></trkpt><trkpt lat="43.1954236" lon="12.0414886"><ele>302.0</ele><time>2026-04-18T08:12:03.894Z</time></trkpt><trkpt lat="43.1952679" lon="12.0415963"><ele>302.0</ele><time>2026-04-18T08:12:04.894Z</time></trkpt><trkpt lat="43.1950855" lon="12.0416839"><ele>304.0</ele><time>2026-04-18T08:12:05.896Z</time></trkpt><trkpt lat="43.1948879" lon="12.0417538"><ele>306.0</ele><time>2026-04-18T08:12:06.895Z</time></trkpt><trkpt lat="43.1946892" lon="12.0418243"><ele>308.0</ele><time>2026-04-18T08:12:07.894Z</time></trkpt><trkpt lat="43.1944961" lon="12.04189"><ele>308.0</ele><time>2026-04-18T08:12:08.895Z</time></trkpt><trkpt lat="43.194289" lon="12.0419432"><ele>308.0</ele><time>2026-04-18T08:12:09.894Z</time></trkpt><trkpt lat="43.1940761" lon="12.0419818"><ele>308.0</ele><time>2026-04-18T08:12:10.894Z</time></trkpt><trkpt lat="43.1938732" lon="12.0420006"><ele>307.33333333333337</ele><time>2026-04-18T08:12:11.895Z</time></trkpt><trkpt lat="43.1936815" lon="12.0420018"><ele>306.6666666666667</ele><time>2026-04-18T08:12:12.895Z</time></trkpt><trkpt lat="43.193502" lon="12.0419926"><ele>306.0</ele><time>2026-04-18T08:12:13.896Z</time></trkpt><trkpt lat="43.1933311" lon="12.0419693"><ele>307.6666666666667</ele><time>2026-04-18T08:12:14.895Z</time></trkpt><trkpt lat="43.1931644" lon="12.0419221"><ele>309.33333333333337</ele><time>2026-04-18T08:12:15.895Z</time></trkpt><trkpt lat="43.192998" lon="12.0418443"><ele>311.0</ele><time>2026-04-18T08:12:16.895Z</time></trkpt><trkpt lat="43.1928272" lon="12.0417494"><ele>311.0</ele><time>2026-04-18T08:12:17.895Z</time></trkpt><trkpt lat="43.192658" lon="12.0416568"><ele>311.0</ele><time>2026-04-18T08:12:18.895Z</time></trkpt><trkpt lat="43.192511" lon="12.0415725"><ele>311.0</ele><time>2026-04-18T08:12:19.895Z</time></trkpt><trkpt lat="43.19239" lon="12.0414831"><ele>311.0</ele><time>2026-04-18T08:12:20.896Z</time></trkpt><trkpt lat="43.1922854" lon="12.0413683"><ele>311.0</ele><time>2026-04-18T08:12:21.895Z</time></trkpt><trkpt lat="43.1922046" lon="12.0412172"><ele>311.0</ele><time>2026-04-18T08:12:22.895Z</time></trkpt><trkpt lat="43.1921259" lon="12.0410529"><ele>311.0</ele><time>2026-04-18T08:12:23.894Z</time></trkpt><trkpt lat="43.1920188" lon="12.0408898"><ele>309.6666666666667</ele><time>2026-04-18T08:12:24.894Z</time></trkpt><trkpt lat="43.1918744" lon="12.0407393"><ele>308.3333333333333</ele><time>2026-04-18T08:12:25.895Z</time></trkpt><trkpt lat="43.1916976" lon="12.040605"><ele>307.0</ele><time>2026-04-18T08:12:26.895Z</time></trkpt><trkpt lat="43.1915005" lon="12.0404702"><ele>307.0</ele><time>2026-04-18T08:12:27.894Z</time></trkpt><trkpt lat="43.1912977" lon="12.0403445"><ele>307.0</ele><time>2026-04-18T08:12:28.896Z</time></trkpt><trkpt lat="43.1911065" lon="12.0402331"><ele>307.0</ele><time>2026-04-18T08:12:29.895Z</time></trkpt><trkpt lat="43.190919" lon="12.0401281"><ele>307.0</ele><time>2026-04-18T08:12:30.895Z</time></trkpt><trkpt lat="43.1907363" lon="12.0400425"><ele>307.0</ele><time>2026-04-18T08:12:31.894Z</time></trkpt><trkpt lat="43.1905638" lon="12.0399627"><ele>307.0</ele><time>2026-04-18T08:12:32.894Z</time></trkpt><trkpt lat="43.1904017" lon="12.0398913"><ele>304.5</ele><time>2026-04-18T08:12:33.896Z</time></trkpt><trkpt lat="43.1902585" lon="12.0398304"><ele>302.0</ele><time>2026-04-18T08:12:34.895Z</time></trkpt><trkpt lat="43.1901334" lon="12.0397905"><ele>299.5</ele><time>2026-04-18T08:12:35.895Z</time></trkpt><trkpt lat="43.19002" lon="12.0397772"><ele>297.0</ele><time>2026-04-18T08:12:36.895Z</time></trkpt><trkpt lat="43.1899182" lon="12.0397957"><ele>297.0</ele><time>2026-04-18T08:12:37.895Z</time></trkpt><trkpt lat="43.1898279" lon="12.0398714"><ele>297.0</ele><time>2026-04-18T08:12:38.896Z</time></trkpt><trkpt lat="43.1897635" lon="12.0400027"><ele>297.0</ele><time>2026-04-18T08:12:39.894Z</time></trkpt><trkpt lat="43.1897348" lon="12.0401702"><ele>297.0</ele><time>2026-04-18T08:12:40.895Z</time></trkpt><trkpt lat="43.1897584" lon="12.0403458"><ele>297.0</ele><time>2026-04-18T08:12:41.895Z</time></trkpt><trkpt lat="43.18982" lon="12.0405352"><ele>297.0</ele><time>2026-04-18T08:12:42.895Z</time></trkpt><trkpt lat="43.1898943" lon="12.0407578"><ele>297.0</ele><time>2026-04-18T08:12:43.894Z</time></trkpt><trkpt lat="43.1899705" lon="12.0409919"><ele>299.0</ele><time>2026-04-18T08:12:44.894Z</time></trkpt><trkpt lat="43.1900555" lon="12.0412437"><ele>301.0</ele><time>2026-04-18T08:12:45.895Z</time></trkpt><trkpt lat="43.1901428" lon="12.0415063"><ele>303.0</ele><time>2026-04-18T08:12:46.895Z</time></trkpt><trkpt lat="43.1902334" lon="12.0417799"><ele>303.0</ele><time>2026-04-18T08:12:47.895Z</time></trkpt><trkpt lat="43.1903277" lon="12.0420653"><ele>303.0</ele><time>2026-04-18T08:12:48.895Z</time></trkpt><trkpt lat="43.1904183" lon="12.0423448"><ele>300.6666666666667</ele><time>2026-04-18T08:12:49.894Z</time></trkpt><trkpt lat="43.1905058" lon="12.0426041"><ele>298.33333333333337</ele><time>2026-04-18T08:12:50.895Z</time></trkpt><trkpt lat="43.1905946" lon="12.0428545"><ele>296.0</ele><time>2026-04-18T08:12:51.895Z</time></trkpt><trkpt lat="43.1906816" lon="12.0430908"><ele>298.6666666666667</ele><time>2026-04-18T08:12:52.895Z</time></trkpt><trkpt lat="43.1907656" lon="12.0432964"><ele>301.3333333333333</ele><time>2026-04-18T08:12:53.895Z</time></trkpt><trkpt lat="43.1908545" lon="12.0434782"><ele>304.0</ele><time>2026-04-18T08:12:54.895Z</time></trkpt><trkpt lat="43.1909283" lon="12.0436306"><ele>304.0</ele><time>2026-04-18T08:12:55.895Z</time></trkpt><trkpt lat="43.1909761" lon="12.0437715"><ele>304.0</ele><time>2026-04-18T08:12:56.895Z</time></trkpt><trkpt lat="43.190993" lon="12.0439259"><ele>304.0</ele><time>2026-04-18T08:12:57.894Z</time></trkpt><trkpt lat="43.1909811" lon="12.04411"><ele>304.0</ele><time>2026-04-18T08:12:58.894Z</time></trkpt><trkpt lat="43.1909553" lon="12.0443155"><ele>302.66666666666663</ele><time>2026-04-18T08:12:59.895Z</time></trkpt><trkpt lat="43.1909255" lon="12.0445491"><ele>301.3333333333333</ele><time>2026-04-18T08:13:00.895Z</time></trkpt><trkpt lat="43.1908952" lon="12.0448043"><ele>300.0</ele><time>2026-04-18T08:13:01.895Z</time></trkpt><trkpt lat="43.1908706" lon="12.0450399"><ele>300.0</ele><time>2026-04-18T08:13:02.895Z</time></trkpt><trkpt lat="43.1908538" lon="12.0452678"><ele>300.0</ele><time>2026-04-18T08:13:03.894Z</time></trkpt><trkpt lat="43.1908516" lon="12.0454829"><ele>300.0</ele><time>2026-04-18T08:13:04.894Z</time></trkpt><trkpt lat="43.1908712" lon="12.0456959"><ele>299.3333333333333</ele><time>2026-04-18T08:13:05.895Z</time></trkpt><trkpt lat="43.1909261" lon="12.0459172"><ele>298.66666666666663</ele><time>2026-04-18T08:13:06.895Z</time></trkpt><trkpt lat="43.1910028" lon="12.0461525"><ele>298.0</ele><time>2026-04-18T08:13:07.894Z</time></trkpt><trkpt lat="43.1910925" lon="12.0464009"><ele>295.3333333333333</ele><time>2026-04-18T08:13:08.894Z</time></trkpt><trkpt lat="43.1911917" lon="12.0466658"><ele>292.6666666666667</ele><time>2026-04-18T08:13:09.895Z</time></trkpt><trkpt lat="43.1912887" lon="12.046914"><ele>290.0</ele><time>2026-04-18T08:13:10.895Z</time></trkpt><trkpt lat="43.1913742" lon="12.0471477"><ele>290.0</ele><time>2026-04-18T08:13:11.895Z</time></trkpt><trkpt lat="43.1914474" lon="12.0473754"><ele>290.0</ele><time>2026-04-18T08:13:12.894Z</time></trkpt><trkpt lat="43.1914996" lon="12.0476"><ele>290.0</ele><time>2026-04-18T08:13:13.895Z</time></trkpt><trkpt lat="43.1915351" lon="12.0478291"><ele>294.6666666666667</ele><time>2026-04-18T08:13:14.895Z</time></trkpt><trkpt lat="43.1915682" lon="12.0480596"><ele>299.3333333333333</ele><time>2026-04-18T08:13:15.894Z</time></trkpt><trkpt lat="43.1916013" lon="12.0482661"><ele>304.0</ele><time>2026-04-18T08:13:16.895Z</time></trkpt><trkpt lat="43.1916453" lon="12.0484526"><ele>304.0</ele><time>2026-04-18T08:13:17.895Z</time></trkpt><trkpt lat="43.1916978" lon="12.0486191"><ele>304.0</ele><time>2026-04-18T08:13:18.895Z</time></trkpt><trkpt lat="43.1917685" lon="12.0487638"><ele>304.0</ele><time>2026-04-18T08:13:19.895Z</time></trkpt><trkpt lat="43.191871" lon="12.04889"><ele>304.0</ele><time>2026-04-18T08:13:20.894Z</time></trkpt><trkpt lat="43.1919721" lon="12.0490084"><ele>304.0</ele><time>2026-04-18T08:13:21.895Z</time></trkpt><trkpt lat="43.1921617" lon="12.0490898"><ele>304.0</ele><time>2026-04-18T08:13:22.896Z</time></trkpt><trkpt lat="43.1923312" lon="12.0491995"><ele>304.0</ele><time>2026-04-18T08:13:23.894Z</time></trkpt><trkpt lat="43.1925186" lon="12.0493171"><ele>305.0</ele><time>2026-04-18T08:13:24.895Z</time></trkpt><trkpt lat="43.192719" lon="12.0494307"><ele>306.0</ele><time>2026-04-18T08:13:25.894Z</time></trkpt><trkpt lat="43.1929102" lon="12.049538"><ele>307.0</ele><time>2026-04-18T08:13:26.894Z</time></trkpt><trkpt lat="43.1931055" lon="12.0496463"><ele>310.3333333333333</ele><time>2026-04-18T08:13:27.896Z</time></trkpt><trkpt lat="43.1933118" lon="12.0497472"><ele>313.6666666666667</ele><time>2026-04-18T08:13:28.896Z</time></trkpt><trkpt lat="43.1935228" lon="12.0498358"><ele>317.0</ele><time>2026-04-18T08:13:29.894Z</time></trkpt><trkpt lat="43.1937419" lon="12.0499031"><ele>313.0</ele><time>2026-04-18T08:13:30.895Z</time></trkpt><trkpt lat="43.1939681" lon="12.0499647"><ele>309.0</ele><time>2026-04-18T08:13:31.895Z</time></trkpt><trkpt lat="43.1941845" lon="12.0500246"><ele>309.0</ele><time>2026-04-18T08:13:32.895Z</time></trkpt><trkpt lat="43.1943921" lon="12.050077"><ele>309.0</ele><time>2026-04-18T08:13:33.895Z</time></trkpt><trkpt lat="43.1945898" lon="12.0501238"><ele>309.0</ele><time>2026-04-18T08:13:34.895Z</time></trkpt><trkpt lat="43.1947751" lon="12.0501727"><ele>310.6666666666667</ele><time>2026-04-18T08:13:35.894Z</time></trkpt><trkpt lat="43.1949562" lon="12.0502206"><ele>312.33333333333337</ele><time>2026-04-18T08:13:36.896Z</time></trkpt><trkpt lat="43.1951399" lon="12.0502684"><ele>314.0</ele><time>2026-04-18T08:13:37.895Z</time></trkpt><trkpt lat="43.195326" lon="12.0503094"><ele>314.0</ele><time>2026-04-18T08:13:38.895Z</time></trkpt><trkpt lat="43.1955131" lon="12.0503342"><ele>314.0</ele><time>2026-04-18T08:13:39.895Z</time></trkpt><trkpt lat="43.1957053" lon="12.0503549"><ele>314.0</ele><time>2026-04-18T08:13:40.895Z</time></trkpt><trkpt lat="43.1958648" lon="12.0503754"><ele>315.0</ele><time>2026-04-18T08:13:41.895Z</time></trkpt><trkpt lat="43.1960086" lon="12.0503831"><ele>316.0</ele><time>2026-04-18T08:13:42.896Z</time></trkpt><trkpt lat="43.1961322" lon="12.0504051"><ele>317.0</ele><time>2026-04-18T08:13:43.894Z</time></trkpt><trkpt lat="43.1962053" lon="12.0504587"><ele>318.0</ele><time>2026-04-18T08:13:44.894Z</time></trkpt><trkpt lat="43.1963081" lon="12.0505252"><ele>318.0</ele><time>2026-04-18T08:13:45.895Z</time></trkpt><trkpt lat="43.1964386" lon="12.0505901"><ele>318.0</ele><time>2026-04-18T08:13:46.895Z</time></trkpt><trkpt lat="43.1965895" lon="12.0506584"><ele>318.0</ele><time>2026-04-18T08:13:47.894Z</time></trkpt><trkpt lat="43.1967551" lon="12.0507267"><ele>318.0</ele><time>2026-04-18T08:13:48.895Z</time></trkpt><trkpt lat="43.1969188" lon="12.0507853"><ele>318.0</ele><time>2026-04-18T08:13:49.895Z</time></trkpt><trkpt lat="43.1970764" lon="12.0508305"><ele>318.0</ele><time>2026-04-18T08:13:50.894Z</time></trkpt><trkpt lat="43.1972267" lon="12.0508567"><ele>316.5</ele><time>2026-04-18T08:13:51.894Z</time></trkpt><trkpt lat="43.1973805" lon="12.0508555"><ele>315.0</ele><time>2026-04-18T08:13:52.895Z</time></trkpt><trkpt lat="43.1975199" lon="12.0508476"><ele>313.5</ele><time>2026-04-18T08:13:53.894Z</time></trkpt><trkpt lat="43.1976572" lon="12.050824"><ele>312.0</ele><time>2026-04-18T08:13:54.894Z</time></trkpt><trkpt lat="43.1977868" lon="12.0507905"><ele>312.0</ele><time>2026-04-18T08:13:55.894Z</time></trkpt><trkpt lat="43.1979107" lon="12.0507569"><ele>312.0</ele><time>2026-04-18T08:13:56.896Z</time></trkpt><trkpt lat="43.1980237" lon="12.0507312"><ele>312.0</ele><time>2026-04-18T08:13:57.895Z</time></trkpt><trkpt lat="43.1981317" lon="12.050736"><ele>312.0</ele><time>2026-04-18T08:13:58.895Z</time></trkpt><trkpt lat="43.1982481" lon="12.0507886"><ele>307.0</ele><time>2026-04-18T08:13:59.895Z</time></trkpt><trkpt lat="43.1983671" lon="12.0508884"><ele>302.0</ele><time>2026-04-18T08:14:00.895Z</time></trkpt><trkpt lat="43.1984971" lon="12.0510274"><ele>297.0</ele><time>2026-04-18T08:14:01.895Z</time></trkpt><trkpt lat="43.1986394" lon="12.0511758"><ele>297.0</ele><time>2026-04-18T08:14:02.894Z</time></trkpt><trkpt lat="43.1987963" lon="12.0513421"><ele>297.0</ele><time>2026-04-18T08:14:03.895Z</time></trkpt><trkpt lat="43.198961" lon="12.0515168"><ele>297.0</ele><time>2026-04-18T08:14:04.895Z</time></trkpt><trkpt lat="43.1991266" lon="12.0516822"><ele>294.3333333333333</ele><time>2026-04-18T08:14:05.894Z</time></trkpt><trkpt lat="43.1992736" lon="12.0518388"><ele>291.66666666666663</ele><time>2026-04-18T08:14:06.895Z</time></trkpt><trkpt lat="43.1994014" lon="12.0519725"><ele>289.0</ele><time>2026-04-18T08:14:07.895Z</time></trkpt><trkpt lat="43.1995113" lon="12.0521004"><ele>289.0</ele><time>2026-04-18T08:14:08.895Z</time></trkpt><trkpt lat="43.199595" lon="12.052231"><ele>289.0</ele><time>2026-04-18T08:14:09.895Z</time></trkpt><trkpt lat="43.1996576" lon="12.0523793"><ele>289.0</ele><time>2026-04-18T08:14:10.894Z</time></trkpt><trkpt lat="43.1997137" lon="12.0525676"><ele>289.0</ele><time>2026-04-18T08:14:11.895Z</time></trkpt><trkpt lat="43.1997613" lon="12.0527861"><ele>287.0</ele><time>2026-04-18T08:14:12.894Z</time></trkpt><trkpt lat="43.1998151" lon="12.0530296"><ele>285.0</ele><time>2026-04-18T08:14:13.893Z</time></trkpt><trkpt lat="43.1998661" lon="12.0532975"><ele>283.0</ele><time>2026-04-18T08:14:14.894Z</time></trkpt><trkpt lat="43.1999212" lon="12.0535753"><ele>282.3333333333333</ele><time>2026-04-18T08:14:15.894Z</time></trkpt><trkpt lat="43.1999524" lon="12.0538461"><ele>281.6666666666667</ele><time>2026-04-18T08:14:16.893Z</time></trkpt><trkpt lat="43.1999596" lon="12.0541319"><ele>281.0</ele><time>2026-04-18T08:14:17.893Z</time></trkpt><trkpt lat="43.19995" lon="12.0544271"><ele>278.5</ele><time>2026-04-18T08:14:18.894Z</time></trkpt><trkpt lat="43.1999341" lon="12.0547355"><ele>276.0</ele><time>2026-04-18T08:14:19.894Z</time></trkpt><trkpt lat="43.1999157" lon="12.055055"><ele>275.0</ele><time>2026-04-18T08:14:20.893Z</time></trkpt><trkpt lat="43.1998909" lon="12.0553952"><ele>274.0</ele><time>2026-04-18T08:14:21.894Z</time></trkpt><trkpt lat="43.1998637" lon="12.0557432"><ele>273.0</ele><time>2026-04-18T08:14:22.894Z</time></trkpt><trkpt lat="43.1998414" lon="12.0560886"><ele>272.0</ele><time>2026-04-18T08:14:23.894Z</time></trkpt><trkpt lat="43.1998179" lon="12.0564155"><ele>270.6666666666667</ele><time>2026-04-18T08:14:24.893Z</time></trkpt><trkpt lat="43.1997967" lon="12.0567282"><ele>269.3333333333333</ele><time>2026-04-18T08:14:25.893Z</time></trkpt><trkpt lat="43.1997768" lon="12.0570114"><ele>268.0</ele><time>2026-04-18T08:14:26.895Z</time></trkpt><trkpt lat="43.1997576" lon="12.0572712"><ele>267.3333333333333</ele><time>2026-04-18T08:14:27.894Z</time></trkpt><trkpt lat="43.1997422" lon="12.0575187"><ele>266.6666666666667</ele><time>2026-04-18T08:14:28.894Z</time></trkpt><trkpt lat="43.1997383" lon="12.0577408"><ele>266.0</ele><time>2026-04-18T08:14:29.894Z</time></trkpt><trkpt lat="43.1997495" lon="12.0579594"><ele>266.0</ele><time>2026-04-18T08:14:30.894Z</time></trkpt><trkpt lat="43.1997867" lon="12.0581946"><ele>266.0</ele><time>2026-04-18T08:14:31.895Z</time></trkpt><trkpt lat="43.199842" lon="12.0584406"><ele>266.0</ele><time>2026-04-18T08:14:32.894Z</time></trkpt><trkpt lat="43.1998987" lon="12.0587022"><ele>266.33333333333337</ele><time>2026-04-18T08:14:33.894Z</time></trkpt><trkpt lat="43.1999577" lon="12.0589817"><ele>266.6666666666667</ele><time>2026-04-18T08:14:34.893Z</time></trkpt><trkpt lat="43.2000193" lon="12.0592706"><ele>267.0</ele><time>2026-04-18T08:14:35.893Z</time></trkpt><trkpt lat="43.2000833" lon="12.0595703"><ele>267.0</ele><time>2026-04-18T08:14:36.893Z</time></trkpt><trkpt lat="43.2001497" lon="12.0598856"><ele>267.0</ele><time>2026-04-18T08:14:37.893Z</time></trkpt><trkpt lat="43.2002139" lon="12.0602138"><ele>267.0</ele><time>2026-04-18T08:14:38.895Z</time></trkpt><trkpt lat="43.2002791" lon="12.0605474"><ele>267.0</ele><time>2026-04-18T08:14:39.893Z</time></trkpt><trkpt lat="43.2003464" lon="12.0608864"><ele>266.5</ele><time>2026-04-18T08:14:40.893Z</time></trkpt><trkpt lat="43.2004133" lon="12.061218"><ele>266.0</ele><time>2026-04-18T08:14:41.893Z</time></trkpt><trkpt lat="43.2004786" lon="12.0615245"><ele>265.0</ele><time>2026-04-18T08:14:42.893Z</time></trkpt><trkpt lat="43.2005372" lon="12.061835"><ele>264.0</ele><time>2026-04-18T08:14:43.894Z</time></trkpt><trkpt lat="43.2006043" lon="12.0621474"><ele>264.0</ele><time>2026-04-18T08:14:44.893Z</time></trkpt><trkpt lat="43.2006652" lon="12.0624454"><ele>264.0</ele><time>2026-04-18T08:14:45.893Z</time></trkpt><trkpt lat="43.2007228" lon="12.0627288"><ele>264.0</ele><time>2026-04-18T08:14:46.894Z</time></trkpt><trkpt lat="43.2007836" lon="12.0630081"><ele>265.0</ele><time>2026-04-18T08:14:47.893Z</time></trkpt><trkpt lat="43.2008531" lon="12.0632996"><ele>266.0</ele><time>2026-04-18T08:14:48.894Z</time></trkpt><trkpt lat="43.2009331" lon="12.0635982"><ele>266.0</ele><time>2026-04-18T08:14:49.894Z</time></trkpt><trkpt lat="43.2010246" lon="12.0638997"><ele>266.0</ele><time>2026-04-18T08:14:50.894Z</time></trkpt><trkpt lat="43.2011293" lon="12.0642044"><ele>265.5</ele><time>2026-04-18T08:14:51.895Z</time></trkpt><trkpt lat="43.2012264" lon="12.0644931"><ele>265.0</ele><time>2026-04-18T08:14:52.894Z</time></trkpt><trkpt lat="43.2013229" lon="12.0647652"><ele>265.0</ele><time>2026-04-18T08:14:53.895Z</time></trkpt><trkpt lat="43.2014167" lon="12.0650246"><ele>265.0</ele><time>2026-04-18T08:14:54.893Z</time></trkpt><trkpt lat="43.2015215" lon="12.0652885"><ele>265.0</ele><time>2026-04-18T08:14:55.894Z</time></trkpt><trkpt lat="43.2016344" lon="12.0655497"><ele>265.0</ele><time>2026-04-18T08:14:56.894Z</time></trkpt><trkpt lat="43.2017429" lon="12.0657955"><ele>265.0</ele><time>2026-04-18T08:14:57.894Z</time></trkpt><trkpt lat="43.2018493" lon="12.0660242"><ele>265.0</ele><time>2026-04-18T08:14:58.894Z</time></trkpt><trkpt lat="43.2019382" lon="12.0662497"><ele>265.0</ele><time>2026-04-18T08:14:59.894Z</time></trkpt><trkpt lat="43.2020066" lon="12.0664688"><ele>265.0</ele><time>2026-04-18T08:15:00.893Z</time></trkpt><trkpt lat="43.2020572" lon="12.0667007"><ele>265.0</ele><time>2026-04-18T08:15:01.894Z</time></trkpt><trkpt lat="43.2020982" lon="12.0669447"><ele>265.0</ele><time>2026-04-18T08:15:02.894Z</time></trkpt><trkpt lat="43.2021357" lon="12.0672024"><ele>265.0</ele><time>2026-04-18T08:15:03.893Z</time></trkpt><trkpt lat="43.2021647" lon="12.0674881"><ele>265.0</ele><time>2026-04-18T08:15:04.894Z</time></trkpt><trkpt lat="43.2021961" lon="12.0677958"><ele>265.0</ele><time>2026-04-18T08:15:05.893Z</time></trkpt><trkpt lat="43.2022221" lon="12.0681167"><ele>265.0</ele><time>2026-04-18T08:15:06.893Z</time></trkpt><trkpt lat="43.2022481" lon="12.0684181"><ele>264.66666666666663</ele><time>2026-04-18T08:15:07.893Z</time></trkpt><trkpt lat="43.2022676" lon="12.068698"><ele>264.3333333333333</ele><time>2026-04-18T08:15:08.893Z</time></trkpt><trkpt lat="43.2022905" lon="12.0689461"><ele>264.0</ele><time>2026-04-18T08:15:09.894Z</time></trkpt><trkpt lat="43.2023104" lon="12.0691849"><ele>264.0</ele><time>2026-04-18T08:15:10.894Z</time></trkpt><trkpt lat="43.2023289" lon="12.0694108"><ele>264.0</ele><time>2026-04-18T08:15:11.894Z</time></trkpt><trkpt lat="43.2023492" lon="12.0695998"><ele>264.0</ele><time>2026-04-18T08:15:12.893Z</time></trkpt><trkpt lat="43.2023757" lon="12.0697672"><ele>264.0</ele><time>2026-04-18T08:15:13.894Z</time></trkpt><trkpt lat="43.2024092" lon="12.069918"><ele>264.0</ele><time>2026-04-18T08:15:14.895Z</time></trkpt><trkpt lat="43.2024536" lon="12.0700701"><ele>264.0</ele><time>2026-04-18T08:15:15.894Z</time></trkpt><trkpt lat="43.2025189" lon="12.0702249"><ele>264.0</ele><time>2026-04-18T08:15:16.893Z</time></trkpt><trkpt lat="43.2025945" lon="12.070395"><ele>264.0</ele><time>2026-04-18T08:15:17.894Z</time></trkpt><trkpt lat="43.2026875" lon="12.0705673"><ele>264.0</ele><time>2026-04-18T08:15:18.894Z</time></trkpt><trkpt lat="43.202771" lon="12.0707299"><ele>264.0</ele><time>2026-04-18T08:15:19.894Z</time></trkpt><trkpt lat="43.2028387" lon="12.0709013"><ele>264.0</ele><time>2026-04-18T08:15:20.894Z</time></trkpt><trkpt lat="43.2028882" lon="12.0710931"><ele>264.0</ele><time>2026-04-18T08:15:21.894Z</time></trkpt><trkpt lat="43.2029138" lon="12.0713131"><ele>263.6666666666667</ele><time>2026-04-18T08:15:22.894Z</time></trkpt><trkpt lat="43.2029173" lon="12.0715675"><ele>263.33333333333337</ele><time>2026-04-18T08:15:23.895Z</time></trkpt><trkpt lat="43.2029067" lon="12.071835"><ele>263.0</ele><time>2026-04-18T08:15:24.894Z</time></trkpt><trkpt lat="43.2028959" lon="12.0720655"><ele>263.0</ele><time>2026-04-18T08:15:25.893Z</time></trkpt><trkpt lat="43.2029051" lon="12.072289"><ele>263.0</ele><time>2026-04-18T08:15:26.893Z</time></trkpt><trkpt lat="43.2029308" lon="12.0725222"><ele>263.0</ele><time>2026-04-18T08:15:27.893Z</time></trkpt><trkpt lat="43.2029792" lon="12.0727388"><ele>263.0</ele><time>2026-04-18T08:15:28.893Z</time></trkpt><trkpt lat="43.2030372" lon="12.0729319"><ele>263.0</ele><time>2026-04-18T08:15:29.894Z</time></trkpt><trkpt lat="43.20309" lon="12.0731129"><ele>263.0</ele><time>2026-04-18T08:15:30.895Z</time></trkpt><trkpt lat="43.2031229" lon="12.0732691"><ele>263.0</ele><time>2026-04-18T08:15:31.893Z</time></trkpt><trkpt lat="43.2031426" lon="12.0734209"><ele>263.0</ele><time>2026-04-18T08:15:32.893Z</time></trkpt><trkpt lat="43.203156" lon="12.0735649"><ele>263.0</ele><time>2026-04-18T08:15:33.893Z</time></trkpt><trkpt lat="43.203161" lon="12.073712"><ele>263.0</ele><time>2026-04-18T08:15:34.894Z</time></trkpt><trkpt lat="43.2031572" lon="12.0738615"><ele>263.0</ele><time>2026-04-18T08:15:35.894Z</time></trkpt><trkpt lat="43.2031409" lon="12.07402"><ele>263.0</ele><time>2026-04-18T08:15:36.893Z</time></trkpt><trkpt lat="43.2031186" lon="12.0741724"><ele>263.0</ele><time>2026-04-18T08:15:37.893Z</time></trkpt><trkpt lat="43.203091" lon="12.0743151"><ele>263.0</ele><time>2026-04-18T08:15:38.895Z</time></trkpt><trkpt lat="43.2030647" lon="12.0744487"><ele>263.0</ele><time>2026-04-18T08:15:39.894Z</time></trkpt><trkpt lat="43.2030415" lon="12.0745828"><ele>263.0</ele><time>2026-04-18T08:15:40.894Z</time></trkpt><trkpt lat="43.2030163" lon="12.0747249"><ele>263.0</ele><time>2026-04-18T08:15:41.893Z</time></trkpt><trkpt lat="43.2029909" lon="12.0748697"><ele>263.0</ele><time>2026-04-18T08:15:42.894Z</time></trkpt><trkpt lat="43.2029628" lon="12.0750296"><ele>263.0</ele><time>2026-04-18T08:15:43.894Z</time></trkpt><trkpt lat="43.2029315" lon="12.075193"><ele>263.0</ele><time>2026-04-18T08:15:44.893Z</time></trkpt><trkpt lat="43.2029001" lon="12.075354"><ele>263.0</ele><time>2026-04-18T08:15:45.893Z</time></trkpt><trkpt lat="43.2028674" lon="12.0755102"><ele>263.0</ele><time>2026-04-18T08:15:46.893Z</time></trkpt><trkpt lat="43.2028394" lon="12.0756569"><ele>263.0</ele><time>2026-04-18T08:15:47.893Z</time></trkpt><trkpt lat="43.2028158" lon="12.0757888"><ele>263.0</ele><time>2026-04-18T08:15:48.894Z</time></trkpt><trkpt lat="43.2027952" lon="12.0759101"><ele>263.0</ele><time>2026-04-18T08:15:49.894Z</time></trkpt><trkpt lat="43.2027759" lon="12.0760132"><ele>263.0</ele><time>2026-04-18T08:15:50.894Z</time></trkpt><trkpt lat="43.2027576" lon="12.076102"><ele>263.0</ele><time>2026-04-18T08:15:51.894Z</time></trkpt><trkpt lat="43.2027349" lon="12.0762482"><ele>263.33333333333337</ele><time>2026-04-18T08:15:53.893Z</time></trkpt><trkpt lat="43.2027076" lon="12.076369"><ele>263.6666666666667</ele><time>2026-04-18T08:15:55.893Z</time></trkpt><trkpt lat="43.2026843" lon="12.0764738"><ele>264.0</ele><time>2026-04-18T08:15:57.894Z</time></trkpt><trkpt lat="43.2026664" lon="12.0765682"><ele>264.3333333333333</ele><time>2026-04-18T08:15:59.894Z</time></trkpt><trkpt lat="43.2026455" lon="12.0766904"><ele>264.66666666666663</ele><time>2026-04-18T08:16:29.895Z</time></trkpt><trkpt lat="43.2026135" lon="12.0768201"><ele>265.0</ele><time>2026-04-18T08:16:31.894Z</time></trkpt><trkpt lat="43.2025736" lon="12.0769564"><ele>265.2</ele><time>2026-04-18T08:16:33.894Z</time></trkpt><trkpt lat="43.2024626" lon="12.077012"><ele>265.4</ele><time>2026-04-18T08:16:35.895Z</time></trkpt><trkpt lat="43.2023795" lon="12.07701"><ele>265.6</ele><time>2026-04-18T08:16:36.894Z</time></trkpt><trkpt lat="43.2022785" lon="12.0770116"><ele>265.8</ele><time>2026-04-18T08:16:37.894Z</time></trkpt><trkpt lat="43.2021611" lon="12.0770071"><ele>266.0</ele><time>2026-04-18T08:16:38.895Z</time></trkpt><trkpt lat="43.2020597" lon="12.0769964"><ele>266.0</ele><time>2026-04-18T08:16:39.894Z</time></trkpt><trkpt lat="43.2019805" lon="12.0769892"><ele>266.0</ele><time>2026-04-18T08:16:40.894Z</time></trkpt><trkpt lat="43.201913" lon="12.076981"><ele>266.0</ele><time>2026-04-18T08:16:41.895Z</time></trkpt><trkpt lat="43.2018394" lon="12.0769743"><ele>266.0</ele><time>2026-04-18T08:16:42.894Z</time></trkpt><trkpt lat="43.2017483" lon="12.0769688"><ele>266.0</ele><time>2026-04-18T08:16:43.894Z</time></trkpt><trkpt lat="43.2016463" lon="12.0769601"><ele>266.0</ele><time>2026-04-18T08:16:44.894Z</time></trkpt><trkpt lat="43.201525" lon="12.076958"><ele>265.5</ele><time>2026-04-18T08:16:45.894Z</time></trkpt><trkpt lat="43.2013933" lon="12.0769502"><ele>265.0</ele><time>2026-04-18T08:16:46.894Z</time></trkpt><trkpt lat="43.2012524" lon="12.0769392"><ele>264.5</ele><time>2026-04-18T08:16:47.894Z</time></trkpt><trkpt lat="43.201121" lon="12.0769276"><ele>264.0</ele><time>2026-04-18T08:16:48.895Z</time></trkpt><trkpt lat="43.2009957" lon="12.0769148"><ele>264.0</ele><time>2026-04-18T08:16:49.894Z</time></trkpt><trkpt lat="43.2008628" lon="12.0768993"><ele>264.0</ele><time>2026-04-18T08:16:50.894Z</time></trkpt><trkpt lat="43.2007211" lon="12.076887"><ele>264.0</ele><time>2026-04-18T08:16:51.894Z</time></trkpt><trkpt lat="43.2005788" lon="12.0768784"><ele>264.0</ele><time>2026-04-18T08:16:52.895Z</time></trkpt><trkpt lat="43.2004466" lon="12.0768664"><ele>264.0</ele><time>2026-04-18T08:16:53.894Z</time></trkpt><trkpt lat="43.2003029" lon="12.0768533"><ele>264.0</ele><time>2026-04-18T08:16:54.894Z</time></trkpt><trkpt lat="43.2001601" lon="12.0768391"><ele>264.0</ele><time>2026-04-18T08:16:55.894Z</time></trkpt><trkpt lat="43.2000282" lon="12.076824"><ele>264.0</ele><time>2026-04-18T08:16:56.895Z</time></trkpt><trkpt lat="43.1999083" lon="12.0768157"><ele>264.0</ele><time>2026-04-18T08:16:57.894Z</time></trkpt><trkpt lat="43.1997832" lon="12.0768039"><ele>264.0</ele><time>2026-04-18T08:16:58.894Z</time></trkpt><trkpt lat="43.1996516" lon="12.0767955"><ele>264.0</ele><time>2026-04-18T08:16:59.894Z</time></trkpt><trkpt lat="43.1995311" lon="12.0767875"><ele>264.0</ele><time>2026-04-18T08:17:00.894Z</time></trkpt><trkpt lat="43.1994115" lon="12.0767838"><ele>264.0</ele><time>2026-04-18T08:17:01.894Z</time></trkpt><trkpt lat="43.1992904" lon="12.0767761"><ele>264.0</ele><time>2026-04-18T08:17:02.894Z</time></trkpt><trkpt lat="43.1991591" lon="12.0767673"><ele>264.0</ele><time>2026-04-18T08:17:03.894Z</time></trkpt><trkpt lat="43.1990328" lon="12.0767564"><ele>264.0</ele><time>2026-04-18T08:17:04.894Z</time></trkpt><trkpt lat="43.1989205" lon="12.0767406"><ele>263.75</ele><time>2026-04-18T08:17:05.894Z</time></trkpt><trkpt lat="43.1988115" lon="12.0767244"><ele>263.5</ele><time>2026-04-18T08:17:06.894Z</time></trkpt><trkpt lat="43.1986878" lon="12.0767153"><ele>263.25</ele><time>2026-04-18T08:17:07.894Z</time></trkpt><trkpt lat="43.198564" lon="12.0767072"><ele>263.0</ele><time>2026-04-18T08:17:08.894Z</time></trkpt><trkpt lat="43.1984501" lon="12.0767012"><ele>263.0</ele><time>2026-04-18T08:17:09.894Z</time></trkpt><trkpt lat="43.1983488" lon="12.0767032"><ele>263.0</ele><time>2026-04-18T08:17:10.895Z</time></trkpt><trkpt lat="43.1982713" lon="12.0767061"><ele>263.0</ele><time>2026-04-18T08:17:11.894Z</time></trkpt><trkpt lat="43.198163" lon="12.0767156"><ele>263.0</ele><time>2026-04-18T08:17:13.894Z</time></trkpt><trkpt lat="43.1980789" lon="12.0767429"><ele>263.0</ele><time>2026-04-18T08:17:15.894Z</time></trkpt><trkpt lat="43.1979826" lon="12.0767888"><ele>262.8</ele><time>2026-04-18T08:17:17.894Z</time></trkpt><trkpt lat="43.1979137" lon="12.0768664"><ele>262.6</ele><time>2026-04-18T08:17:19.894Z</time></trkpt><trkpt lat="43.1978679" lon="12.0769769"><ele>262.4</ele><time>2026-04-18T08:17:21.893Z</time></trkpt><trkpt lat="43.1978403" lon="12.0771074"><ele>262.2</ele><time>2026-04-18T08:17:23.893Z</time></trkpt><trkpt lat="43.1977874" lon="12.0772304"><ele>262.0</ele><time>2026-04-18T08:17:25.895Z</time></trkpt><trkpt lat="43.1977028" lon="12.0773209"><ele>262.0</ele><time>2026-04-18T08:17:27.893Z</time></trkpt><trkpt lat="43.1975801" lon="12.0773711"><ele>262.0</ele><time>2026-04-18T08:17:29.894Z</time></trkpt><trkpt lat="43.1975056" lon="12.0773846"><ele>262.0</ele><time>2026-04-18T08:17:30.894Z</time></trkpt><trkpt lat="43.1974252" lon="12.0773944"><ele>262.0</ele><time>2026-04-18T08:17:31.895Z</time></trkpt><trkpt lat="43.1973481" lon="12.0773999"><ele>262.0</ele><time>2026-04-18T08:17:32.894Z</time></trkpt><trkpt lat="43.1972687" lon="12.0774106"><ele>262.0</ele><time>2026-04-18T08:17:33.893Z</time></trkpt><trkpt lat="43.1971888" lon="12.07742"><ele>261.8333333333333</ele><time>2026-04-18T08:17:34.893Z</time></trkpt><trkpt lat="43.1971171" lon="12.0774367"><ele>261.66666666666663</ele><time>2026-04-18T08:17:35.893Z</time></trkpt><trkpt lat="43.1970379" lon="12.0774361"><ele>261.5</ele><time>2026-04-18T08:17:36.893Z</time></trkpt><trkpt lat="43.1969591" lon="12.0774382"><ele>261.3333333333333</ele><time>2026-04-18T08:17:37.895Z</time></trkpt><trkpt lat="43.1968847" lon="12.0774498"><ele>261.1666666666667</ele><time>2026-04-18T08:17:38.894Z</time></trkpt><trkpt lat="43.1968205" lon="12.0774531"><ele>261.0</ele><time>2026-04-18T08:17:39.895Z</time></trkpt><trkpt lat="43.1967146" lon="12.0774648"><ele>261.0</ele><time>2026-04-18T08:17:41.894Z</time></trkpt><trkpt lat="43.1966415" lon="12.0775849"><ele>261.0</ele><time>2026-04-18T08:17:43.894Z</time></trkpt><trkpt lat="43.1966447" lon="12.0776934"><ele>261.0</ele><time>2026-04-18T08:17:44.894Z</time></trkpt><trkpt lat="43.196663" lon="12.0778122"><ele>261.0</ele><time>2026-04-18T08:17:45.894Z</time></trkpt><trkpt lat="43.1966855" lon="12.0779527"><ele>261.0</ele><time>2026-04-18T08:17:46.894Z</time></trkpt><trkpt lat="43.1967002" lon="12.0780725"><ele>261.0</ele><time>2026-04-18T08:17:47.894Z</time></trkpt><trkpt lat="43.1967304" lon="12.078169"><ele>261.0</ele><time>2026-04-18T08:17:48.894Z</time></trkpt><trkpt lat="43.1967728" lon="12.0782387"><ele>261.0</ele><time>2026-04-18T08:17:49.893Z</time></trkpt><trkpt lat="43.1969196" lon="12.0782602"><ele>261.0</ele><time>2026-04-18T08:17:51.894Z</time></trkpt><trkpt lat="43.1970089" lon="12.0782464"><ele>261.0</ele><time>2026-04-18T08:17:52.894Z</time></trkpt><trkpt lat="43.1971037" lon="12.078269"><ele>261.2</ele><time>2026-04-18T08:17:53.893Z</time></trkpt><trkpt lat="43.1971795" lon="12.0783453"><ele>261.40000000000003</ele><time>2026-04-18T08:17:54.894Z</time></trkpt><trkpt lat="43.1972379" lon="12.0784632"><ele>261.6</ele><time>2026-04-18T08:17:55.894Z</time></trkpt><trkpt lat="43.1972695" lon="12.0786179"><ele>261.8</ele><time>2026-04-18T08:17:56.895Z</time></trkpt><trkpt lat="43.1972834" lon="12.078798"><ele>262.0</ele><time>2026-04-18T08:17:57.894Z</time></trkpt><trkpt lat="43.1973018" lon="12.0790126"><ele>262.3333333333333</ele><time>2026-04-18T08:17:58.893Z</time></trkpt><trkpt lat="43.1973278" lon="12.0792665"><ele>262.6666666666667</ele><time>2026-04-18T08:17:59.894Z</time></trkpt><trkpt lat="43.1973572" lon="12.0795478"><ele>263.0</ele><time>2026-04-18T08:18:00.894Z</time></trkpt><trkpt lat="43.1973877" lon="12.0798526"><ele>261.5</ele><time>2026-04-18T08:18:01.894Z</time></trkpt><trkpt lat="43.1974088" lon="12.0801758"><ele>260.0</ele><time>2026-04-18T08:18:02.894Z</time></trkpt><trkpt lat="43.1974296" lon="12.0805142"><ele>260.5</ele><time>2026-04-18T08:18:03.893Z</time></trkpt><trkpt lat="43.1974526" lon="12.0808717"><ele>261.0</ele><time>2026-04-18T08:18:04.894Z</time></trkpt><trkpt lat="43.1974782" lon="12.0812416"><ele>260.5</ele><time>2026-04-18T08:18:05.895Z</time></trkpt><trkpt lat="43.1975032" lon="12.0816158"><ele>260.0</ele><time>2026-04-18T08:18:06.894Z</time></trkpt><trkpt lat="43.1975321" lon="12.0820073"><ele>260.0</ele><time>2026-04-18T08:18:07.894Z</time></trkpt><trkpt lat="43.1975553" lon="12.0824052"><ele>260.0</ele><time>2026-04-18T08:18:08.894Z</time></trkpt><trkpt lat="43.1975726" lon="12.0828183"><ele>260.0</ele><time>2026-04-18T08:18:09.894Z</time></trkpt><trkpt lat="43.1975834" lon="12.083232"><ele>260.0</ele><time>2026-04-18T08:18:10.895Z</time></trkpt><trkpt lat="43.1975786" lon="12.0836511"><ele>260.0</ele><time>2026-04-18T08:18:11.894Z</time></trkpt><trkpt lat="43.1975639" lon="12.0840729"><ele>260.0</ele><time>2026-04-18T08:18:12.894Z</time></trkpt><trkpt lat="43.1975422" lon="12.0844945"><ele>261.0</ele><time>2026-04-18T08:18:13.894Z</time></trkpt><trkpt lat="43.1975089" lon="12.0849174"><ele>262.0</ele><time>2026-04-18T08:18:14.895Z</time></trkpt><trkpt lat="43.1974672" lon="12.0853401"><ele>262.0</ele><time>2026-04-18T08:18:15.893Z</time></trkpt><trkpt lat="43.1974176" lon="12.085759"><ele>262.0</ele><time>2026-04-18T08:18:16.893Z</time></trkpt><trkpt lat="43.1973565" lon="12.0861743"><ele>260.5</ele><time>2026-04-18T08:18:17.893Z</time></trkpt><trkpt lat="43.1972915" lon="12.0865904"><ele>259.0</ele><time>2026-04-18T08:18:18.894Z</time></trkpt><trkpt lat="43.1972318" lon="12.0870051"><ele>259.0</ele><time>2026-04-18T08:18:19.894Z</time></trkpt><trkpt lat="43.1971752" lon="12.0874173"><ele>259.0</ele><time>2026-04-18T08:18:20.895Z</time></trkpt><trkpt lat="43.1971113" lon="12.0878301"><ele>259.0</ele><time>2026-04-18T08:18:21.894Z</time></trkpt><trkpt lat="43.1970499" lon="12.0882467"><ele>259.0</ele><time>2026-04-18T08:18:22.894Z</time></trkpt><trkpt lat="43.1969895" lon="12.088659"><ele>259.5</ele><time>2026-04-18T08:18:23.894Z</time></trkpt><trkpt lat="43.1969313" lon="12.0890743"><ele>260.0</ele><time>2026-04-18T08:18:24.895Z</time></trkpt><trkpt lat="43.1968739" lon="12.0894906"><ele>260.0</ele><time>2026-04-18T08:18:25.893Z</time></trkpt><trkpt lat="43.1968166" lon="12.0899026"><ele>260.0</ele><time>2026-04-18T08:18:26.894Z</time></trkpt><trkpt lat="43.1967585" lon="12.0903168"><ele>260.5</ele><time>2026-04-18T08:18:27.894Z</time></trkpt><trkpt lat="43.1967015" lon="12.090732"><ele>261.0</ele><time>2026-04-18T08:18:28.893Z</time></trkpt><trkpt lat="43.1966417" lon="12.0911479"><ele>261.0</ele><time>2026-04-18T08:18:29.893Z</time></trkpt><trkpt lat="43.1965823" lon="12.0915624"><ele>261.0</ele><time>2026-04-18T08:18:30.894Z</time></trkpt><trkpt lat="43.1965224" lon="12.0919805"><ele>260.5</ele><time>2026-04-18T08:18:31.893Z</time></trkpt><trkpt lat="43.1964591" lon="12.0924009"><ele>260.0</ele><time>2026-04-18T08:18:32.893Z</time></trkpt><trkpt lat="43.1963955" lon="12.0928226"><ele>259.5</ele><time>2026-04-18T08:18:33.893Z</time></trkpt><trkpt lat="43.1963326" lon="12.0932442"><ele>259.0</ele><time>2026-04-18T08:18:34.893Z</time></trkpt><trkpt lat="43.1962683" lon="12.0936714"><ele>259.5</ele><time>2026-04-18T08:18:35.893Z</time></trkpt><trkpt lat="43.1962076" lon="12.0941004"><ele>260.0</ele><time>2026-04-18T08:18:36.893Z</time></trkpt><trkpt lat="43.1961482" lon="12.0945273"><ele>260.0</ele><time>2026-04-18T08:18:37.893Z</time></trkpt><trkpt lat="43.1960863" lon="12.0949539"><ele>260.0</ele><time>2026-04-18T08:18:38.894Z</time></trkpt><trkpt lat="43.1960252" lon="12.095379"><ele>260.0</ele><time>2026-04-18T08:18:39.893Z</time></trkpt><trkpt lat="43.1959651" lon="12.0958025"><ele>260.0</ele><time>2026-04-18T08:18:40.894Z</time></trkpt><trkpt lat="43.1959057" lon="12.09623"><ele>259.0</ele><time>2026-04-18T08:18:41.893Z</time></trkpt><trkpt lat="43.1958445" lon="12.0966541"><ele>258.0</ele><time>2026-04-18T08:18:42.893Z</time></trkpt><trkpt lat="43.1957862" lon="12.0970722"><ele>258.0</ele><time>2026-04-18T08:18:43.893Z</time></trkpt><trkpt lat="43.1957262" lon="12.0974909"><ele>258.0</ele><time>2026-04-18T08:18:44.894Z</time></trkpt><trkpt lat="43.1956643" lon="12.0979123"><ele>258.5</ele><time>2026-04-18T08:18:45.893Z</time></trkpt><trkpt lat="43.1956064" lon="12.0983282"><ele>259.0</ele><time>2026-04-18T08:18:46.893Z</time></trkpt><trkpt lat="43.1955481" lon="12.0987433"><ele>258.5</ele><time>2026-04-18T08:18:47.892Z</time></trkpt><trkpt lat="43.1954877" lon="12.0991579"><ele>258.0</ele><time>2026-04-18T08:18:48.893Z</time></trkpt><trkpt lat="43.1954301" lon="12.0995742"><ele>259.0</ele><time>2026-04-18T08:18:49.892Z</time></trkpt><trkpt lat="43.1953759" lon="12.0999936"><ele>260.0</ele><time>2026-04-18T08:18:50.892Z</time></trkpt><trkpt lat="43.1953324" lon="12.1004114"><ele>259.5</ele><time>2026-04-18T08:18:51.893Z</time></trkpt><trkpt lat="43.1952977" lon="12.1008292"><ele>259.0</ele><time>2026-04-18T08:18:52.893Z</time></trkpt><trkpt lat="43.1952611" lon="12.101249"><ele>259.0</ele><time>2026-04-18T08:18:53.893Z</time></trkpt><trkpt lat="43.1952327" lon="12.1016655"><ele>259.0</ele><time>2026-04-18T08:18:54.892Z</time></trkpt><trkpt lat="43.1952089" lon="12.1020863"><ele>259.5</ele><time>2026-04-18T08:18:55.893Z</time></trkpt><trkpt lat="43.1951947" lon="12.1025013"><ele>260.0</ele><time>2026-04-18T08:18:56.893Z</time></trkpt><trkpt lat="43.1951884" lon="12.1029218"><ele>259.5</ele><time>2026-04-18T08:18:57.894Z</time></trkpt><trkpt lat="43.1951892" lon="12.1033395"><ele>259.0</ele><time>2026-04-18T08:18:58.893Z</time></trkpt><trkpt lat="43.1951977" lon="12.1037508"><ele>259.5</ele><time>2026-04-18T08:18:59.893Z</time></trkpt><trkpt lat="43.1952149" lon="12.104165"><ele>260.0</ele><time>2026-04-18T08:19:00.893Z</time></trkpt><trkpt lat="43.1952427" lon="12.1045763"><ele>260.5</ele><time>2026-04-18T08:19:01.893Z</time></trkpt><trkpt lat="43.1952743" lon="12.1049836"><ele>261.0</ele><time>2026-04-18T08:19:02.893Z</time></trkpt><trkpt lat="43.1953067" lon="12.1053942"><ele>260.5</ele><time>2026-04-18T08:19:03.894Z</time></trkpt><trkpt lat="43.1953428" lon="12.1058011"><ele>260.0</ele><time>2026-04-18T08:19:04.893Z</time></trkpt><trkpt lat="43.195381" lon="12.1062025"><ele>261.5</ele><time>2026-04-18T08:19:05.894Z</time></trkpt><trkpt lat="43.195418" lon="12.1066044"><ele>263.0</ele><time>2026-04-18T08:19:06.893Z</time></trkpt><trkpt lat="43.1954538" lon="12.107006"><ele>263.0</ele><time>2026-04-18T08:19:07.893Z</time></trkpt><trkpt lat="43.1954927" lon="12.1074031"><ele>263.0</ele><time>2026-04-18T08:19:08.892Z</time></trkpt><trkpt lat="43.1955299" lon="12.1078027"><ele>263.0</ele><time>2026-04-18T08:19:09.893Z</time></trkpt><trkpt lat="43.1955696" lon="12.1082043"><ele>263.0</ele><time>2026-04-18T08:19:10.893Z</time></trkpt><trkpt lat="43.1956046" lon="12.1086073"><ele>262.5</ele><time>2026-04-18T08:19:11.893Z</time></trkpt><trkpt lat="43.1956399" lon="12.1090081"><ele>262.0</ele><time>2026-04-18T08:19:12.893Z</time></trkpt><trkpt lat="43.195678" lon="12.1094058"><ele>262.0</ele><time>2026-04-18T08:19:13.893Z</time></trkpt><trkpt lat="43.1957126" lon="12.1098041"><ele>262.0</ele><time>2026-04-18T08:19:14.893Z</time></trkpt><trkpt lat="43.1957463" lon="12.1102069"><ele>263.0</ele><time>2026-04-18T08:19:15.892Z</time></trkpt><trkpt lat="43.1957774" lon="12.1106094"><ele>264.0</ele><time>2026-04-18T08:19:16.893Z</time></trkpt><trkpt lat="43.1958124" lon="12.1110109"><ele>265.0</ele><time>2026-04-18T08:19:17.893Z</time></trkpt><trkpt lat="43.1958434" lon="12.1114075"><ele>266.0</ele><time>2026-04-18T08:19:18.893Z</time></trkpt><trkpt lat="43.1958776" lon="12.1118081"><ele>266.0</ele><time>2026-04-18T08:19:19.893Z</time></trkpt><trkpt lat="43.1959085" lon="12.1122059"><ele>266.0</ele><time>2026-04-18T08:19:20.892Z</time></trkpt><trkpt lat="43.1959364" lon="12.1126033"><ele>265.5</ele><time>2026-04-18T08:19:21.893Z</time></trkpt><trkpt lat="43.1959695" lon="12.113003"><ele>265.0</ele><time>2026-04-18T08:19:22.893Z</time></trkpt><trkpt lat="43.1960047" lon="12.1133963"><ele>265.0</ele><time>2026-04-18T08:19:23.893Z</time></trkpt><trkpt lat="43.1960396" lon="12.1137939"><ele>265.0</ele><time>2026-04-18T08:19:24.893Z</time></trkpt><trkpt lat="43.1960729" lon="12.1141939"><ele>265.0</ele><time>2026-04-18T08:19:25.893Z</time></trkpt><trkpt lat="43.1961064" lon="12.1145964"><ele>265.0</ele><time>2026-04-18T08:19:26.892Z</time></trkpt><trkpt lat="43.1961397" lon="12.1149987"><ele>265.0</ele><time>2026-04-18T08:19:27.894Z</time></trkpt><trkpt lat="43.1961707" lon="12.1153977"><ele>265.0</ele><time>2026-04-18T08:19:28.893Z</time></trkpt><trkpt lat="43.1962036" lon="12.1158034"><ele>265.0</ele><time>2026-04-18T08:19:29.893Z</time></trkpt><trkpt lat="43.1962347" lon="12.1162102"><ele>265.0</ele><time>2026-04-18T08:19:30.893Z</time></trkpt><trkpt lat="43.1962661" lon="12.1166164"><ele>265.5</ele><time>2026-04-18T08:19:31.893Z</time></trkpt><trkpt lat="43.1963025" lon="12.1170263"><ele>266.0</ele><time>2026-04-18T08:19:32.893Z</time></trkpt><trkpt lat="43.1963426" lon="12.1174341"><ele>267.5</ele><time>2026-04-18T08:19:33.893Z</time></trkpt><trkpt lat="43.1963781" lon="12.1178479"><ele>269.0</ele><time>2026-04-18T08:19:34.894Z</time></trkpt><trkpt lat="43.1964137" lon="12.1182563"><ele>272.5</ele><time>2026-04-18T08:19:35.893Z</time></trkpt><trkpt lat="43.1964494" lon="12.1186649"><ele>276.0</ele><time>2026-04-18T08:19:36.893Z</time></trkpt><trkpt lat="43.196485" lon="12.1190701"><ele>283.0</ele><time>2026-04-18T08:19:37.893Z</time></trkpt><trkpt lat="43.1965248" lon="12.1194738"><ele>290.0</ele><time>2026-04-18T08:19:38.893Z</time></trkpt><trkpt lat="43.1965655" lon="12.119875"><ele>297.5</ele><time>2026-04-18T08:19:39.894Z</time></trkpt><trkpt lat="43.196604" lon="12.1202701"><ele>305.0</ele><time>2026-04-18T08:19:40.894Z</time></trkpt><trkpt lat="43.1966424" lon="12.1206705"><ele>308.0</ele><time>2026-04-18T08:19:41.892Z</time></trkpt><trkpt lat="43.1970622" lon="12.1252373"><ele>308.0</ele><time>2026-04-18T08:19:52.893Z</time></trkpt><trkpt lat="43.1971014" lon="12.1256405"><ele>308.0</ele><time>2026-04-18T08:19:53.894Z</time></trkpt><trkpt lat="43.1971383" lon="12.1260442"><ele>309.5</ele><time>2026-04-18T08:19:54.893Z</time></trkpt><trkpt lat="43.1971714" lon="12.126455"><ele>311.0</ele><time>2026-04-18T08:19:55.892Z</time></trkpt><trkpt lat="43.1972007" lon="12.1268564"><ele>312.0</ele><time>2026-04-18T08:19:56.894Z</time></trkpt><trkpt lat="43.1972129" lon="12.1272617"><ele>313.0</ele><time>2026-04-18T08:19:57.892Z</time></trkpt><trkpt lat="43.1972111" lon="12.1276632"><ele>314.0</ele><time>2026-04-18T08:19:58.892Z</time></trkpt><trkpt lat="43.1971914" lon="12.1280614"><ele>315.0</ele><time>2026-04-18T08:19:59.893Z</time></trkpt><trkpt lat="43.1971567" lon="12.128464"><ele>313.0</ele><time>2026-04-18T08:20:00.892Z</time></trkpt><trkpt lat="43.1971129" lon="12.1288595"><ele>311.0</ele><time>2026-04-18T08:20:01.893Z</time></trkpt><trkpt lat="43.1970534" lon="12.1292557"><ele>311.0</ele><time>2026-04-18T08:20:02.893Z</time></trkpt><trkpt lat="43.1969807" lon="12.1296429"><ele>311.0</ele><time>2026-04-18T08:20:03.893Z</time></trkpt><trkpt lat="43.1968906" lon="12.1300245"><ele>311.0</ele><time>2026-04-18T08:20:04.893Z</time></trkpt><trkpt lat="43.1967866" lon="12.1303956"><ele>311.0</ele><time>2026-04-18T08:20:05.893Z</time></trkpt><trkpt lat="43.1966705" lon="12.130762"><ele>312.5</ele><time>2026-04-18T08:20:06.893Z</time></trkpt><trkpt lat="43.1965409" lon="12.131119"><ele>314.0</ele><time>2026-04-18T08:20:07.892Z</time></trkpt><trkpt lat="43.1964033" lon="12.1314662"><ele>310.5</ele><time>2026-04-18T08:20:08.893Z</time></trkpt><trkpt lat="43.1962597" lon="12.1318166"><ele>307.0</ele><time>2026-04-18T08:20:09.893Z</time></trkpt><trkpt lat="43.1961174" lon="12.1321627"><ele>309.5</ele><time>2026-04-18T08:20:10.892Z</time></trkpt><trkpt lat="43.1959761" lon="12.132511"><ele>312.0</ele><time>2026-04-18T08:20:11.894Z</time></trkpt><trkpt lat="43.195835" lon="12.13286"><ele>312.0</ele><time>2026-04-18T08:20:12.893Z</time></trkpt><trkpt lat="43.1956923" lon="12.1332101"><ele>312.0</ele><time>2026-04-18T08:20:13.893Z</time></trkpt><trkpt lat="43.1955508" lon="12.1335621"><ele>308.5</ele><time>2026-04-18T08:20:14.892Z</time></trkpt><trkpt lat="43.1954077" lon="12.133918"><ele>305.0</ele><time>2026-04-18T08:20:15.893Z</time></trkpt><trkpt lat="43.1952582" lon="12.1342737"><ele>305.0</ele><time>2026-04-18T08:20:16.893Z</time></trkpt><trkpt lat="43.1951113" lon="12.1346275"><ele>305.0</ele><time>2026-04-18T08:20:17.893Z</time></trkpt><trkpt lat="43.1949634" lon="12.1349819"><ele>300.5</ele><time>2026-04-18T08:20:18.893Z</time></trkpt><trkpt lat="43.19481" lon="12.1353443"><ele>296.0</ele><time>2026-04-18T08:20:19.893Z</time></trkpt><trkpt lat="43.1946655" lon="12.1357011"><ele>301.5</ele><time>2026-04-18T08:20:20.893Z</time></trkpt><trkpt lat="43.1945179" lon="12.1360597"><ele>307.0</ele><time>2026-04-18T08:20:21.893Z</time></trkpt><trkpt lat="43.194372" lon="12.1364195"><ele>311.5</ele><time>2026-04-18T08:20:22.893Z</time></trkpt><trkpt lat="43.1942358" lon="12.136767"><ele>316.0</ele><time>2026-04-18T08:20:23.894Z</time></trkpt><trkpt lat="43.1940935" lon="12.1371166"><ele>310.0</ele><time>2026-04-18T08:20:24.893Z</time></trkpt><trkpt lat="43.1939327" lon="12.1374751"><ele>304.0</ele><time>2026-04-18T08:20:25.893Z</time></trkpt><trkpt lat="43.1937756" lon="12.1378389"><ele>304.0</ele><time>2026-04-18T08:20:26.893Z</time></trkpt><trkpt lat="43.1936209" lon="12.1382016"><ele>304.0</ele><time>2026-04-18T08:20:27.893Z</time></trkpt><trkpt lat="43.193476" lon="12.1385661"><ele>303.0</ele><time>2026-04-18T08:20:28.893Z</time></trkpt><trkpt lat="43.1933243" lon="12.1389309"><ele>302.0</ele><time>2026-04-18T08:20:29.893Z</time></trkpt><trkpt lat="43.1931775" lon="12.1392896"><ele>298.5</ele><time>2026-04-18T08:20:30.893Z</time></trkpt><trkpt lat="43.1930202" lon="12.1396489"><ele>295.0</ele><time>2026-04-18T08:20:31.894Z</time></trkpt><trkpt lat="43.192865" lon="12.140006"><ele>295.0</ele><time>2026-04-18T08:20:32.893Z</time></trkpt><trkpt lat="43.192714" lon="12.1403567"><ele>295.0</ele><time>2026-04-18T08:20:33.892Z</time></trkpt><trkpt lat="43.1925631" lon="12.1407086"><ele>294.0</ele><time>2026-04-18T08:20:34.893Z</time></trkpt><trkpt lat="43.1924152" lon="12.1410616"><ele>293.0</ele><time>2026-04-18T08:20:35.892Z</time></trkpt><trkpt lat="43.1922656" lon="12.1414176"><ele>293.0</ele><time>2026-04-18T08:20:36.892Z</time></trkpt><trkpt lat="43.1921141" lon="12.1417716"><ele>293.0</ele><time>2026-04-18T08:20:37.892Z</time></trkpt><trkpt lat="43.19197" lon="12.1421232"><ele>299.5</ele><time>2026-04-18T08:20:38.892Z</time></trkpt><trkpt lat="43.191825" lon="12.1424776"><ele>306.0</ele><time>2026-04-18T08:20:39.893Z</time></trkpt><trkpt lat="43.1916926" lon="12.1428094"><ele>306.0</ele><time>2026-04-18T08:20:40.893Z</time></trkpt><trkpt lat="43.1915538" lon="12.1431437"><ele>306.0</ele><time>2026-04-18T08:20:41.892Z</time></trkpt><trkpt lat="43.1922754" lon="12.1414039"><ele>281.0</ele><time>2026-04-18T08:20:52.196Z</time></trkpt><trkpt lat="43.188534" lon="12.1504962"><ele>281.0</ele><time>2026-04-18T08:21:01.892Z</time></trkpt><trkpt lat="43.1883933" lon="12.1508458"><ele>281.0</ele><time>2026-04-18T08:21:02.893Z</time></trkpt><trkpt lat="43.1882471" lon="12.1511997"><ele>277.0</ele><time>2026-04-18T08:21:03.892Z</time></trkpt><trkpt lat="43.1881002" lon="12.1515573"><ele>273.0</ele><time>2026-04-18T08:21:04.893Z</time></trkpt><trkpt lat="43.1879435" lon="12.1519136"><ele>273.0</ele><time>2026-04-18T08:21:05.893Z</time></trkpt><trkpt lat="43.1877948" lon="12.1522599"><ele>273.0</ele><time>2026-04-18T08:21:06.893Z</time></trkpt><trkpt lat="43.1876411" lon="12.1526015"><ele>273.5</ele><time>2026-04-18T08:21:07.894Z</time></trkpt><trkpt lat="43.1874805" lon="12.1529408"><ele>274.0</ele><time>2026-04-18T08:21:08.892Z</time></trkpt><trkpt lat="43.1873109" lon="12.1532804"><ele>274.0</ele><time>2026-04-18T08:21:09.893Z</time></trkpt><trkpt lat="43.187146" lon="12.1536131"><ele>274.0</ele><time>2026-04-18T08:21:10.894Z</time></trkpt><trkpt lat="43.1869782" lon="12.1539415"><ele>274.0</ele><time>2026-04-18T08:21:11.893Z</time></trkpt><trkpt lat="43.1868103" lon="12.1542741"><ele>274.0</ele><time>2026-04-18T08:21:12.893Z</time></trkpt><trkpt lat="43.1866438" lon="12.1546047"><ele>270.5</ele><time>2026-04-18T08:21:13.893Z</time></trkpt><trkpt lat="43.1864806" lon="12.154934"><ele>267.0</ele><time>2026-04-18T08:21:14.894Z</time></trkpt><trkpt lat="43.1863157" lon="12.1552628"><ele>267.0</ele><time>2026-04-18T08:21:15.893Z</time></trkpt><trkpt lat="43.1861507" lon="12.1555899"><ele>267.0</ele><time>2026-04-18T08:21:16.893Z</time></trkpt><trkpt lat="43.1859846" lon="12.1559137"><ele>267.0</ele><time>2026-04-18T08:21:17.893Z</time></trkpt><trkpt lat="43.18582" lon="12.1562406"><ele>267.0</ele><time>2026-04-18T08:21:18.893Z</time></trkpt><trkpt lat="43.1856603" lon="12.1565645"><ele>264.5</ele><time>2026-04-18T08:21:19.893Z</time></trkpt><trkpt lat="43.1855028" lon="12.1568904"><ele>262.0</ele><time>2026-04-18T08:21:20.893Z</time></trkpt><trkpt lat="43.1853498" lon="12.1572138"><ele>263.5</ele><time>2026-04-18T08:21:21.894Z</time></trkpt><trkpt lat="43.1852062" lon="12.157537"><ele>265.0</ele><time>2026-04-18T08:21:22.893Z</time></trkpt><trkpt lat="43.1850612" lon="12.1578703"><ele>263.5</ele><time>2026-04-18T08:21:23.893Z</time></trkpt><trkpt lat="43.1849198" lon="12.1582056"><ele>262.0</ele><time>2026-04-18T08:21:24.893Z</time></trkpt><trkpt lat="43.1847815" lon="12.1585423"><ele>262.0</ele><time>2026-04-18T08:21:25.894Z</time></trkpt><trkpt lat="43.1846464" lon="12.1588812"><ele>262.0</ele><time>2026-04-18T08:21:26.893Z</time></trkpt><trkpt lat="43.184516" lon="12.1592205"><ele>262.5</ele><time>2026-04-18T08:21:27.893Z</time></trkpt><trkpt lat="43.1843864" lon="12.1595651"><ele>263.0</ele><time>2026-04-18T08:21:28.893Z</time></trkpt><trkpt lat="43.184265" lon="12.1599108"><ele>263.5</ele><time>2026-04-18T08:21:29.893Z</time></trkpt><trkpt lat="43.1841452" lon="12.1602588"><ele>264.0</ele><time>2026-04-18T08:21:30.893Z</time></trkpt><trkpt lat="43.1840304" lon="12.1606103"><ele>264.5</ele><time>2026-04-18T08:21:31.893Z</time></trkpt><trkpt lat="43.1839185" lon="12.1609587"><ele>265.0</ele><time>2026-04-18T08:21:32.894Z</time></trkpt><trkpt lat="43.1838114" lon="12.1613123"><ele>265.0</ele><time>2026-04-18T08:21:33.893Z</time></trkpt><trkpt lat="43.1837077" lon="12.1616668"><ele>265.0</ele><time>2026-04-18T08:21:34.893Z</time></trkpt><trkpt lat="43.1836082" lon="12.1620276"><ele>266.0</ele><time>2026-04-18T08:21:35.893Z</time></trkpt><trkpt lat="43.1835169" lon="12.162393"><ele>267.0</ele><time>2026-04-18T08:21:36.892Z</time></trkpt><trkpt lat="43.1834279" lon="12.1627587"><ele>267.0</ele><time>2026-04-18T08:21:37.893Z</time></trkpt><trkpt lat="43.1833431" lon="12.1631303"><ele>267.0</ele><time>2026-04-18T08:21:38.892Z</time></trkpt><trkpt lat="43.1832598" lon="12.1635058"><ele>265.0</ele><time>2026-04-18T08:21:39.893Z</time></trkpt><trkpt lat="43.1831776" lon="12.1638884"><ele>263.0</ele><time>2026-04-18T08:21:40.892Z</time></trkpt><trkpt lat="43.1830955" lon="12.1642774"><ele>263.0</ele><time>2026-04-18T08:21:41.894Z</time></trkpt><trkpt lat="43.1830164" lon="12.164671"><ele>263.0</ele><time>2026-04-18T08:21:42.894Z</time></trkpt><trkpt lat="43.1829411" lon="12.1650701"><ele>263.5</ele><time>2026-04-18T08:21:43.892Z</time></trkpt><trkpt lat="43.1828684" lon="12.1654689"><ele>264.0</ele><time>2026-04-18T08:21:44.892Z</time></trkpt><trkpt lat="43.1827959" lon="12.1658672"><ele>264.5</ele><time>2026-04-18T08:21:45.893Z</time></trkpt><trkpt lat="43.1827239" lon="12.1662655"><ele>265.0</ele><time>2026-04-18T08:21:46.893Z</time></trkpt><trkpt lat="43.1826496" lon="12.1666635"><ele>264.5</ele><time>2026-04-18T08:21:47.893Z</time></trkpt><trkpt lat="43.1825768" lon="12.167057"><ele>264.0</ele><time>2026-04-18T08:21:48.893Z</time></trkpt><trkpt lat="43.1825011" lon="12.1674511"><ele>264.0</ele><time>2026-04-18T08:21:49.893Z</time></trkpt><trkpt lat="43.1824245" lon="12.1678455"><ele>264.0</ele><time>2026-04-18T08:21:50.893Z</time></trkpt><trkpt lat="43.1823504" lon="12.1682401"><ele>263.0</ele><time>2026-04-18T08:21:51.893Z</time></trkpt><trkpt lat="43.1822767" lon="12.1686319"><ele>262.0</ele><time>2026-04-18T08:21:52.893Z</time></trkpt><trkpt lat="43.1822058" lon="12.1690217"><ele>263.0</ele><time>2026-04-18T08:21:53.893Z</time></trkpt><trkpt lat="43.1821338" lon="12.1694166"><ele>264.0</ele><time>2026-04-18T08:21:54.893Z</time></trkpt><trkpt lat="43.1820598" lon="12.1698081"><ele>264.0</ele><time>2026-04-18T08:21:55.892Z</time></trkpt><trkpt lat="43.1819858" lon="12.1701971"><ele>264.0</ele><time>2026-04-18T08:21:56.892Z</time></trkpt><trkpt lat="43.1819118" lon="12.1705884"><ele>263.5</ele><time>2026-04-18T08:21:57.892Z</time></trkpt><trkpt lat="43.1818357" lon="12.1709783"><ele>263.0</ele><time>2026-04-18T08:21:58.892Z</time></trkpt><trkpt lat="43.1817617" lon="12.171365"><ele>263.0</ele><time>2026-04-18T08:21:59.893Z</time></trkpt><trkpt lat="43.1816881" lon="12.1717538"><ele>263.0</ele><time>2026-04-18T08:22:00.893Z</time></trkpt><trkpt lat="43.1816173" lon="12.1721388"><ele>263.5</ele><time>2026-04-18T08:22:01.893Z</time></trkpt><trkpt lat="43.1815478" lon="12.1725231"><ele>264.0</ele><time>2026-04-18T08:22:02.893Z</time></trkpt><trkpt lat="43.1814759" lon="12.172908"><ele>261.5</ele><time>2026-04-18T08:22:03.893Z</time></trkpt><trkpt lat="43.1814015" lon="12.1732887"><ele>259.0</ele><time>2026-04-18T08:22:04.893Z</time></trkpt><trkpt lat="43.1813296" lon="12.1736732"><ele>259.5</ele><time>2026-04-18T08:22:05.893Z</time></trkpt><trkpt lat="43.1812554" lon="12.174062"><ele>260.0</ele><time>2026-04-18T08:22:06.893Z</time></trkpt><trkpt lat="43.1811838" lon="12.1744512"><ele>260.0</ele><time>2026-04-18T08:22:07.892Z</time></trkpt><trkpt lat="43.1811119" lon="12.1748422"><ele>260.0</ele><time>2026-04-18T08:22:08.892Z</time></trkpt><trkpt lat="43.1810431" lon="12.1752173"><ele>261.5</ele><time>2026-04-18T08:22:09.892Z</time></trkpt><trkpt lat="43.1809751" lon="12.1755905"><ele>263.0</ele><time>2026-04-18T08:22:10.894Z</time></trkpt><trkpt lat="43.1809017" lon="12.1759649"><ele>263.0</ele><time>2026-04-18T08:22:11.892Z</time></trkpt><trkpt lat="43.1808288" lon="12.176337"><ele>263.0</ele><time>2026-04-18T08:22:12.893Z</time></trkpt><trkpt lat="43.1807504" lon="12.1767033"><ele>261.0</ele><time>2026-04-18T08:22:13.892Z</time></trkpt><trkpt lat="43.1806693" lon="12.1770505"><ele>259.0</ele><time>2026-04-18T08:22:14.894Z</time></trkpt><trkpt lat="43.1805829" lon="12.1773843"><ele>259.0</ele><time>2026-04-18T08:22:15.893Z</time></trkpt><trkpt lat="43.1804836" lon="12.1777165"><ele>259.0</ele><time>2026-04-18T08:22:16.893Z</time></trkpt><trkpt lat="43.1803814" lon="12.1780418"><ele>259.5</ele><time>2026-04-18T08:22:17.893Z</time></trkpt><trkpt lat="43.1802723" lon="12.1783691"><ele>260.0</ele><time>2026-04-18T08:22:18.893Z</time></trkpt><trkpt lat="43.1801571" lon="12.178693"><ele>260.0</ele><time>2026-04-18T08:22:19.893Z</time></trkpt><trkpt lat="43.1800293" lon="12.1790169"><ele>260.0</ele><time>2026-04-18T08:22:20.892Z</time></trkpt><trkpt lat="43.1798927" lon="12.1793407"><ele>260.0</ele><time>2026-04-18T08:22:21.893Z</time></trkpt><trkpt lat="43.1797442" lon="12.1796623"><ele>260.0</ele><time>2026-04-18T08:22:22.893Z</time></trkpt><trkpt lat="43.1795909" lon="12.1799847"><ele>260.5</ele><time>2026-04-18T08:22:23.893Z</time></trkpt><trkpt lat="43.1794294" lon="12.1803047"><ele>261.0</ele><time>2026-04-18T08:22:24.892Z</time></trkpt><trkpt lat="43.1792588" lon="12.1806194"><ele>260.5</ele><time>2026-04-18T08:22:25.892Z</time></trkpt><trkpt lat="43.179081" lon="12.1809267"><ele>260.0</ele><time>2026-04-18T08:22:26.893Z</time></trkpt><trkpt lat="43.178894" lon="12.1812278"><ele>261.5</ele><time>2026-04-18T08:22:27.893Z</time></trkpt><trkpt lat="43.1786979" lon="12.1815211"><ele>263.0</ele><time>2026-04-18T08:22:28.893Z</time></trkpt><trkpt lat="43.1784948" lon="12.1818054"><ele>263.0</ele><time>2026-04-18T08:22:29.893Z</time></trkpt><trkpt lat="43.1782858" lon="12.1820752"><ele>263.0</ele><time>2026-04-18T08:22:30.893Z</time></trkpt><trkpt lat="43.1780664" lon="12.1823367"><ele>262.5</ele><time>2026-04-18T08:22:31.893Z</time></trkpt><trkpt lat="43.177842" lon="12.1825954"><ele>262.0</ele><time>2026-04-18T08:22:32.893Z</time></trkpt><trkpt lat="43.1776131" lon="12.1828432"><ele>262.0</ele><time>2026-04-18T08:22:33.893Z</time></trkpt><trkpt lat="43.17738" lon="12.1830795"><ele>262.0</ele><time>2026-04-18T08:22:34.893Z</time></trkpt><trkpt lat="43.1771364" lon="12.1833129"><ele>261.0</ele><time>2026-04-18T08:22:35.893Z</time></trkpt><trkpt lat="43.1768804" lon="12.1835466"><ele>260.0</ele><time>2026-04-18T08:22:36.893Z</time></trkpt><trkpt lat="43.176618" lon="12.1837789"><ele>260.0</ele><time>2026-04-18T08:22:37.893Z</time></trkpt><trkpt lat="43.1763539" lon="12.184014"><ele>260.0</ele><time>2026-04-18T08:22:38.893Z</time></trkpt><trkpt lat="43.1760835" lon="12.1842522"><ele>260.0</ele><time>2026-04-18T08:22:39.892Z</time></trkpt><trkpt lat="43.1758132" lon="12.1844929"><ele>260.0</ele><time>2026-04-18T08:22:40.892Z</time></trkpt><trkpt lat="43.1755353" lon="12.1847406"><ele>261.0</ele><time>2026-04-18T08:22:41.893Z</time></trkpt><trkpt lat="43.1752621" lon="12.1849847"><ele>262.0</ele><time>2026-04-18T08:22:42.892Z</time></trkpt><trkpt lat="43.1749883" lon="12.1852352"><ele>262.5</ele><time>2026-04-18T08:22:43.894Z</time></trkpt><trkpt lat="43.1747137" lon="12.185482"><ele>263.0</ele><time>2026-04-18T08:22:44.892Z</time></trkpt><trkpt lat="43.1744384" lon="12.1857275"><ele>263.0</ele><time>2026-04-18T08:22:45.892Z</time></trkpt><trkpt lat="43.1741637" lon="12.1859674"><ele>263.0</ele><time>2026-04-18T08:22:46.892Z</time></trkpt><trkpt lat="43.1738919" lon="12.1862084"><ele>261.5</ele><time>2026-04-18T08:22:47.891Z</time></trkpt><trkpt lat="43.1736256" lon="12.1864443"><ele>260.0</ele><time>2026-04-18T08:22:48.891Z</time></trkpt><trkpt lat="43.1733566" lon="12.1866707"><ele>260.0</ele><time>2026-04-18T08:22:49.891Z</time></trkpt><trkpt lat="43.1730838" lon="12.1868902"><ele>260.0</ele><time>2026-04-18T08:22:50.892Z</time></trkpt><trkpt lat="43.1728015" lon="12.1871057"><ele>260.0</ele><time>2026-04-18T08:22:51.892Z</time></trkpt><trkpt lat="43.1725082" lon="12.1873103"><ele>260.0</ele><time>2026-04-18T08:22:52.892Z</time></trkpt><trkpt lat="43.1722155" lon="12.1875037"><ele>260.0</ele><time>2026-04-18T08:22:53.892Z</time></trkpt><trkpt lat="43.1719184" lon="12.1876893"><ele>260.0</ele><time>2026-04-18T08:22:54.892Z</time></trkpt><trkpt lat="43.1716171" lon="12.1878634"><ele>260.5</ele><time>2026-04-18T08:22:55.891Z</time></trkpt><trkpt lat="43.171313" lon="12.1880239"><ele>261.0</ele><time>2026-04-18T08:22:56.892Z</time></trkpt><trkpt lat="43.1710082" lon="12.1881727"><ele>261.0</ele><time>2026-04-18T08:22:57.892Z</time></trkpt><trkpt lat="43.1707012" lon="12.1883103"><ele>261.0</ele><time>2026-04-18T08:22:58.893Z</time></trkpt><trkpt lat="43.1703967" lon="12.1884329"><ele>261.0</ele><time>2026-04-18T08:22:59.891Z</time></trkpt><trkpt lat="43.1700887" lon="12.1885444"><ele>261.0</ele><time>2026-04-18T08:23:00.892Z</time></trkpt><trkpt lat="43.1697786" lon="12.1886427"><ele>260.5</ele><time>2026-04-18T08:23:01.892Z</time></trkpt><trkpt lat="43.169469" lon="12.1887294"><ele>260.0</ele><time>2026-04-18T08:23:02.892Z</time></trkpt><trkpt lat="43.1691594" lon="12.1888059"><ele>261.0</ele><time>2026-04-18T08:23:03.893Z</time></trkpt><trkpt lat="43.1688478" lon="12.1888705"><ele>262.0</ele><time>2026-04-18T08:23:04.892Z</time></trkpt><trkpt lat="43.1685415" lon="12.1889262"><ele>262.0</ele><time>2026-04-18T08:23:05.892Z</time></trkpt><trkpt lat="43.1682445" lon="12.1889665"><ele>262.0</ele><time>2026-04-18T08:23:06.892Z</time></trkpt><trkpt lat="43.1679448" lon="12.1889952"><ele>264.5</ele><time>2026-04-18T08:23:07.892Z</time></trkpt><trkpt lat="43.1676413" lon="12.1890182"><ele>267.0</ele><time>2026-04-18T08:23:08.892Z</time></trkpt><trkpt lat="43.1673329" lon="12.1890365"><ele>267.0</ele><time>2026-04-18T08:23:09.892Z</time></trkpt><trkpt lat="43.167021" lon="12.1890529"><ele>267.0</ele><time>2026-04-18T08:23:10.892Z</time></trkpt><trkpt lat="43.1667112" lon="12.189062"><ele>265.5</ele><time>2026-04-18T08:23:11.892Z</time></trkpt><trkpt lat="43.1663977" lon="12.1890757"><ele>264.0</ele><time>2026-04-18T08:23:12.892Z</time></trkpt><trkpt lat="43.1660938" lon="12.1890914"><ele>264.0</ele><time>2026-04-18T08:23:13.892Z</time></trkpt><trkpt lat="43.1658063" lon="12.1891064"><ele>264.0</ele><time>2026-04-18T08:23:14.892Z</time></trkpt><trkpt lat="43.1655205" lon="12.189126"><ele>264.0</ele><time>2026-04-18T08:23:15.892Z</time></trkpt><trkpt lat="43.1652381" lon="12.1891432"><ele>264.0</ele><time>2026-04-18T08:23:16.892Z</time></trkpt><trkpt lat="43.164966" lon="12.1891624"><ele>264.0</ele><time>2026-04-18T08:23:17.892Z</time></trkpt><trkpt lat="43.1647008" lon="12.1891806"><ele>264.0</ele><time>2026-04-18T08:23:18.892Z</time></trkpt><trkpt lat="43.1644337" lon="12.1891979"><ele>264.0</ele><time>2026-04-18T08:23:19.892Z</time></trkpt><trkpt lat="43.1641693" lon="12.1892111"><ele>264.0</ele><time>2026-04-18T08:23:20.892Z</time></trkpt><trkpt lat="43.1639011" lon="12.1892279"><ele>265.0</ele><time>2026-04-18T08:23:21.892Z</time></trkpt><trkpt lat="43.1636372" lon="12.1892443"><ele>266.0</ele><time>2026-04-18T08:23:22.891Z</time></trkpt><trkpt lat="43.1633782" lon="12.1892632"><ele>265.5</ele><time>2026-04-18T08:23:23.891Z</time></trkpt><trkpt lat="43.1631236" lon="12.1892805"><ele>265.0</ele><time>2026-04-18T08:23:24.891Z</time></trkpt><trkpt lat="43.1628664" lon="12.1893022"><ele>265.0</ele><time>2026-04-18T08:23:25.891Z</time></trkpt><trkpt lat="43.1626064" lon="12.1893276"><ele>265.0</ele><time>2026-04-18T08:23:26.891Z</time></trkpt><trkpt lat="43.1623429" lon="12.1893664"><ele>265.0</ele><time>2026-04-18T08:23:27.891Z</time></trkpt><trkpt lat="43.1620734" lon="12.1894173"><ele>265.0</ele><time>2026-04-18T08:23:28.891Z</time></trkpt><trkpt lat="43.1617992" lon="12.1894844"><ele>265.0</ele><time>2026-04-18T08:23:29.891Z</time></trkpt><trkpt lat="43.1615268" lon="12.1895637"><ele>265.0</ele><time>2026-04-18T08:23:30.892Z</time></trkpt><trkpt lat="43.1612469" lon="12.1896682"><ele>265.0</ele><time>2026-04-18T08:23:31.891Z</time></trkpt><trkpt lat="43.1609679" lon="12.1897861"><ele>265.0</ele><time>2026-04-18T08:23:32.892Z</time></trkpt><trkpt lat="43.1606928" lon="12.1899209"><ele>266.5</ele><time>2026-04-18T08:23:33.893Z</time></trkpt><trkpt lat="43.1604248" lon="12.1900799"><ele>268.0</ele><time>2026-04-18T08:23:34.892Z</time></trkpt><trkpt lat="43.160164" lon="12.1902551"><ele>268.0</ele><time>2026-04-18T08:23:35.891Z</time></trkpt><trkpt lat="43.1599097" lon="12.1904527"><ele>268.0</ele><time>2026-04-18T08:23:36.892Z</time></trkpt><trkpt lat="43.1596632" lon="12.1906666"><ele>269.5</ele><time>2026-04-18T08:23:37.892Z</time></trkpt><trkpt lat="43.1594288" lon="12.1908963"><ele>271.0</ele><time>2026-04-18T08:23:38.892Z</time></trkpt><trkpt lat="43.159202" lon="12.1911447"><ele>270.0</ele><time>2026-04-18T08:23:39.891Z</time></trkpt><trkpt lat="43.1589908" lon="12.1913988"><ele>269.0</ele><time>2026-04-18T08:23:40.893Z</time></trkpt><trkpt lat="43.1587904" lon="12.1916679"><ele>271.0</ele><time>2026-04-18T08:23:41.892Z</time></trkpt><trkpt lat="43.1585974" lon="12.1919443"><ele>273.0</ele><time>2026-04-18T08:23:42.892Z</time></trkpt><trkpt lat="43.1584117" lon="12.1922257"><ele>273.0</ele><time>2026-04-18T08:23:43.892Z</time></trkpt><trkpt lat="43.1582319" lon="12.1925055"><ele>273.0</ele><time>2026-04-18T08:23:44.892Z</time></trkpt><trkpt lat="43.1580509" lon="12.1927891"><ele>273.0</ele><time>2026-04-18T08:23:45.891Z</time></trkpt><trkpt lat="43.15787" lon="12.1930777"><ele>273.0</ele><time>2026-04-18T08:23:46.892Z</time></trkpt><trkpt lat="43.1576962" lon="12.1933758"><ele>275.5</ele><time>2026-04-18T08:23:47.891Z</time></trkpt><trkpt lat="43.1575251" lon="12.1936763"><ele>278.0</ele><time>2026-04-18T08:23:48.893Z</time></trkpt><trkpt lat="43.1573673" lon="12.1939789"><ele>282.0</ele><time>2026-04-18T08:23:49.892Z</time></trkpt><trkpt lat="43.1572152" lon="12.1942935"><ele>286.0</ele><time>2026-04-18T08:23:50.892Z</time></trkpt><trkpt lat="43.1570734" lon="12.1946113"><ele>286.5</ele><time>2026-04-18T08:23:51.892Z</time></trkpt><trkpt lat="43.156941" lon="12.1949409"><ele>287.0</ele><time>2026-04-18T08:23:52.892Z</time></trkpt><trkpt lat="43.1568188" lon="12.1952741"><ele>287.0</ele><time>2026-04-18T08:23:53.891Z</time></trkpt><trkpt lat="43.1566984" lon="12.1956078"><ele>287.0</ele><time>2026-04-18T08:23:54.892Z</time></trkpt><trkpt lat="43.1565835" lon="12.1959476"><ele>300.0</ele><time>2026-04-18T08:23:55.892Z</time></trkpt><trkpt lat="43.1564606" lon="12.1962853"><ele>313.0</ele><time>2026-04-18T08:23:56.892Z</time></trkpt><trkpt lat="43.1563408" lon="12.1966249"><ele>313.5</ele><time>2026-04-18T08:23:57.892Z</time></trkpt><trkpt lat="43.1562217" lon="12.1969637"><ele>314.0</ele><time>2026-04-18T08:23:58.892Z</time></trkpt><trkpt lat="43.1561062" lon="12.1972944"><ele>319.0</ele><time>2026-04-18T08:23:59.892Z</time></trkpt><trkpt lat="43.1559924" lon="12.1976289"><ele>324.0</ele><time>2026-04-18T08:24:00.891Z</time></trkpt><trkpt lat="43.1524902" lon="12.2075146"><ele>305.0</ele><time>2026-04-18T08:24:27.892Z</time></trkpt><trkpt lat="43.1523564" lon="12.2078813"><ele>286.0</ele><time>2026-04-18T08:24:28.892Z</time></trkpt><trkpt lat="43.1522279" lon="12.2082395"><ele>283.5</ele><time>2026-04-18T08:24:29.892Z</time></trkpt><trkpt lat="43.1521104" lon="12.2085961"><ele>281.0</ele><time>2026-04-18T08:24:30.891Z</time></trkpt><trkpt lat="43.1519899" lon="12.2089464"><ele>281.0</ele><time>2026-04-18T08:24:31.892Z</time></trkpt><trkpt lat="43.151873" lon="12.2093077"><ele>281.0</ele><time>2026-04-18T08:24:32.892Z</time></trkpt><trkpt lat="43.1517654" lon="12.2096754"><ele>279.0</ele><time>2026-04-18T08:24:33.892Z</time></trkpt><trkpt lat="43.1516743" lon="12.2100481"><ele>277.0</ele><time>2026-04-18T08:24:34.892Z</time></trkpt><trkpt lat="43.1515997" lon="12.2104322"><ele>276.0</ele><time>2026-04-18T08:24:35.892Z</time></trkpt><trkpt lat="43.1515518" lon="12.210824"><ele>275.0</ele><time>2026-04-18T08:24:36.892Z</time></trkpt><trkpt lat="43.1515269" lon="12.2112211"><ele>269.0</ele><time>2026-04-18T08:24:37.893Z</time></trkpt><trkpt lat="43.1515234" lon="12.2116201"><ele>263.0</ele><time>2026-04-18T08:24:38.892Z</time></trkpt><trkpt lat="43.1515365" lon="12.212021"><ele>267.0</ele><time>2026-04-18T08:24:39.892Z</time></trkpt><trkpt lat="43.1515602" lon="12.212423"><ele>271.0</ele><time>2026-04-18T08:24:40.892Z</time></trkpt><trkpt lat="43.1515981" lon="12.2128206"><ele>265.5</ele><time>2026-04-18T08:24:41.892Z</time></trkpt><trkpt lat="43.1516408" lon="12.2132188"><ele>260.0</ele><time>2026-04-18T08:24:42.892Z</time></trkpt><trkpt lat="43.1516789" lon="12.2136094"><ele>257.0</ele><time>2026-04-18T08:24:43.891Z</time></trkpt><trkpt lat="43.1517094" lon="12.2139911"><ele>254.0</ele><time>2026-04-18T08:24:44.892Z</time></trkpt><trkpt lat="43.1517276" lon="12.2143738"><ele>254.0</ele><time>2026-04-18T08:24:45.892Z</time></trkpt><trkpt lat="43.1517283" lon="12.2147633"><ele>254.0</ele><time>2026-04-18T08:24:46.892Z</time></trkpt><trkpt lat="43.1517069" lon="12.2151528"><ele>252.0</ele><time>2026-04-18T08:24:47.892Z</time></trkpt><trkpt lat="43.1516732" lon="12.2155374"><ele>250.0</ele><time>2026-04-18T08:24:48.892Z</time></trkpt><trkpt lat="43.1516209" lon="12.2159196"><ele>249.5</ele><time>2026-04-18T08:24:49.892Z</time></trkpt><trkpt lat="43.1515468" lon="12.2162917"><ele>249.0</ele><time>2026-04-18T08:24:50.891Z</time></trkpt><trkpt lat="43.1514561" lon="12.2166591"><ele>247.0</ele><time>2026-04-18T08:24:51.891Z</time></trkpt><trkpt lat="43.1513463" lon="12.2170149"><ele>245.0</ele><time>2026-04-18T08:24:52.892Z</time></trkpt><trkpt lat="43.1512234" lon="12.2173628"><ele>245.0</ele><time>2026-04-18T08:24:53.892Z</time></trkpt><trkpt lat="43.1510841" lon="12.2176997"><ele>245.0</ele><time>2026-04-18T08:24:54.891Z</time></trkpt><trkpt lat="43.1509317" lon="12.2180204"><ele>245.5</ele><time>2026-04-18T08:24:55.891Z</time></trkpt><trkpt lat="43.1507589" lon="12.2183317"><ele>246.0</ele><time>2026-04-18T08:24:56.892Z</time></trkpt><trkpt lat="43.1505732" lon="12.2186328"><ele>246.0</ele><time>2026-04-18T08:24:57.892Z</time></trkpt><trkpt lat="43.1503716" lon="12.2189188"><ele>246.0</ele><time>2026-04-18T08:24:58.891Z</time></trkpt><trkpt lat="43.150157" lon="12.2191898"><ele>246.0</ele><time>2026-04-18T08:24:59.892Z</time></trkpt><trkpt lat="43.1499304" lon="12.2194346"><ele>246.0</ele><time>2026-04-18T08:25:00.891Z</time></trkpt><trkpt lat="43.1496878" lon="12.2196531"><ele>245.0</ele><time>2026-04-18T08:25:01.892Z</time></trkpt><trkpt lat="43.1494403" lon="12.2198501"><ele>244.0</ele><time>2026-04-18T08:25:02.892Z</time></trkpt><trkpt lat="43.149187" lon="12.2200251"><ele>243.5</ele><time>2026-04-18T08:25:03.892Z</time></trkpt><trkpt lat="43.1489242" lon="12.2201893"><ele>243.0</ele><time>2026-04-18T08:25:04.892Z</time></trkpt><trkpt lat="43.1486573" lon="12.2203509"><ele>243.0</ele><time>2026-04-18T08:25:05.892Z</time></trkpt><trkpt lat="43.1483907" lon="12.220517"><ele>243.0</ele><time>2026-04-18T08:25:06.892Z</time></trkpt><trkpt lat="43.1481216" lon="12.2206849"><ele>243.5</ele><time>2026-04-18T08:25:07.893Z</time></trkpt><trkpt lat="43.1478496" lon="12.2208588"><ele>244.0</ele><time>2026-04-18T08:25:08.892Z</time></trkpt><trkpt lat="43.1475777" lon="12.2210342"><ele>244.0</ele><time>2026-04-18T08:25:09.892Z</time></trkpt><trkpt lat="43.1473055" lon="12.2212062"><ele>244.0</ele><time>2026-04-18T08:25:10.891Z</time></trkpt><trkpt lat="43.1470329" lon="12.2213815"><ele>245.0</ele><time>2026-04-18T08:25:11.892Z</time></trkpt><trkpt lat="43.1467597" lon="12.2215612"><ele>246.0</ele><time>2026-04-18T08:25:12.893Z</time></trkpt><trkpt lat="43.1464909" lon="12.2217362"><ele>244.0</ele><time>2026-04-18T08:25:13.892Z</time></trkpt><trkpt lat="43.1462185" lon="12.22191"><ele>242.0</ele><time>2026-04-18T08:25:14.892Z</time></trkpt><trkpt lat="43.1459434" lon="12.2220818"><ele>242.0</ele><time>2026-04-18T08:25:15.892Z</time></trkpt><trkpt lat="43.1456715" lon="12.2222562"><ele>242.0</ele><time>2026-04-18T08:25:16.892Z</time></trkpt><trkpt lat="43.1454011" lon="12.222428"><ele>242.0</ele><time>2026-04-18T08:25:17.892Z</time></trkpt><trkpt lat="43.1451323" lon="12.2226086"><ele>242.0</ele><time>2026-04-18T08:25:18.892Z</time></trkpt><trkpt lat="43.1448691" lon="12.2228033"><ele>242.0</ele><time>2026-04-18T08:25:19.892Z</time></trkpt><trkpt lat="43.1446164" lon="12.2230116"><ele>242.0</ele><time>2026-04-18T08:25:20.892Z</time></trkpt><trkpt lat="43.1443709" lon="12.2232383"><ele>242.5</ele><time>2026-04-18T08:25:21.892Z</time></trkpt><trkpt lat="43.1441298" lon="12.2234771"><ele>243.0</ele><time>2026-04-18T08:25:22.892Z</time></trkpt><trkpt lat="43.1438988" lon="12.2237285"><ele>242.0</ele><time>2026-04-18T08:25:23.892Z</time></trkpt><trkpt lat="43.1436804" lon="12.2239929"><ele>241.0</ele><time>2026-04-18T08:25:24.892Z</time></trkpt><trkpt lat="43.1434723" lon="12.2242694"><ele>241.0</ele><time>2026-04-18T08:25:25.891Z</time></trkpt><trkpt lat="43.1432736" lon="12.2245631"><ele>241.0</ele><time>2026-04-18T08:25:26.891Z</time></trkpt><trkpt lat="43.1430852" lon="12.2248633"><ele>239.0</ele><time>2026-04-18T08:25:27.891Z</time></trkpt><trkpt lat="43.142909" lon="12.2251654"><ele>237.0</ele><time>2026-04-18T08:25:28.892Z</time></trkpt><trkpt lat="43.1427424" lon="12.2254748"><ele>238.0</ele><time>2026-04-18T08:25:29.892Z</time></trkpt><trkpt lat="43.1425898" lon="12.225793"><ele>239.0</ele><time>2026-04-18T08:25:30.892Z</time></trkpt><trkpt lat="43.1424482" lon="12.2261226"><ele>238.5</ele><time>2026-04-18T08:25:31.892Z</time></trkpt><trkpt lat="43.1423162" lon="12.2264551"><ele>238.0</ele><time>2026-04-18T08:25:32.891Z</time></trkpt><trkpt lat="43.1421986" lon="12.2267931"><ele>238.0</ele><time>2026-04-18T08:25:33.892Z</time></trkpt><trkpt lat="43.1420942" lon="12.2271404"><ele>238.0</ele><time>2026-04-18T08:25:34.892Z</time></trkpt><trkpt lat="43.1420014" lon="12.2274941"><ele>238.0</ele><time>2026-04-18T08:25:35.891Z</time></trkpt><trkpt lat="43.1419178" lon="12.2278503"><ele>238.0</ele><time>2026-04-18T08:25:36.893Z</time></trkpt><trkpt lat="43.1418382" lon="12.2282093"><ele>237.0</ele><time>2026-04-18T08:25:37.892Z</time></trkpt><trkpt lat="43.1417594" lon="12.2285746"><ele>236.0</ele><time>2026-04-18T08:25:38.892Z</time></trkpt><trkpt lat="43.1416863" lon="12.228936"><ele>236.5</ele><time>2026-04-18T08:25:39.892Z</time></trkpt><trkpt lat="43.1416143" lon="12.2293009"><ele>237.0</ele><time>2026-04-18T08:25:40.892Z</time></trkpt><trkpt lat="43.1415458" lon="12.2296652"><ele>235.5</ele><time>2026-04-18T08:25:41.892Z</time></trkpt><trkpt lat="43.1414779" lon="12.2300307"><ele>234.0</ele><time>2026-04-18T08:25:42.893Z</time></trkpt><trkpt lat="43.1414094" lon="12.2303984"><ele>235.0</ele><time>2026-04-18T08:25:43.891Z</time></trkpt><trkpt lat="43.1413354" lon="12.2307708"><ele>236.0</ele><time>2026-04-18T08:25:44.892Z</time></trkpt><trkpt lat="43.1412632" lon="12.2311398"><ele>237.0</ele><time>2026-04-18T08:25:45.892Z</time></trkpt><trkpt lat="43.1411853" lon="12.2315145"><ele>238.0</ele><time>2026-04-18T08:25:46.892Z</time></trkpt><trkpt lat="43.1411099" lon="12.2318909"><ele>238.0</ele><time>2026-04-18T08:25:47.892Z</time></trkpt><trkpt lat="43.1410333" lon="12.2322661"><ele>238.0</ele><time>2026-04-18T08:25:48.892Z</time></trkpt><trkpt lat="43.140957" lon="12.2326436"><ele>238.0</ele><time>2026-04-18T08:25:49.893Z</time></trkpt><trkpt lat="43.1408748" lon="12.233025"><ele>238.0</ele><time>2026-04-18T08:25:50.892Z</time></trkpt><trkpt lat="43.1407925" lon="12.2334042"><ele>237.5</ele><time>2026-04-18T08:25:51.893Z</time></trkpt><trkpt lat="43.1407111" lon="12.2337815"><ele>237.0</ele><time>2026-04-18T08:25:52.892Z</time></trkpt><trkpt lat="43.1406287" lon="12.2341591"><ele>237.0</ele><time>2026-04-18T08:25:53.892Z</time></trkpt><trkpt lat="43.1405441" lon="12.2345357"><ele>237.0</ele><time>2026-04-18T08:25:54.892Z</time></trkpt><trkpt lat="43.1404573" lon="12.2349147"><ele>237.0</ele><time>2026-04-18T08:25:55.892Z</time></trkpt><trkpt lat="43.1403677" lon="12.235293"><ele>237.0</ele><time>2026-04-18T08:25:56.892Z</time></trkpt><trkpt lat="43.1402757" lon="12.2356739"><ele>236.5</ele><time>2026-04-18T08:25:57.892Z</time></trkpt><trkpt lat="43.1401851" lon="12.2360531"><ele>236.0</ele><time>2026-04-18T08:25:58.892Z</time></trkpt><trkpt lat="43.1400857" lon="12.2364381"><ele>235.5</ele><time>2026-04-18T08:25:59.892Z</time></trkpt><trkpt lat="43.1399923" lon="12.2368165"><ele>235.0</ele><time>2026-04-18T08:26:00.892Z</time></trkpt><trkpt lat="43.139896" lon="12.2371929"><ele>235.5</ele><time>2026-04-18T08:26:01.892Z</time></trkpt><trkpt lat="43.1397943" lon="12.2375666"><ele>236.0</ele><time>2026-04-18T08:26:02.892Z</time></trkpt><trkpt lat="43.1396928" lon="12.2379439"><ele>237.0</ele><time>2026-04-18T08:26:03.892Z</time></trkpt><trkpt lat="43.139588" lon="12.238323"><ele>238.0</ele><time>2026-04-18T08:26:04.892Z</time></trkpt><trkpt lat="43.1394846" lon="12.2387025"><ele>237.5</ele><time>2026-04-18T08:26:05.892Z</time></trkpt><trkpt lat="43.1393808" lon="12.2390748"><ele>237.0</ele><time>2026-04-18T08:26:06.892Z</time></trkpt><trkpt lat="43.139279" lon="12.2394483"><ele>236.0</ele><time>2026-04-18T08:26:07.892Z</time></trkpt><trkpt lat="43.1391739" lon="12.2398287"><ele>235.0</ele><time>2026-04-18T08:26:08.892Z</time></trkpt><trkpt lat="43.1390715" lon="12.2402073"><ele>235.0</ele><time>2026-04-18T08:26:09.891Z</time></trkpt><trkpt lat="43.1389672" lon="12.2405868"><ele>235.0</ele><time>2026-04-18T08:26:10.892Z</time></trkpt><trkpt lat="43.138863" lon="12.2409693"><ele>235.0</ele><time>2026-04-18T08:26:11.892Z</time></trkpt><trkpt lat="43.1387542" lon="12.2413519"><ele>235.0</ele><time>2026-04-18T08:26:12.892Z</time></trkpt><trkpt lat="43.1386496" lon="12.2417316"><ele>235.0</ele><time>2026-04-18T08:26:13.891Z</time></trkpt><trkpt lat="43.1385433" lon="12.2421082"><ele>235.0</ele><time>2026-04-18T08:26:14.891Z</time></trkpt><trkpt lat="43.1384391" lon="12.2424844"><ele>235.0</ele><time>2026-04-18T08:26:15.891Z</time></trkpt><trkpt lat="43.1383356" lon="12.2428609"><ele>235.0</ele><time>2026-04-18T08:26:16.892Z</time></trkpt><trkpt lat="43.1382334" lon="12.2432385"><ele>234.5</ele><time>2026-04-18T08:26:17.893Z</time></trkpt><trkpt lat="43.1381301" lon="12.2436155"><ele>234.0</ele><time>2026-04-18T08:26:18.892Z</time></trkpt><trkpt lat="43.1380276" lon="12.2439942"><ele>233.0</ele><time>2026-04-18T08:26:19.891Z</time></trkpt><trkpt lat="43.1379275" lon="12.2443725"><ele>232.0</ele><time>2026-04-18T08:26:20.892Z</time></trkpt><trkpt lat="43.1378233" lon="12.2447537"><ele>232.0</ele><time>2026-04-18T08:26:21.892Z</time></trkpt><trkpt lat="43.1377193" lon="12.2451307"><ele>232.0</ele><time>2026-04-18T08:26:22.892Z</time></trkpt><trkpt lat="43.1376145" lon="12.2455106"><ele>232.5</ele><time>2026-04-18T08:26:23.892Z</time></trkpt><trkpt lat="43.1375143" lon="12.2458919"><ele>233.0</ele><time>2026-04-18T08:26:24.892Z</time></trkpt><trkpt lat="43.1374122" lon="12.2462715"><ele>232.5</ele><time>2026-04-18T08:26:25.892Z</time></trkpt><trkpt lat="43.1373108" lon="12.2466546"><ele>232.0</ele><time>2026-04-18T08:26:26.892Z</time></trkpt><trkpt lat="43.1372068" lon="12.2470358"><ele>231.5</ele><time>2026-04-18T08:26:27.893Z</time></trkpt><trkpt lat="43.137103" lon="12.2474174"><ele>231.0</ele><time>2026-04-18T08:26:28.891Z</time></trkpt><trkpt lat="43.1369992" lon="12.2477938"><ele>230.0</ele><time>2026-04-18T08:26:29.891Z</time></trkpt><trkpt lat="43.1368939" lon="12.2481752"><ele>229.0</ele><time>2026-04-18T08:26:30.892Z</time></trkpt><trkpt lat="43.1367927" lon="12.2485535"><ele>229.0</ele><time>2026-04-18T08:26:31.892Z</time></trkpt><trkpt lat="43.1366927" lon="12.2489286"><ele>229.0</ele><time>2026-04-18T08:26:32.893Z</time></trkpt><trkpt lat="43.1365924" lon="12.2493058"><ele>229.0</ele><time>2026-04-18T08:26:33.892Z</time></trkpt><trkpt lat="43.1364936" lon="12.2496797"><ele>229.0</ele><time>2026-04-18T08:26:34.892Z</time></trkpt><trkpt lat="43.1363893" lon="12.2500556"><ele>229.0</ele><time>2026-04-18T08:26:35.892Z</time></trkpt><trkpt lat="43.1362874" lon="12.25043"><ele>229.0</ele><time>2026-04-18T08:26:36.891Z</time></trkpt><trkpt lat="43.1361856" lon="12.2508035"><ele>229.5</ele><time>2026-04-18T08:26:37.891Z</time></trkpt><trkpt lat="43.1360812" lon="12.2511778"><ele>230.0</ele><time>2026-04-18T08:26:38.893Z</time></trkpt><trkpt lat="43.1359782" lon="12.2515505"><ele>230.0</ele><time>2026-04-18T08:26:39.892Z</time></trkpt><trkpt lat="43.1358751" lon="12.2519228"><ele>230.0</ele><time>2026-04-18T08:26:40.893Z</time></trkpt><trkpt lat="43.1357708" lon="12.2522932"><ele>231.0</ele><time>2026-04-18T08:26:41.892Z</time></trkpt><trkpt lat="43.1356655" lon="12.2526682"><ele>232.0</ele><time>2026-04-18T08:26:42.893Z</time></trkpt><trkpt lat="43.1355675" lon="12.2530266"><ele>232.0</ele><time>2026-04-18T08:26:43.891Z</time></trkpt><trkpt lat="43.1354775" lon="12.2533699"><ele>232.0</ele><time>2026-04-18T08:26:44.891Z</time></trkpt><trkpt lat="43.1353902" lon="12.2537025"><ele>232.5</ele><time>2026-04-18T08:26:45.892Z</time></trkpt><trkpt lat="43.1353021" lon="12.2540314"><ele>233.0</ele><time>2026-04-18T08:26:46.892Z</time></trkpt><trkpt lat="43.1352087" lon="12.2543638"><ele>233.0</ele><time>2026-04-18T08:26:47.892Z</time></trkpt><trkpt lat="43.1351192" lon="12.2546871"><ele>233.0</ele><time>2026-04-18T08:26:48.892Z</time></trkpt><trkpt lat="43.1350342" lon="12.2549924"><ele>233.0</ele><time>2026-04-18T08:26:49.891Z</time></trkpt><trkpt lat="43.1349531" lon="12.255282"><ele>233.0</ele><time>2026-04-18T08:26:50.891Z</time></trkpt><trkpt lat="43.1348725" lon="12.2555575"><ele>233.0</ele><time>2026-04-18T08:26:51.892Z</time></trkpt><trkpt lat="43.1347893" lon="12.2558311"><ele>234.33333333333334</ele><time>2026-04-18T08:26:52.891Z</time></trkpt><trkpt lat="43.1347072" lon="12.2561029"><ele>235.66666666666669</ele><time>2026-04-18T08:26:53.892Z</time></trkpt><trkpt lat="43.1346303" lon="12.2563698"><ele>237.0</ele><time>2026-04-18T08:26:54.891Z</time></trkpt><trkpt lat="43.1345582" lon="12.2566265"><ele>237.0</ele><time>2026-04-18T08:26:55.892Z</time></trkpt><trkpt lat="43.1344949" lon="12.2568702"><ele>237.0</ele><time>2026-04-18T08:26:56.892Z</time></trkpt><trkpt lat="43.1344338" lon="12.2571063"><ele>237.0</ele><time>2026-04-18T08:26:57.892Z</time></trkpt><trkpt lat="43.134375" lon="12.2573272"><ele>236.25</ele><time>2026-04-18T08:26:58.892Z</time></trkpt><trkpt lat="43.134321" lon="12.2575276"><ele>235.5</ele><time>2026-04-18T08:26:59.893Z</time></trkpt><trkpt lat="43.1342691" lon="12.2577098"><ele>234.75</ele><time>2026-04-18T08:27:00.891Z</time></trkpt><trkpt lat="43.1342139" lon="12.2578596"><ele>234.0</ele><time>2026-04-18T08:27:01.891Z</time></trkpt><trkpt lat="43.134149" lon="12.2579881"><ele>234.0</ele><time>2026-04-18T08:27:02.891Z</time></trkpt><trkpt lat="43.1340691" lon="12.2580914"><ele>233.99999999999997</ele><time>2026-04-18T08:27:03.892Z</time></trkpt><trkpt lat="43.1339819" lon="12.2581707"><ele>233.99999999999997</ele><time>2026-04-18T08:27:04.892Z</time></trkpt><trkpt lat="43.133882" lon="12.2582257"><ele>234.0</ele><time>2026-04-18T08:27:05.891Z</time></trkpt><trkpt lat="43.1337697" lon="12.2582556"><ele>234.0</ele><time>2026-04-18T08:27:06.891Z</time></trkpt><trkpt lat="43.1336461" lon="12.2582612"><ele>233.5</ele><time>2026-04-18T08:27:07.891Z</time></trkpt><trkpt lat="43.1335212" lon="12.2582673"><ele>233.0</ele><time>2026-04-18T08:27:08.891Z</time></trkpt><trkpt lat="43.1334093" lon="12.258312"><ele>232.5</ele><time>2026-04-18T08:27:09.892Z</time></trkpt><trkpt lat="43.1333139" lon="12.2583963"><ele>232.0</ele><time>2026-04-18T08:27:10.892Z</time></trkpt><trkpt lat="43.133237" lon="12.2585219"><ele>232.5</ele><time>2026-04-18T08:27:11.892Z</time></trkpt><trkpt lat="43.1331866" lon="12.2586784"><ele>233.0</ele><time>2026-04-18T08:27:12.891Z</time></trkpt><trkpt lat="43.1331759" lon="12.2588598"><ele>233.5</ele><time>2026-04-18T08:27:13.891Z</time></trkpt><trkpt lat="43.1332056" lon="12.2590461"><ele>234.0</ele><time>2026-04-18T08:27:14.891Z</time></trkpt><trkpt lat="43.1332781" lon="12.2592224"><ele>234.0</ele><time>2026-04-18T08:27:15.891Z</time></trkpt><trkpt lat="43.1333711" lon="12.259411"><ele>234.0</ele><time>2026-04-18T08:27:16.891Z</time></trkpt><trkpt lat="43.1334747" lon="12.2596117"><ele>234.0</ele><time>2026-04-18T08:27:17.891Z</time></trkpt><trkpt lat="43.1335857" lon="12.2598273"><ele>233.66666666666669</ele><time>2026-04-18T08:27:18.891Z</time></trkpt><trkpt lat="43.1336957" lon="12.2600408"><ele>233.33333333333334</ele><time>2026-04-18T08:27:19.891Z</time></trkpt><trkpt lat="43.1338115" lon="12.2602695"><ele>233.0</ele><time>2026-04-18T08:27:20.891Z</time></trkpt><trkpt lat="43.1339347" lon="12.2604955"><ele>232.66666666666669</ele><time>2026-04-18T08:27:21.891Z</time></trkpt><trkpt lat="43.1340449" lon="12.2607104"><ele>232.33333333333331</ele><time>2026-04-18T08:27:22.89Z</time></trkpt><trkpt lat="43.1341571" lon="12.2609185"><ele>232.0</ele><time>2026-04-18T08:27:23.891Z</time></trkpt><trkpt lat="43.1342707" lon="12.2611326"><ele>232.0</ele><time>2026-04-18T08:27:24.89Z</time></trkpt><trkpt lat="43.134384" lon="12.2613423"><ele>232.0</ele><time>2026-04-18T08:27:25.891Z</time></trkpt><trkpt lat="43.1344818" lon="12.2615354"><ele>232.0</ele><time>2026-04-18T08:27:26.89Z</time></trkpt><trkpt lat="43.1345733" lon="12.2617049"><ele>232.25</ele><time>2026-04-18T08:27:27.89Z</time></trkpt><trkpt lat="43.1346588" lon="12.2618649"><ele>232.5</ele><time>2026-04-18T08:27:28.891Z</time></trkpt><trkpt lat="43.134738" lon="12.2620145"><ele>232.75</ele><time>2026-04-18T08:27:29.892Z</time></trkpt><trkpt lat="43.1348072" lon="12.2621537"><ele>233.0</ele><time>2026-04-18T08:27:30.891Z</time></trkpt><trkpt lat="43.1348712" lon="12.2622749"><ele>233.16666666666669</ele><time>2026-04-18T08:27:31.892Z</time></trkpt><trkpt lat="43.134929" lon="12.2623891"><ele>233.33333333333334</ele><time>2026-04-18T08:27:32.891Z</time></trkpt><trkpt lat="43.1349713" lon="12.2624884"><ele>233.5</ele><time>2026-04-18T08:27:33.89Z</time></trkpt><trkpt lat="43.1350004" lon="12.2625765"><ele>233.66666666666669</ele><time>2026-04-18T08:27:34.891Z</time></trkpt><trkpt lat="43.1350135" lon="12.2626768"><ele>233.83333333333334</ele><time>2026-04-18T08:27:35.891Z</time></trkpt><trkpt lat="43.1350151" lon="12.2627873"><ele>234.0</ele><time>2026-04-18T08:27:36.891Z</time></trkpt><trkpt lat="43.135018" lon="12.2629122"><ele>234.0</ele><time>2026-04-18T08:27:37.891Z</time></trkpt><trkpt lat="43.1350345" lon="12.2630437"><ele>234.0</ele><time>2026-04-18T08:27:38.89Z</time></trkpt><trkpt lat="43.1350681" lon="12.2631871"><ele>234.0</ele><time>2026-04-18T08:27:39.89Z</time></trkpt><trkpt lat="43.1351272" lon="12.2633299"><ele>234.0</ele><time>2026-04-18T08:27:40.89Z</time></trkpt><trkpt lat="43.1352112" lon="12.2634547"><ele>234.0</ele><time>2026-04-18T08:27:41.891Z</time></trkpt><trkpt lat="43.1353066" lon="12.2635402"><ele>234.0</ele><time>2026-04-18T08:27:42.89Z</time></trkpt><trkpt lat="43.1354143" lon="12.2636032"><ele>234.0</ele><time>2026-04-18T08:27:43.891Z</time></trkpt><trkpt lat="43.1355169" lon="12.2636608"><ele>234.0</ele><time>2026-04-18T08:27:44.89Z</time></trkpt><trkpt lat="43.1356122" lon="12.2637504"><ele>234.0</ele><time>2026-04-18T08:27:45.89Z</time></trkpt><trkpt lat="43.1357082" lon="12.2638821"><ele>234.0</ele><time>2026-04-18T08:27:46.89Z</time></trkpt><trkpt lat="43.135818" lon="12.2640463"><ele>234.0</ele><time>2026-04-18T08:27:47.89Z</time></trkpt><trkpt lat="43.1359314" lon="12.2642504"><ele>233.66666666666669</ele><time>2026-04-18T08:27:48.892Z</time></trkpt><trkpt lat="43.1360441" lon="12.264482"><ele>233.33333333333334</ele><time>2026-04-18T08:27:49.891Z</time></trkpt><trkpt lat="43.1361636" lon="12.2647324"><ele>233.0</ele><time>2026-04-18T08:27:50.892Z</time></trkpt><trkpt lat="43.1362977" lon="12.2650031"><ele>233.5</ele><time>2026-04-18T08:27:51.892Z</time></trkpt><trkpt lat="43.1364378" lon="12.2652853"><ele>234.0</ele><time>2026-04-18T08:27:52.891Z</time></trkpt><trkpt lat="43.1365901" lon="12.2655727"><ele>234.0</ele><time>2026-04-18T08:27:53.891Z</time></trkpt><trkpt lat="43.1367444" lon="12.2658771"><ele>234.0</ele><time>2026-04-18T08:27:54.891Z</time></trkpt><trkpt lat="43.1369016" lon="12.2661856"><ele>234.0</ele><time>2026-04-18T08:27:55.891Z</time></trkpt><trkpt lat="43.1370623" lon="12.2665016"><ele>234.0</ele><time>2026-04-18T08:27:56.891Z</time></trkpt><trkpt lat="43.1372289" lon="12.2668222"><ele>235.0</ele><time>2026-04-18T08:27:57.891Z</time></trkpt><trkpt lat="43.1373909" lon="12.2671326"><ele>236.0</ele><time>2026-04-18T08:27:58.89Z</time></trkpt><trkpt lat="43.1375455" lon="12.2674311"><ele>236.5</ele><time>2026-04-18T08:27:59.891Z</time></trkpt><trkpt lat="43.1376956" lon="12.2677154"><ele>237.0</ele><time>2026-04-18T08:28:00.892Z</time></trkpt><trkpt lat="43.1378387" lon="12.2679825"><ele>235.5</ele><time>2026-04-18T08:28:01.891Z</time></trkpt><trkpt lat="43.1379876" lon="12.2682531"><ele>234.0</ele><time>2026-04-18T08:28:02.89Z</time></trkpt><trkpt lat="43.1381452" lon="12.2685163"><ele>235.0</ele><time>2026-04-18T08:28:03.891Z</time></trkpt><trkpt lat="43.1383093" lon="12.2687468"><ele>236.0</ele><time>2026-04-18T08:28:04.891Z</time></trkpt><trkpt lat="43.1384729" lon="12.2689577"><ele>236.0</ele><time>2026-04-18T08:28:05.891Z</time></trkpt><trkpt lat="43.138637" lon="12.2691536"><ele>236.0</ele><time>2026-04-18T08:28:06.891Z</time></trkpt><trkpt lat="43.1388017" lon="12.2693386"><ele>236.0</ele><time>2026-04-18T08:28:07.891Z</time></trkpt><trkpt lat="43.1389654" lon="12.2695131"><ele>236.33333333333334</ele><time>2026-04-18T08:28:08.891Z</time></trkpt><trkpt lat="43.1391127" lon="12.2696841"><ele>236.66666666666669</ele><time>2026-04-18T08:28:09.891Z</time></trkpt><trkpt lat="43.1392375" lon="12.2698601"><ele>237.0</ele><time>2026-04-18T08:28:10.891Z</time></trkpt><trkpt lat="43.1393379" lon="12.2700517"><ele>237.0</ele><time>2026-04-18T08:28:11.891Z</time></trkpt><trkpt lat="43.1394062" lon="12.2702583"><ele>237.0</ele><time>2026-04-18T08:28:12.891Z</time></trkpt><trkpt lat="43.1394444" lon="12.2704372"><ele>237.0</ele><time>2026-04-18T08:28:13.891Z</time></trkpt><trkpt lat="43.1394631" lon="12.2706014"><ele>237.0</ele><time>2026-04-18T08:28:14.891Z</time></trkpt><trkpt lat="43.1394712" lon="12.2707495"><ele>236.5</ele><time>2026-04-18T08:28:15.89Z</time></trkpt><trkpt lat="43.1394594" lon="12.2709041"><ele>236.0</ele><time>2026-04-18T08:28:16.89Z</time></trkpt><trkpt lat="43.1394335" lon="12.2710464"><ele>235.5</ele><time>2026-04-18T08:28:17.89Z</time></trkpt><trkpt lat="43.1394128" lon="12.2711986"><ele>235.0</ele><time>2026-04-18T08:28:18.891Z</time></trkpt><trkpt lat="43.1394012" lon="12.271367"><ele>235.25</ele><time>2026-04-18T08:28:19.89Z</time></trkpt><trkpt lat="43.1393825" lon="12.271545"><ele>235.5</ele><time>2026-04-18T08:28:20.89Z</time></trkpt><trkpt lat="43.1393565" lon="12.2717331"><ele>235.75</ele><time>2026-04-18T08:28:21.89Z</time></trkpt><trkpt lat="43.1393256" lon="12.2719401"><ele>236.0</ele><time>2026-04-18T08:28:22.891Z</time></trkpt><trkpt lat="43.1392953" lon="12.2721628"><ele>236.66666666666669</ele><time>2026-04-18T08:28:23.891Z</time></trkpt><trkpt lat="43.1392604" lon="12.2723981"><ele>237.33333333333331</ele><time>2026-04-18T08:28:24.891Z</time></trkpt><trkpt lat="43.1392208" lon="12.2726487"><ele>238.0</ele><time>2026-04-18T08:28:25.891Z</time></trkpt><trkpt lat="43.1391817" lon="12.2729111"><ele>238.66666666666666</ele><time>2026-04-18T08:28:26.891Z</time></trkpt><trkpt lat="43.1391436" lon="12.2731732"><ele>239.33333333333331</ele><time>2026-04-18T08:28:27.89Z</time></trkpt><trkpt lat="43.1391056" lon="12.2734204"><ele>240.0</ele><time>2026-04-18T08:28:28.89Z</time></trkpt><trkpt lat="43.1390691" lon="12.2736546"><ele>239.33333333333331</ele><time>2026-04-18T08:28:29.89Z</time></trkpt><trkpt lat="43.1390347" lon="12.273873"><ele>238.66666666666666</ele><time>2026-04-18T08:28:30.891Z</time></trkpt><trkpt lat="43.1390111" lon="12.2740788"><ele>238.0</ele><time>2026-04-18T08:28:31.892Z</time></trkpt><trkpt lat="43.1390004" lon="12.2742828"><ele>238.0</ele><time>2026-04-18T08:28:32.891Z</time></trkpt><trkpt lat="43.1390143" lon="12.2744865"><ele>238.0</ele><time>2026-04-18T08:28:33.89Z</time></trkpt><trkpt lat="43.1390499" lon="12.2746955"><ele>238.0</ele><time>2026-04-18T08:28:34.891Z</time></trkpt><trkpt lat="43.1391161" lon="12.2748953"><ele>237.66666666666666</ele><time>2026-04-18T08:28:35.89Z</time></trkpt><trkpt lat="43.1392141" lon="12.2750842"><ele>237.33333333333331</ele><time>2026-04-18T08:28:36.892Z</time></trkpt><trkpt lat="43.1393277" lon="12.2752603"><ele>237.0</ele><time>2026-04-18T08:28:37.892Z</time></trkpt><trkpt lat="43.1394709" lon="12.2754201"><ele>237.0</ele><time>2026-04-18T08:28:38.892Z</time></trkpt><trkpt lat="43.1396373" lon="12.2755795"><ele>237.0</ele><time>2026-04-18T08:28:39.891Z</time></trkpt><trkpt lat="43.1398202" lon="12.2757545"><ele>237.0</ele><time>2026-04-18T08:28:40.891Z</time></trkpt><trkpt lat="43.1400148" lon="12.2759443"><ele>238.0</ele><time>2026-04-18T08:28:41.891Z</time></trkpt><trkpt lat="43.1402146" lon="12.2761521"><ele>239.0</ele><time>2026-04-18T08:28:42.891Z</time></trkpt><trkpt lat="43.1404221" lon="12.2763672"><ele>238.5</ele><time>2026-04-18T08:28:43.891Z</time></trkpt><trkpt lat="43.1406375" lon="12.2765923"><ele>238.0</ele><time>2026-04-18T08:28:44.89Z</time></trkpt><trkpt lat="43.1408545" lon="12.2768255"><ele>238.0</ele><time>2026-04-18T08:28:45.891Z</time></trkpt><trkpt lat="43.1410603" lon="12.2770424"><ele>238.0</ele><time>2026-04-18T08:28:46.891Z</time></trkpt><trkpt lat="43.1412537" lon="12.2772525"><ele>237.5</ele><time>2026-04-18T08:28:47.891Z</time></trkpt><trkpt lat="43.1414393" lon="12.277448"><ele>237.0</ele><time>2026-04-18T08:28:48.891Z</time></trkpt><trkpt lat="43.1416177" lon="12.2776416"><ele>238.5</ele><time>2026-04-18T08:28:49.89Z</time></trkpt><trkpt lat="43.1417952" lon="12.277841"><ele>240.0</ele><time>2026-04-18T08:28:50.891Z</time></trkpt><trkpt lat="43.1419673" lon="12.2780456"><ele>240.0</ele><time>2026-04-18T08:28:51.891Z</time></trkpt><trkpt lat="43.1421301" lon="12.2782595"><ele>240.0</ele><time>2026-04-18T08:28:52.891Z</time></trkpt><trkpt lat="43.1422895" lon="12.2784647"><ele>240.0</ele><time>2026-04-18T08:28:53.891Z</time></trkpt><trkpt lat="43.1424241" lon="12.2786437"><ele>239.66666666666669</ele><time>2026-04-18T08:28:54.891Z</time></trkpt><trkpt lat="43.14254" lon="12.2788076"><ele>239.33333333333334</ele><time>2026-04-18T08:28:55.891Z</time></trkpt><trkpt lat="43.1426517" lon="12.2789622"><ele>239.0</ele><time>2026-04-18T08:28:56.891Z</time></trkpt><trkpt lat="43.1427602" lon="12.2791055"><ele>238.75</ele><time>2026-04-18T08:28:57.89Z</time></trkpt><trkpt lat="43.1428651" lon="12.2792326"><ele>238.5</ele><time>2026-04-18T08:28:58.89Z</time></trkpt><trkpt lat="43.1429635" lon="12.2793503"><ele>238.25</ele><time>2026-04-18T08:28:59.891Z</time></trkpt><trkpt lat="43.1430563" lon="12.2794546"><ele>238.0</ele><time>2026-04-18T08:29:00.891Z</time></trkpt><trkpt lat="43.143142" lon="12.2795574"><ele>238.2</ele><time>2026-04-18T08:29:01.891Z</time></trkpt><trkpt lat="43.1432243" lon="12.2796481"><ele>238.4</ele><time>2026-04-18T08:29:02.891Z</time></trkpt><trkpt lat="43.1433105" lon="12.2797409"><ele>238.59999999999997</ele><time>2026-04-18T08:29:03.891Z</time></trkpt><trkpt lat="43.1433958" lon="12.2798376"><ele>238.79999999999998</ele><time>2026-04-18T08:29:04.89Z</time></trkpt><trkpt lat="43.1434805" lon="12.2799354"><ele>239.0</ele><time>2026-04-18T08:29:05.89Z</time></trkpt><trkpt lat="43.143575" lon="12.2800372"><ele>239.0</ele><time>2026-04-18T08:29:06.892Z</time></trkpt><trkpt lat="43.1436657" lon="12.280137"><ele>238.99999999999997</ele><time>2026-04-18T08:29:07.891Z</time></trkpt><trkpt lat="43.1437424" lon="12.2802409"><ele>238.99999999999997</ele><time>2026-04-18T08:29:08.891Z</time></trkpt><trkpt lat="43.1438171" lon="12.28034"><ele>239.0</ele><time>2026-04-18T08:29:09.89Z</time></trkpt><trkpt lat="43.1438955" lon="12.2804407"><ele>239.0</ele><time>2026-04-18T08:29:10.89Z</time></trkpt><trkpt lat="43.1439766" lon="12.2805388"><ele>238.79999999999998</ele><time>2026-04-18T08:29:11.891Z</time></trkpt><trkpt lat="43.1440541" lon="12.2806344"><ele>238.59999999999997</ele><time>2026-04-18T08:29:12.891Z</time></trkpt><trkpt lat="43.1441245" lon="12.2807241"><ele>238.4</ele><time>2026-04-18T08:29:13.892Z</time></trkpt><trkpt lat="43.1441882" lon="12.2808125"><ele>238.2</ele><time>2026-04-18T08:29:14.891Z</time></trkpt><trkpt lat="43.1442633" lon="12.2809003"><ele>238.0</ele><time>2026-04-18T08:29:15.89Z</time></trkpt><trkpt lat="43.1443397" lon="12.2809965"><ele>238.0</ele><time>2026-04-18T08:29:16.891Z</time></trkpt><trkpt lat="43.1444227" lon="12.2810921"><ele>238.0</ele><time>2026-04-18T08:29:17.891Z</time></trkpt><trkpt lat="43.1445067" lon="12.2811858"><ele>238.0</ele><time>2026-04-18T08:29:18.892Z</time></trkpt><trkpt lat="43.1445881" lon="12.2812868"><ele>238.0</ele><time>2026-04-18T08:29:19.891Z</time></trkpt><trkpt lat="43.1446664" lon="12.2813793"><ele>238.0</ele><time>2026-04-18T08:29:20.891Z</time></trkpt><trkpt lat="43.1447452" lon="12.2814713"><ele>238.0</ele><time>2026-04-18T08:29:21.89Z</time></trkpt><trkpt lat="43.1448235" lon="12.2815667"><ele>238.0</ele><time>2026-04-18T08:29:22.89Z</time></trkpt><trkpt lat="43.1448985" lon="12.2816665"><ele>238.0</ele><time>2026-04-18T08:29:23.891Z</time></trkpt><trkpt lat="43.1449747" lon="12.2817697"><ele>238.0</ele><time>2026-04-18T08:29:24.89Z</time></trkpt><trkpt lat="43.1450437" lon="12.2818778"><ele>238.0</ele><time>2026-04-18T08:29:25.89Z</time></trkpt><trkpt lat="43.1451056" lon="12.2819939"><ele>238.0</ele><time>2026-04-18T08:29:26.891Z</time></trkpt><trkpt lat="43.1451554" lon="12.2821162"><ele>238.0</ele><time>2026-04-18T08:29:27.891Z</time></trkpt><trkpt lat="43.1451914" lon="12.2822362"><ele>238.0</ele><time>2026-04-18T08:29:28.891Z</time></trkpt><trkpt lat="43.1452191" lon="12.2823608"><ele>238.0</ele><time>2026-04-18T08:29:29.891Z</time></trkpt><trkpt lat="43.1452343" lon="12.2824988"><ele>238.0</ele><time>2026-04-18T08:29:30.891Z</time></trkpt><trkpt lat="43.1452463" lon="12.2826358"><ele>238.4</ele><time>2026-04-18T08:29:31.891Z</time></trkpt><trkpt lat="43.1452439" lon="12.28278"><ele>238.8</ele><time>2026-04-18T08:29:32.891Z</time></trkpt><trkpt lat="43.1452278" lon="12.2829253"><ele>239.2</ele><time>2026-04-18T08:29:33.891Z</time></trkpt><trkpt lat="43.1452016" lon="12.2830724"><ele>239.6</ele><time>2026-04-18T08:29:34.891Z</time></trkpt><trkpt lat="43.1451675" lon="12.2832139"><ele>240.0</ele><time>2026-04-18T08:29:35.891Z</time></trkpt><trkpt lat="43.1451343" lon="12.2833428"><ele>240.0</ele><time>2026-04-18T08:29:36.89Z</time></trkpt><trkpt lat="43.1450926" lon="12.2834747"><ele>240.0</ele><time>2026-04-18T08:29:37.891Z</time></trkpt><trkpt lat="43.1450565" lon="12.2836091"><ele>240.0</ele><time>2026-04-18T08:29:38.891Z</time></trkpt><trkpt lat="43.1450221" lon="12.2837345"><ele>240.0</ele><time>2026-04-18T08:29:39.892Z</time></trkpt><trkpt lat="43.1449913" lon="12.2838505"><ele>240.0</ele><time>2026-04-18T08:29:40.891Z</time></trkpt><trkpt lat="43.1449633" lon="12.2839572"><ele>240.0</ele><time>2026-04-18T08:29:41.891Z</time></trkpt><trkpt lat="43.1449429" lon="12.2840621"><ele>240.0</ele><time>2026-04-18T08:29:42.892Z</time></trkpt><trkpt lat="43.1449205" lon="12.2841846"><ele>240.0</ele><time>2026-04-18T08:29:43.891Z</time></trkpt><trkpt lat="43.1449054" lon="12.2843314"><ele>240.0</ele><time>2026-04-18T08:29:44.891Z</time></trkpt><trkpt lat="43.1448995" lon="12.2845095"><ele>240.0</ele><time>2026-04-18T08:29:45.891Z</time></trkpt><trkpt lat="43.1449162" lon="12.2847123"><ele>240.33333333333331</ele><time>2026-04-18T08:29:46.89Z</time></trkpt><trkpt lat="43.1449571" lon="12.2849274"><ele>240.66666666666666</ele><time>2026-04-18T08:29:47.891Z</time></trkpt><trkpt lat="43.1450255" lon="12.2851452"><ele>241.0</ele><time>2026-04-18T08:29:48.891Z</time></trkpt><trkpt lat="43.145123" lon="12.2853515"><ele>241.0</ele><time>2026-04-18T08:29:49.89Z</time></trkpt><trkpt lat="43.14525" lon="12.2855308"><ele>241.0</ele><time>2026-04-18T08:29:50.891Z</time></trkpt><trkpt lat="43.1453972" lon="12.2856811"><ele>241.0</ele><time>2026-04-18T08:29:51.891Z</time></trkpt><trkpt lat="43.1455723" lon="12.285791"><ele>241.33333333333331</ele><time>2026-04-18T08:29:52.89Z</time></trkpt><trkpt lat="43.1457599" lon="12.2858537"><ele>241.66666666666669</ele><time>2026-04-18T08:29:53.89Z</time></trkpt><trkpt lat="43.1459601" lon="12.2858735"><ele>242.0</ele><time>2026-04-18T08:29:54.892Z</time></trkpt><trkpt lat="43.1461708" lon="12.2858628"><ele>242.0</ele><time>2026-04-18T08:29:55.89Z</time></trkpt><trkpt lat="43.1463904" lon="12.2858367"><ele>242.0</ele><time>2026-04-18T08:29:56.89Z</time></trkpt><trkpt lat="43.1466157" lon="12.2858004"><ele>242.0</ele><time>2026-04-18T08:29:57.89Z</time></trkpt><trkpt lat="43.1468324" lon="12.2857691"><ele>242.33333333333334</ele><time>2026-04-18T08:29:58.89Z</time></trkpt><trkpt lat="43.1470449" lon="12.285751"><ele>242.66666666666669</ele><time>2026-04-18T08:29:59.89Z</time></trkpt><trkpt lat="43.1472644" lon="12.2857464"><ele>243.0</ele><time>2026-04-18T08:30:00.89Z</time></trkpt><trkpt lat="43.1474966" lon="12.285757"><ele>243.0</ele><time>2026-04-18T08:30:01.891Z</time></trkpt><trkpt lat="43.1477398" lon="12.2857873"><ele>243.0</ele><time>2026-04-18T08:30:02.891Z</time></trkpt><trkpt lat="43.1479875" lon="12.2858182"><ele>243.0</ele><time>2026-04-18T08:30:03.891Z</time></trkpt><trkpt lat="43.1482451" lon="12.2858463"><ele>243.0</ele><time>2026-04-18T08:30:04.89Z</time></trkpt><trkpt lat="43.1485069" lon="12.2858848"><ele>243.0</ele><time>2026-04-18T08:30:05.89Z</time></trkpt><trkpt lat="43.1487731" lon="12.2859216"><ele>243.0</ele><time>2026-04-18T08:30:06.89Z</time></trkpt><trkpt lat="43.1490298" lon="12.2859566"><ele>243.5</ele><time>2026-04-18T08:30:07.891Z</time></trkpt><trkpt lat="43.1492801" lon="12.2859971"><ele>244.0</ele><time>2026-04-18T08:30:08.891Z</time></trkpt><trkpt lat="43.1495274" lon="12.2860405"><ele>244.0</ele><time>2026-04-18T08:30:09.892Z</time></trkpt><trkpt lat="43.1497734" lon="12.286089"><ele>244.0</ele><time>2026-04-18T08:30:10.89Z</time></trkpt><trkpt lat="43.150013" lon="12.2861478"><ele>244.0</ele><time>2026-04-18T08:30:11.89Z</time></trkpt><trkpt lat="43.1502487" lon="12.2862276"><ele>244.0</ele><time>2026-04-18T08:30:12.891Z</time></trkpt><trkpt lat="43.1504751" lon="12.2863436"><ele>244.0</ele><time>2026-04-18T08:30:13.891Z</time></trkpt><trkpt lat="43.1506954" lon="12.2864886"><ele>244.0</ele><time>2026-04-18T08:30:14.89Z</time></trkpt><trkpt lat="43.1509037" lon="12.2866606"><ele>244.0</ele><time>2026-04-18T08:30:15.891Z</time></trkpt><trkpt lat="43.1511021" lon="12.2868554"><ele>244.0</ele><time>2026-04-18T08:30:16.89Z</time></trkpt><trkpt lat="43.1512882" lon="12.2870685"><ele>244.5</ele><time>2026-04-18T08:30:17.89Z</time></trkpt><trkpt lat="43.1514626" lon="12.2873043"><ele>245.0</ele><time>2026-04-18T08:30:18.89Z</time></trkpt><trkpt lat="43.1516119" lon="12.2875626"><ele>245.0</ele><time>2026-04-18T08:30:19.89Z</time></trkpt><trkpt lat="43.1517503" lon="12.2878464"><ele>245.0</ele><time>2026-04-18T08:30:20.89Z</time></trkpt><trkpt lat="43.1518773" lon="12.2881593"><ele>245.0</ele><time>2026-04-18T08:30:21.891Z</time></trkpt><trkpt lat="43.1519996" lon="12.2884891"><ele>245.0</ele><time>2026-04-18T08:30:22.891Z</time></trkpt><trkpt lat="43.1521199" lon="12.2888276"><ele>245.5</ele><time>2026-04-18T08:30:23.891Z</time></trkpt><trkpt lat="43.1522389" lon="12.2891776"><ele>246.0</ele><time>2026-04-18T08:30:24.892Z</time></trkpt><trkpt lat="43.1523646" lon="12.2895262"><ele>247.5</ele><time>2026-04-18T08:30:25.891Z</time></trkpt><trkpt lat="43.152495" lon="12.2898808"><ele>249.0</ele><time>2026-04-18T08:30:26.89Z</time></trkpt><trkpt lat="43.1526234" lon="12.2902421"><ele>248.0</ele><time>2026-04-18T08:30:27.892Z</time></trkpt><trkpt lat="43.1527521" lon="12.2905969"><ele>247.0</ele><time>2026-04-18T08:30:28.891Z</time></trkpt><trkpt lat="43.152885" lon="12.290952"><ele>247.0</ele><time>2026-04-18T08:30:29.891Z</time></trkpt><trkpt lat="43.1530121" lon="12.2913077"><ele>247.0</ele><time>2026-04-18T08:30:30.891Z</time></trkpt><trkpt lat="43.1531353" lon="12.2916615"><ele>248.5</ele><time>2026-04-18T08:30:31.891Z</time></trkpt><trkpt lat="43.1532591" lon="12.2920151"><ele>250.0</ele><time>2026-04-18T08:30:32.891Z</time></trkpt><trkpt lat="43.1533846" lon="12.2923675"><ele>250.0</ele><time>2026-04-18T08:30:33.89Z</time></trkpt><trkpt lat="43.1535077" lon="12.2927176"><ele>250.0</ele><time>2026-04-18T08:30:34.891Z</time></trkpt><trkpt lat="43.1536273" lon="12.2930664"><ele>248.5</ele><time>2026-04-18T08:30:35.89Z</time></trkpt><trkpt lat="43.1537422" lon="12.2933974"><ele>247.0</ele><time>2026-04-18T08:30:36.891Z</time></trkpt><trkpt lat="43.1538539" lon="12.2937194"><ele>247.0</ele><time>2026-04-18T08:30:37.89Z</time></trkpt><trkpt lat="43.1539653" lon="12.2940394"><ele>247.0</ele><time>2026-04-18T08:30:38.891Z</time></trkpt><trkpt lat="43.1540769" lon="12.2943558"><ele>247.5</ele><time>2026-04-18T08:30:39.89Z</time></trkpt><trkpt lat="43.1541856" lon="12.2946561"><ele>248.0</ele><time>2026-04-18T08:30:40.891Z</time></trkpt><trkpt lat="43.1542883" lon="12.2949474"><ele>248.0</ele><time>2026-04-18T08:30:41.891Z</time></trkpt><trkpt lat="43.1543872" lon="12.2952457"><ele>248.0</ele><time>2026-04-18T08:30:42.891Z</time></trkpt><trkpt lat="43.1544772" lon="12.2955378"><ele>247.5</ele><time>2026-04-18T08:30:43.891Z</time></trkpt><trkpt lat="43.1545697" lon="12.2958223"><ele>247.0</ele><time>2026-04-18T08:30:44.892Z</time></trkpt><trkpt lat="43.1546542" lon="12.2961094"><ele>247.0</ele><time>2026-04-18T08:30:45.891Z</time></trkpt><trkpt lat="43.1547363" lon="12.2964013"><ele>247.0</ele><time>2026-04-18T08:30:46.891Z</time></trkpt><trkpt lat="43.1548201" lon="12.2966964"><ele>248.5</ele><time>2026-04-18T08:30:47.891Z</time></trkpt><trkpt lat="43.1549018" lon="12.2969942"><ele>250.0</ele><time>2026-04-18T08:30:48.891Z</time></trkpt><trkpt lat="43.154982" lon="12.2972919"><ele>250.0</ele><time>2026-04-18T08:30:49.891Z</time></trkpt><trkpt lat="43.1550573" lon="12.2975766"><ele>250.0</ele><time>2026-04-18T08:30:50.891Z</time></trkpt><trkpt lat="43.1551254" lon="12.2978473"><ele>250.0</ele><time>2026-04-18T08:30:51.892Z</time></trkpt><trkpt lat="43.1551989" lon="12.2981117"><ele>250.0</ele><time>2026-04-18T08:30:52.891Z</time></trkpt><trkpt lat="43.1552696" lon="12.2983794"><ele>250.0</ele><time>2026-04-18T08:30:53.891Z</time></trkpt><trkpt lat="43.1553323" lon="12.2986417"><ele>250.0</ele><time>2026-04-18T08:30:54.891Z</time></trkpt><trkpt lat="43.1553825" lon="12.2989011"><ele>250.33333333333331</ele><time>2026-04-18T08:30:55.891Z</time></trkpt><trkpt lat="43.1554215" lon="12.2991667"><ele>250.66666666666669</ele><time>2026-04-18T08:30:56.891Z</time></trkpt><trkpt lat="43.1554621" lon="12.2994371"><ele>251.0</ele><time>2026-04-18T08:30:57.892Z</time></trkpt><trkpt lat="43.1555037" lon="12.2997117"><ele>252.66666666666669</ele><time>2026-04-18T08:30:58.891Z</time></trkpt><trkpt lat="43.1555495" lon="12.2999855"><ele>254.33333333333331</ele><time>2026-04-18T08:30:59.89Z</time></trkpt><trkpt lat="43.1555963" lon="12.3002622"><ele>256.0</ele><time>2026-04-18T08:31:00.892Z</time></trkpt><trkpt lat="43.1556458" lon="12.3005421"><ele>255.0</ele><time>2026-04-18T08:31:01.89Z</time></trkpt><trkpt lat="43.1556957" lon="12.3008222"><ele>254.0</ele><time>2026-04-18T08:31:02.891Z</time></trkpt><trkpt lat="43.1557562" lon="12.3010953"><ele>253.0</ele><time>2026-04-18T08:31:03.891Z</time></trkpt><trkpt lat="43.1558318" lon="12.3013598"><ele>255.0</ele><time>2026-04-18T08:31:04.891Z</time></trkpt><trkpt lat="43.1559168" lon="12.3016238"><ele>257.0</ele><time>2026-04-18T08:31:05.891Z</time></trkpt><trkpt lat="43.1560062" lon="12.3018853"><ele>259.0</ele><time>2026-04-18T08:31:06.891Z</time></trkpt><trkpt lat="43.1560991" lon="12.3021373"><ele>262.0</ele><time>2026-04-18T08:31:07.89Z</time></trkpt><trkpt lat="43.1561946" lon="12.3023825"><ele>265.0</ele><time>2026-04-18T08:31:08.89Z</time></trkpt><trkpt lat="43.1562909" lon="12.3026114"><ele>268.0</ele><time>2026-04-18T08:31:09.891Z</time></trkpt><trkpt lat="43.1563891" lon="12.3028262"><ele>268.0</ele><time>2026-04-18T08:31:10.891Z</time></trkpt><trkpt lat="43.1564951" lon="12.3030381"><ele>268.0</ele><time>2026-04-18T08:31:11.89Z</time></trkpt><trkpt lat="43.1566137" lon="12.3032384"><ele>268.0</ele><time>2026-04-18T08:31:12.891Z</time></trkpt><trkpt lat="43.1567381" lon="12.3034378"><ele>267.66666666666663</ele><time>2026-04-18T08:31:13.892Z</time></trkpt><trkpt lat="43.1568723" lon="12.3036351"><ele>267.3333333333333</ele><time>2026-04-18T08:31:14.89Z</time></trkpt><trkpt lat="43.1570122" lon="12.3038347"><ele>267.0</ele><time>2026-04-18T08:31:15.891Z</time></trkpt><trkpt lat="43.1571478" lon="12.304029"><ele>267.0</ele><time>2026-04-18T08:31:16.891Z</time></trkpt><trkpt lat="43.1572812" lon="12.3042227"><ele>267.0</ele><time>2026-04-18T08:31:17.892Z</time></trkpt><trkpt lat="43.1574086" lon="12.3044156"><ele>267.0</ele><time>2026-04-18T08:31:18.891Z</time></trkpt><trkpt lat="43.1575293" lon="12.3046084"><ele>265.6666666666667</ele><time>2026-04-18T08:31:19.891Z</time></trkpt><trkpt lat="43.1576384" lon="12.3047935"><ele>264.33333333333337</ele><time>2026-04-18T08:31:20.891Z</time></trkpt><trkpt lat="43.1577454" lon="12.3049852"><ele>263.0</ele><time>2026-04-18T08:31:21.891Z</time></trkpt><trkpt lat="43.1578454" lon="12.3051856"><ele>263.0</ele><time>2026-04-18T08:31:22.89Z</time></trkpt><trkpt lat="43.1579377" lon="12.3053913"><ele>263.0</ele><time>2026-04-18T08:31:23.891Z</time></trkpt><trkpt lat="43.1580262" lon="12.3055996"><ele>263.0</ele><time>2026-04-18T08:31:24.891Z</time></trkpt><trkpt lat="43.1581144" lon="12.3058115"><ele>261.0</ele><time>2026-04-18T08:31:25.89Z</time></trkpt><trkpt lat="43.1581989" lon="12.3060215"><ele>259.0</ele><time>2026-04-18T08:31:26.891Z</time></trkpt><trkpt lat="43.1582822" lon="12.3062272"><ele>257.0</ele><time>2026-04-18T08:31:27.89Z</time></trkpt><trkpt lat="43.1583672" lon="12.3064253"><ele>257.0</ele><time>2026-04-18T08:31:28.89Z</time></trkpt><trkpt lat="43.1584573" lon="12.3066203"><ele>257.0</ele><time>2026-04-18T08:31:29.891Z</time></trkpt><trkpt lat="43.1585534" lon="12.3068105"><ele>257.0</ele><time>2026-04-18T08:31:30.89Z</time></trkpt><trkpt lat="43.1586556" lon="12.3069993"><ele>257.0</ele><time>2026-04-18T08:31:31.889Z</time></trkpt><trkpt lat="43.1587667" lon="12.3071813"><ele>257.0</ele><time>2026-04-18T08:31:32.89Z</time></trkpt><trkpt lat="43.1588874" lon="12.3073557"><ele>257.0</ele><time>2026-04-18T08:31:33.889Z</time></trkpt><trkpt lat="43.159014" lon="12.3075193"><ele>255.66666666666669</ele><time>2026-04-18T08:31:34.89Z</time></trkpt><trkpt lat="43.1591478" lon="12.3076698"><ele>254.33333333333331</ele><time>2026-04-18T08:31:35.89Z</time></trkpt><trkpt lat="43.159278" lon="12.3078046"><ele>253.0</ele><time>2026-04-18T08:31:36.891Z</time></trkpt><trkpt lat="43.1594071" lon="12.3079271"><ele>253.0</ele><time>2026-04-18T08:31:37.89Z</time></trkpt><trkpt lat="43.1595297" lon="12.3080317"><ele>253.0</ele><time>2026-04-18T08:31:38.889Z</time></trkpt><trkpt lat="43.1596405" lon="12.3081313"><ele>253.0</ele><time>2026-04-18T08:31:39.89Z</time></trkpt><trkpt lat="43.159745" lon="12.3082248"><ele>253.0</ele><time>2026-04-18T08:31:40.889Z</time></trkpt><trkpt lat="43.1598377" lon="12.3083235"><ele>253.4</ele><time>2026-04-18T08:31:41.889Z</time></trkpt><trkpt lat="43.1599166" lon="12.3084312"><ele>253.8</ele><time>2026-04-18T08:31:42.89Z</time></trkpt><trkpt lat="43.1599798" lon="12.3085345"><ele>254.2</ele><time>2026-04-18T08:31:43.89Z</time></trkpt><trkpt lat="43.1600256" lon="12.3086216"><ele>254.6</ele><time>2026-04-18T08:31:44.89Z</time></trkpt><trkpt lat="43.1600724" lon="12.308736"><ele>255.0</ele><time>2026-04-18T08:31:46.89Z</time></trkpt><trkpt lat="43.160093" lon="12.3088751"><ele>255.2</ele><time>2026-04-18T08:31:49.89Z</time></trkpt><trkpt lat="43.1601356" lon="12.3090359"><ele>255.4</ele><time>2026-04-18T08:31:51.889Z</time></trkpt><trkpt lat="43.1601833" lon="12.3091202"><ele>255.60000000000002</ele><time>2026-04-18T08:31:52.89Z</time></trkpt><trkpt lat="43.1602471" lon="12.3092114"><ele>255.8</ele><time>2026-04-18T08:31:53.89Z</time></trkpt><trkpt lat="43.1603114" lon="12.3093207"><ele>256.0</ele><time>2026-04-18T08:31:54.89Z</time></trkpt><trkpt lat="43.1603771" lon="12.3094291"><ele>256.0</ele><time>2026-04-18T08:31:55.889Z</time></trkpt><trkpt lat="43.1604535" lon="12.3095219"><ele>256.0</ele><time>2026-04-18T08:31:56.889Z</time></trkpt><trkpt lat="43.1605428" lon="12.3096103"><ele>256.0</ele><time>2026-04-18T08:31:57.89Z</time></trkpt><trkpt lat="43.1606326" lon="12.3097074"><ele>256.0</ele><time>2026-04-18T08:31:58.89Z</time></trkpt><trkpt lat="43.1607196" lon="12.3098204"><ele>256.0</ele><time>2026-04-18T08:31:59.89Z</time></trkpt><trkpt lat="43.160795" lon="12.3099249"><ele>256.6</ele><time>2026-04-18T08:32:00.89Z</time></trkpt><trkpt lat="43.1608671" lon="12.3100108"><ele>257.20000000000005</ele><time>2026-04-18T08:32:01.89Z</time></trkpt><trkpt lat="43.1609414" lon="12.3100719"><ele>257.79999999999995</ele><time>2026-04-18T08:32:02.89Z</time></trkpt><trkpt lat="43.1610288" lon="12.3101141"><ele>258.4</ele><time>2026-04-18T08:32:03.89Z</time></trkpt><trkpt lat="43.1611229" lon="12.310127"><ele>259.0</ele><time>2026-04-18T08:32:04.891Z</time></trkpt><trkpt lat="43.1612279" lon="12.3101198"><ele>259.0</ele><time>2026-04-18T08:32:05.89Z</time></trkpt><trkpt lat="43.1613476" lon="12.3101111"><ele>259.0</ele><time>2026-04-18T08:32:06.89Z</time></trkpt><trkpt lat="43.161468" lon="12.3100864"><ele>259.0</ele><time>2026-04-18T08:32:07.89Z</time></trkpt><trkpt lat="43.1615766" lon="12.310041"><ele>259.0</ele><time>2026-04-18T08:32:08.89Z</time></trkpt><trkpt lat="43.161678" lon="12.3099758"><ele>259.0</ele><time>2026-04-18T08:32:09.89Z</time></trkpt><trkpt lat="43.1617664" lon="12.3099007"><ele>259.0</ele><time>2026-04-18T08:32:10.89Z</time></trkpt><trkpt lat="43.1618504" lon="12.309781"><ele>259.0</ele><time>2026-04-18T08:32:11.889Z</time></trkpt><trkpt lat="43.1619174" lon="12.3096418"><ele>259.0</ele><time>2026-04-18T08:32:12.89Z</time></trkpt><trkpt lat="43.1619731" lon="12.3094804"><ele>259.0</ele><time>2026-04-18T08:32:13.89Z</time></trkpt><trkpt lat="43.1620063" lon="12.3093283"><ele>259.0</ele><time>2026-04-18T08:32:14.89Z</time></trkpt><trkpt lat="43.1620373" lon="12.3091862"><ele>259.0</ele><time>2026-04-18T08:32:15.89Z</time></trkpt><trkpt lat="43.16206" lon="12.3090495"><ele>259.0</ele><time>2026-04-18T08:32:16.89Z</time></trkpt><trkpt lat="43.1620852" lon="12.3089032"><ele>259.0</ele><time>2026-04-18T08:32:17.89Z</time></trkpt><trkpt lat="43.1621115" lon="12.308767"><ele>259.2</ele><time>2026-04-18T08:32:18.89Z</time></trkpt><trkpt lat="43.1621377" lon="12.3086395"><ele>259.4</ele><time>2026-04-18T08:32:19.889Z</time></trkpt><trkpt lat="43.1621575" lon="12.3085157"><ele>259.6</ele><time>2026-04-18T08:32:20.89Z</time></trkpt><trkpt lat="43.1621776" lon="12.3083872"><ele>259.8</ele><time>2026-04-18T08:32:21.89Z</time></trkpt><trkpt lat="43.1621944" lon="12.308254"><ele>260.0</ele><time>2026-04-18T08:32:22.89Z</time></trkpt><trkpt lat="43.1622071" lon="12.3081233"><ele>259.33333333333337</ele><time>2026-04-18T08:32:23.89Z</time></trkpt><trkpt lat="43.1622143" lon="12.3080095"><ele>258.6666666666667</ele><time>2026-04-18T08:32:24.889Z</time></trkpt><trkpt lat="43.16222" lon="12.3079191"><ele>258.0</ele><time>2026-04-18T08:32:25.89Z</time></trkpt><trkpt lat="43.1622194" lon="12.3078294"><ele>257.3333333333333</ele><time>2026-04-18T08:32:26.89Z</time></trkpt><trkpt lat="43.1622199" lon="12.3077293"><ele>256.66666666666663</ele><time>2026-04-18T08:32:27.891Z</time></trkpt><trkpt lat="43.162215" lon="12.3076071"><ele>256.0</ele><time>2026-04-18T08:32:28.89Z</time></trkpt><trkpt lat="43.1621996" lon="12.3074692"><ele>256.0</ele><time>2026-04-18T08:32:29.89Z</time></trkpt><trkpt lat="43.1621785" lon="12.3073153"><ele>256.0</ele><time>2026-04-18T08:32:30.89Z</time></trkpt><trkpt lat="43.1621508" lon="12.3071573"><ele>256.0</ele><time>2026-04-18T08:32:31.89Z</time></trkpt><trkpt lat="43.1621225" lon="12.3069868"><ele>256.0</ele><time>2026-04-18T08:32:32.889Z</time></trkpt><trkpt lat="43.1620974" lon="12.3068212"><ele>256.0</ele><time>2026-04-18T08:32:33.89Z</time></trkpt><trkpt lat="43.1620768" lon="12.3066708"><ele>256.0</ele><time>2026-04-18T08:32:34.891Z</time></trkpt><trkpt lat="43.1620576" lon="12.3065302"><ele>256.0</ele><time>2026-04-18T08:32:35.89Z</time></trkpt><trkpt lat="43.1620375" lon="12.3063881"><ele>256.0</ele><time>2026-04-18T08:32:36.89Z</time></trkpt><trkpt lat="43.1620138" lon="12.3062386"><ele>256.0</ele><time>2026-04-18T08:32:37.891Z</time></trkpt><trkpt lat="43.1619917" lon="12.3060724"><ele>256.0</ele><time>2026-04-18T08:32:38.889Z</time></trkpt><trkpt lat="43.1619707" lon="12.305901"><ele>256.0</ele><time>2026-04-18T08:32:39.89Z</time></trkpt><trkpt lat="43.1619447" lon="12.3057419"><ele>256.0</ele><time>2026-04-18T08:32:40.89Z</time></trkpt><trkpt lat="43.1619155" lon="12.3056031"><ele>256.0</ele><time>2026-04-18T08:32:41.89Z</time></trkpt><trkpt lat="43.1618934" lon="12.3054689"><ele>257.0</ele><time>2026-04-18T08:32:42.89Z</time></trkpt><trkpt lat="43.1618753" lon="12.3053647"><ele>258.0</ele><time>2026-04-18T08:32:43.891Z</time></trkpt><trkpt lat="43.1618996" lon="12.305238"><ele>259.0</ele><time>2026-04-18T08:32:45.89Z</time></trkpt><trkpt lat="43.1619726" lon="12.3052022"><ele>260.0</ele><time>2026-04-18T08:32:47.889Z</time></trkpt><trkpt lat="43.1620742" lon="12.3052388"><ele>261.0</ele><time>2026-04-18T08:32:49.89Z</time></trkpt><trkpt lat="43.1621634" lon="12.3053179"><ele>261.0</ele><time>2026-04-18T08:32:50.89Z</time></trkpt><trkpt lat="43.1622384" lon="12.3054412"><ele>261.0</ele><time>2026-04-18T08:32:51.89Z</time></trkpt><trkpt lat="43.162334" lon="12.305542"><ele>261.0</ele><time>2026-04-18T08:32:52.89Z</time></trkpt><trkpt lat="43.1624715" lon="12.3056474"><ele>261.0</ele><time>2026-04-18T08:32:53.89Z</time></trkpt><trkpt lat="43.1626143" lon="12.3057464"><ele>262.5</ele><time>2026-04-18T08:32:54.89Z</time></trkpt><trkpt lat="43.162765" lon="12.3058276"><ele>264.0</ele><time>2026-04-18T08:32:55.89Z</time></trkpt><trkpt lat="43.1629" lon="12.3058646"><ele>265.5</ele><time>2026-04-18T08:32:56.89Z</time></trkpt><trkpt lat="43.1630218" lon="12.3058924"><ele>267.0</ele><time>2026-04-18T08:32:57.89Z</time></trkpt><trkpt lat="43.163128" lon="12.3059406"><ele>270.0</ele><time>2026-04-18T08:32:58.89Z</time></trkpt><trkpt lat="43.1632387" lon="12.3059869"><ele>273.0</ele><time>2026-04-18T08:32:59.891Z</time></trkpt><trkpt lat="43.1633303" lon="12.3060828"><ele>276.0</ele><time>2026-04-18T08:33:00.89Z</time></trkpt><trkpt lat="43.1634133" lon="12.3061652"><ele>279.0</ele><time>2026-04-18T08:33:01.89Z</time></trkpt><trkpt lat="43.1634936" lon="12.3062283"><ele>282.0</ele><time>2026-04-18T08:33:02.891Z</time></trkpt><trkpt lat="43.1635515" lon="12.306285"><ele>280.2</ele><time>2026-04-18T08:33:03.89Z</time></trkpt><trkpt lat="43.1635981" lon="12.3064129"><ele>278.4</ele><time>2026-04-18T08:33:05.889Z</time></trkpt><trkpt lat="43.1635946" lon="12.3065586"><ele>276.6</ele><time>2026-04-18T08:33:07.89Z</time></trkpt><trkpt lat="43.1635759" lon="12.3067207"><ele>274.8</ele><time>2026-04-18T08:33:09.891Z</time></trkpt><trkpt lat="43.1635651" lon="12.3068734"><ele>273.0</ele><time>2026-04-18T08:33:11.89Z</time></trkpt><trkpt lat="43.1635447" lon="12.3070232"><ele>273.0</ele><time>2026-04-18T08:33:13.89Z</time></trkpt><trkpt lat="43.1635065" lon="12.3071621"><ele>273.0</ele><time>2026-04-18T08:33:15.891Z</time></trkpt><trkpt lat="43.1634726" lon="12.3072592"><ele>268.0</ele><time>2026-04-18T08:33:17.889Z</time></trkpt><trkpt lat="43.16347" lon="12.3073562"><ele>268.0</ele><time>2026-04-18T08:33:21.89Z</time></trkpt></trkseg></trk></gpx>